[[{"header":{"parameterUnit":"m.s-1","parameterCategory":1,"la1":30.6,"la2":29.2853,"lo1":-89.7004,"lo2":-87.6739,"dy":0.0162,"dx":0.0183,"nx":112,"ny":82,"refTime":"2024-06-10T18:00:00:Z","depth":0,"parameterNumber":2,"parameterNumberName":"U-component_of_WINDS"},"data":[0.0,0.0,0.0,0.0,0.0,0.0,0.0,0.0,0.0,0.0,0.0,0.0,0.0,0.0,0.0,0.0,0.0,0.0,0.0,0.0,0.0,0.0,0.0,0.0,0.0,0.0,0.0,0.0,0.0,0.0,0.0,0.0,0.0,0.0,0.0,0.0,0.0,0.0,0.0,0.0,0.0,0.0,0.0,0.0,0.0,0.0,0.0,0.0,0.0,0.0,0.0,0.0,0.0,0.0,0.0,0.0,0.0,0.0,0.0,0.0,0.0,0.0,0.0,0.0,0.0,0.0,0.0,0.0,0.0,0.0,0.0,0.0,0.0,0.0,0.0,0.0,0.0,0.0,0.0,0.0,0.0,0.0,0.0,0.0,0.0,0.0,0.0,0.0,0.0,0.0,-2.351,-2.5038,-2.5744,-2.5468,-2.3802,-2.2704,-2.0833,-1.7743,0.0,0.0,0.0,0.0,0.0,0.0,0.0,0.0,0.0,0.0,0.0,0.0,0.0,0.0,0.0,0.0,0.0,0.0,0.0,0.0,0.0,0.0,0.0,0.0,0.0,0.0,0.0,0.0,0.0,0.0,0.0,0.0,0.0,0.0,0.0,0.0,0.0,0.0,0.0,0.0,0.0,0.0,0.0,0.0,0.0,0.0,0.0,0.0,0.0,0.0,0.0,0.0,0.0,0.0,0.0,0.0,0.0,0.0,0.0,0.0,0.0,0.0,0.0,0.0,0.0,0.0,0.0,0.0,0.0,0.0,0.0,0.0,0.0,0.0,0.0,0.0,0.0,0.0,0.0,0.0,0.0,0.0,0.0,0.0,0.0,0.0,0.0,0.0,0.0,0.0,0.0,0.0,0.0,0.0,0.0,0.0,0.0,0.0,0.0,0.0,0.0,0.0,0.0,0.0,-2.561,-2.6409,-2.583,-2.4706,-2.3089,-2.197,-2.0483,-1.845,0.0,0.0,0.0,0.0,0.0,0.0,0.0,0.0,0.0,0.0,0.0,0.0,0.0,0.0,0.0,0.0,0.0,0.0,0.0,0.0,0.0,0.0,0.0,0.0,0.0,0.0,0.0,0.0,0.0,0.0,0.0,0.0,0.0,0.0,0.0,0.0,0.0,0.0,0.0,0.0,0.0,0.0,0.0,0.0,0.0,0.0,0.0,0.0,0.0,0.0,0.0,0.0,0.0,0.0,0.0,0.0,0.0,0.0,0.0,0.0,0.0,0.0,0.0,0.0,0.0,0.0,0.0,0.0,0.0,0.0,0.0,0.0,0.0,0.0,0.0,0.0,0.0,0.0,0.0,0.0,0.0,0.0,0.0,0.0,0.0,0.0,0.0,0.0,0.0,0.0,0.0,0.0,0.0,0.0,0.0,0.0,0.0,0.0,0.0,0.0,0.0,0.0,0.0,-2.406,-2.538,-2.5582,-2.5042,-2.416,-2.2953,-2.2057,-2.0669,-1.8631,-1.7424,0.0,0.0,0.0,0.0,0.0,0.0,0.0,0.0,0.0,0.0,0.0,0.0,0.0,0.0,0.0,0.0,0.0,0.0,0.0,0.0,0.0,0.0,0.0,0.0,0.0,0.0,0.0,0.0,0.0,0.0,0.0,0.0,0.0,0.0,0.0,0.0,0.0,0.0,0.0,0.0,0.0,0.0,0.0,0.0,0.0,0.0,0.0,0.0,0.0,0.0,0.0,0.0,0.0,0.0,0.0,0.0,0.0,0.0,0.0,0.0,0.0,0.0,0.0,0.0,0.0,0.0,0.0,0.0,0.0,0.0,0.0,0.0,0.0,0.0,0.0,0.0,0.0,0.0,0.0,0.0,0.0,0.0,0.0,0.0,0.0,0.0,0.0,0.0,0.0,0.0,0.0,0.0,0.0,0.0,0.0,0.0,0.0,0.0,0.0,0.0,0.0,0.0,-2.4777,-2.4946,-2.4629,-2.4428,-2.3858,-2.2731,-2.2156,-2.0959,-1.8821,-1.8177,0.0,0.0,0.0,0.0,0.0,0.0,0.0,0.0,0.0,0.0,0.0,0.0,0.0,0.0,0.0,0.0,0.0,0.0,0.0,0.0,0.0,0.0,0.0,0.0,0.0,0.0,0.0,0.0,0.0,0.0,0.0,0.0,0.0,0.0,0.0,0.0,0.0,0.0,0.0,0.0,0.0,0.0,0.0,0.0,0.0,0.0,0.0,0.0,0.0,0.0,0.0,0.0,0.0,0.0,0.0,0.0,0.0,0.0,0.0,0.0,0.0,0.0,0.0,0.0,0.0,0.0,0.0,0.0,0.0,0.0,0.0,0.0,0.0,0.0,0.0,0.0,0.0,0.0,0.0,0.0,0.0,0.0,0.0,0.0,0.0,0.0,0.0,0.0,0.0,0.0,0.0,0.0,0.0,0.0,0.0,0.0,0.0,0.0,0.0,0.0,0.0,0.0,-2.5409,-2.5311,-2.4682,-2.4587,-2.3849,-2.2032,-2.1945,-2.1179,-1.9368,-1.8427,0.0,0.0,0.0,0.0,0.0,0.0,0.0,0.0,0.0,0.0,0.0,0.0,0.0,0.0,0.0,0.0,0.0,0.0,0.0,0.0,0.0,0.0,0.0,0.0,0.0,0.0,0.0,0.0,0.0,0.0,0.0,0.0,0.0,0.0,0.0,0.0,0.0,0.0,0.0,0.0,0.0,0.0,0.0,0.0,0.0,0.0,0.0,0.0,0.0,0.0,0.0,0.0,0.0,0.0,0.0,0.0,0.0,0.0,0.0,0.0,0.0,0.0,0.0,0.0,0.0,0.0,0.0,0.0,0.0,0.0,0.0,0.0,0.0,0.0,0.0,0.0,0.0,0.0,0.0,0.0,0.0,0.0,0.0,0.0,0.0,0.0,0.0,0.0,0.0,0.0,0.0,0.0,0.0,0.0,0.0,0.0,0.0,0.0,0.0,0.0,0.0,0.0,-2.4671,-2.4537,-2.4037,-2.3947,-2.3386,-2.2101,-2.2039,-2.1334,-1.9606,0.0,0.0,0.0,0.0,0.0,0.0,0.0,0.0,0.0,0.0,0.0,0.0,0.0,0.0,0.0,0.0,0.0,0.0,0.0,0.0,0.0,0.0,0.0,0.0,0.0,0.0,0.0,0.0,0.0,0.0,0.0,0.0,0.0,0.0,0.0,0.0,0.0,0.0,0.0,0.0,0.0,0.0,0.0,0.0,0.0,0.0,0.0,0.0,0.0,0.0,0.0,0.0,0.0,0.0,0.0,0.0,0.0,0.0,0.0,0.0,0.0,0.0,0.0,0.0,0.0,0.0,0.0,0.0,0.0,0.0,0.0,0.0,0.0,0.0,0.0,0.0,0.0,0.0,0.0,0.0,0.0,0.0,0.0,0.0,0.0,0.0,0.0,0.0,0.0,0.0,0.0,0.0,0.0,0.0,0.0,0.0,0.0,0.0,0.0,0.0,0.0,0.0,-2.4192,-2.4266,-2.4135,-2.3653,-2.3566,-2.3141,-2.2164,-2.2169,-2.1519,-1.9904,0.0,0.0,0.0,0.0,0.0,0.0,0.0,0.0,0.0,0.0,0.0,0.0,0.0,0.0,0.0,0.0,0.0,0.0,0.0,0.0,0.0,0.0,0.0,0.0,0.0,0.0,0.0,0.0,0.0,0.0,0.0,0.0,0.0,0.0,0.0,0.0,0.0,0.0,0.0,0.0,0.0,0.0,0.0,0.0,0.0,0.0,0.0,0.0,0.0,0.0,0.0,0.0,0.0,0.0,0.0,0.0,0.0,0.0,0.0,0.0,0.0,0.0,0.0,0.0,0.0,0.0,0.0,0.0,0.0,0.0,0.0,0.0,0.0,0.0,0.0,0.0,0.0,0.0,0.0,0.0,0.0,0.0,0.0,0.0,0.0,0.0,0.0,0.0,0.0,0.0,0.0,0.0,0.0,0.0,0.0,0.0,0.0,0.0,0.0,0.0,0.0,0.0,-2.4137,-2.4426,-2.4338,-2.3674,-2.3588,-2.3189,-2.2192,-2.2287,-2.1764,0.0,0.0,0.0,0.0,0.0,0.0,0.0,0.0,0.0,0.0,0.0,0.0,0.0,0.0,0.0,0.0,0.0,0.0,0.0,0.0,0.0,0.0,0.0,0.0,0.0,0.0,0.0,0.0,0.0,0.0,0.0,0.0,0.0,0.0,0.0,0.0,0.0,0.0,0.0,0.0,0.0,0.0,0.0,0.0,0.0,0.0,0.0,0.0,0.0,0.0,0.0,0.0,0.0,0.0,0.0,0.0,0.0,0.0,0.0,0.0,0.0,0.0,0.0,0.0,0.0,0.0,0.0,0.0,0.0,0.0,0.0,0.0,0.0,0.0,0.0,0.0,0.0,0.0,0.0,0.0,0.0,0.0,0.0,0.0,0.0,0.0,0.0,0.0,0.0,0.0,0.0,0.0,0.0,0.0,0.0,0.0,0.0,0.0,0.0,0.0,0.0,0.0,0.0,-2.3506,-2.4059,-2.4284,-2.3777,-2.3692,-2.3387,-2.2651,-2.2525,-2.1953,-2.0749,0.0,0.0,0.0,0.0,0.0,0.0,0.0,0.0,0.0,0.0,0.0,0.0,0.0,0.0,0.0,0.0,0.0,0.0,0.0,0.0,0.0,0.0,0.0,0.0,0.0,0.0,0.0,0.0,0.0,0.0,0.0,0.0,0.0,0.0,0.0,0.0,0.0,0.0,0.0,0.0,0.0,0.0,0.0,0.0,0.0,0.0,0.0,0.0,0.0,0.0,0.0,0.0,0.0,0.0,0.0,0.0,0.0,0.0,0.0,0.0,0.0,0.0,0.0,0.0,0.0,0.0,0.0,0.0,0.0,0.0,0.0,0.0,0.0,0.0,0.0,0.0,0.0,0.0,0.0,0.0,0.0,0.0,0.0,0.0,0.0,0.0,0.0,0.0,0.0,0.0,0.0,0.0,0.0,0.0,0.0,0.0,0.0,0.0,0.0,0.0,0.0,0.0,-2.3225,-2.3929,-2.4284,-2.3837,-2.3756,-2.345,-2.2721,-2.2569,-2.2056,-2.1038,0.0,0.0,0.0,0.0,0.0,0.0,0.0,0.0,0.0,0.0,0.0,0.0,0.0,0.0,0.0,0.0,0.0,0.0,0.0,0.0,0.0,0.0,0.0,0.0,0.0,0.0,0.0,0.0,0.0,0.0,0.0,0.0,0.0,0.0,0.0,0.0,0.0,0.0,0.0,0.0,0.0,0.0,0.0,0.0,0.0,0.0,0.0,0.0,0.0,0.0,0.0,0.0,0.0,0.0,0.0,0.0,0.0,0.0,0.0,0.0,0.0,0.0,0.0,0.0,0.0,0.0,0.0,0.0,0.0,0.0,0.0,0.0,0.0,0.0,0.0,0.0,0.0,0.0,0.0,0.0,0.0,0.0,0.0,0.0,0.0,0.0,0.0,0.0,0.0,0.0,0.0,0.0,0.0,0.0,0.0,0.0,0.0,0.0,0.0,0.0,0.0,0.0,-2.3206,-2.3964,-2.4321,-2.3858,-2.3795,-2.345,-2.2605,-2.2515,-2.213,-2.1197,0.0,0.0,0.0,0.0,0.0,0.0,0.0,0.0,0.0,0.0,0.0,0.0,0.0,0.0,0.0,0.0,0.0,0.0,0.0,0.0,0.0,0.0,0.0,0.0,0.0,0.0,0.0,0.0,0.0,0.0,0.0,0.0,0.0,0.0,0.0,0.0,0.0,0.0,0.0,0.0,0.0,0.0,0.0,0.0,0.0,0.0,0.0,0.0,0.0,0.0,0.0,0.0,0.0,0.0,0.0,0.0,0.0,0.0,0.0,0.0,-2.3107,-2.2931,0.0,0.0,0.0,0.0,0.0,0.0,0.0,0.0,0.0,0.0,0.0,0.0,0.0,0.0,0.0,0.0,0.0,0.0,0.0,0.0,0.0,0.0,0.0,0.0,0.0,0.0,0.0,0.0,0.0,0.0,0.0,0.0,0.0,0.0,0.0,0.0,0.0,0.0,0.0,0.0,-2.3112,-2.3962,-2.4321,-2.3858,-2.3795,-2.3495,-2.2816,-2.2579,-2.2215,-2.1521,-1.9957,0.0,0.0,0.0,0.0,0.0,0.0,0.0,0.0,0.0,0.0,0.0,0.0,0.0,0.0,0.0,0.0,0.0,0.0,0.0,0.0,0.0,0.0,0.0,0.0,0.0,0.0,0.0,0.0,0.0,0.0,0.0,0.0,0.0,0.0,0.0,0.0,0.0,0.0,0.0,0.0,0.0,0.0,0.0,0.0,0.0,0.0,0.0,0.0,0.0,0.0,0.0,0.0,0.0,0.0,0.0,0.0,0.0,0.0,0.0,-2.406,-2.3961,0.0,0.0,0.0,0.0,0.0,0.0,0.0,0.0,0.0,0.0,0.0,0.0,0.0,0.0,0.0,0.0,0.0,0.0,0.0,0.0,0.0,0.0,0.0,0.0,0.0,0.0,0.0,0.0,0.0,0.0,0.0,0.0,0.0,0.0,0.0,0.0,0.0,0.0,0.0,0.0,-2.3196,-2.3977,-2.4321,-2.3878,-2.3816,-2.3495,-2.2738,-2.2569,-2.226,-2.1735,-2.0426,0.0,0.0,0.0,0.0,0.0,0.0,0.0,0.0,0.0,0.0,0.0,0.0,0.0,0.0,0.0,0.0,0.0,0.0,0.0,0.0,0.0,0.0,0.0,0.0,0.0,0.0,0.0,0.0,0.0,0.0,0.0,0.0,0.0,0.0,0.0,0.0,0.0,0.0,0.0,0.0,0.0,0.0,0.0,0.0,0.0,0.0,0.0,0.0,0.0,0.0,0.0,0.0,0.0,-2.762,-2.7498,-2.6034,-2.6786,-2.6558,-2.5552,-2.4898,-2.5027,-2.5615,-2.4743,0.0,0.0,0.0,0.0,0.0,0.0,0.0,0.0,0.0,0.0,0.0,0.0,0.0,0.0,0.0,0.0,0.0,0.0,0.0,0.0,0.0,0.0,0.0,0.0,-2.5149,-2.4425,-2.371,0.0,0.0,0.0,0.0,0.0,0.0,0.0,0.0,0.0,0.0,0.0,-2.3534,-2.4118,-2.4355,-2.3959,-2.3878,-2.3518,-2.2694,-2.2552,-2.2326,-2.1928,-2.0996,-2.0231,0.0,0.0,0.0,0.0,0.0,0.0,0.0,0.0,0.0,0.0,0.0,0.0,0.0,0.0,0.0,0.0,0.0,0.0,0.0,0.0,0.0,0.0,0.0,0.0,0.0,0.0,0.0,0.0,0.0,0.0,0.0,0.0,-2.2534,-2.2052,0.0,0.0,0.0,0.0,0.0,0.0,0.0,0.0,0.0,0.0,0.0,0.0,0.0,-2.6904,-2.7658,-2.7782,-2.8158,-2.8797,-2.9038,-2.862,-2.7687,-2.7865,-2.7045,-2.5518,-2.5464,0.0,-2.5546,-2.4732,0.0,0.0,0.0,0.0,0.0,0.0,0.0,0.0,0.0,0.0,0.0,0.0,0.0,0.0,0.0,0.0,0.0,0.0,0.0,0.0,0.0,0.0,-2.5483,-2.5666,-2.5611,-2.5494,0.0,-2.4179,-2.3295,-2.3985,-2.3412,-2.3051,0.0,0.0,0.0,0.0,0.0,0.0,-2.4496,-2.4601,-2.4426,-2.404,-2.3981,-2.3738,-2.3157,-2.2781,-2.2502,-2.2313,-2.1606,-2.1146,-2.114,-1.9597,0.0,0.0,0.0,0.0,0.0,0.0,0.0,0.0,0.0,0.0,0.0,0.0,0.0,0.0,0.0,0.0,0.0,0.0,0.0,0.0,0.0,0.0,0.0,0.0,0.0,0.0,0.0,0.0,0.0,-2.268,-2.3795,-2.3442,-2.3896,-2.3931,0.0,0.0,0.0,0.0,0.0,0.0,0.0,0.0,0.0,-2.7406,-2.7426,-2.76,-2.7995,-2.8489,-2.8683,-2.8567,-2.907,-2.8586,-2.7271,-2.7331,-2.6679,-2.5503,-2.5579,-2.56,-2.559,-2.5269,-2.5122,-2.5093,0.0,0.0,0.0,0.0,-2.4566,-2.4562,-2.4559,-2.4551,-2.4486,-2.3983,0.0,0.0,0.0,0.0,0.0,0.0,0.0,-2.4473,0.0,0.0,-2.5659,-2.5685,-2.5707,-2.5707,-2.5709,-2.509,-2.4511,-2.4389,-2.4059,-2.3731,-2.3556,-2.3106,0.0,0.0,0.0,-2.3855,-2.47,-2.4723,-2.4497,-2.4098,-2.402,-2.378,-2.3253,-2.2892,-2.2616,-2.2422,-2.1953,-2.1705,-2.1735,-2.0798,-1.9994,0.0,0.0,0.0,0.0,0.0,0.0,0.0,0.0,0.0,0.0,0.0,0.0,0.0,0.0,0.0,0.0,0.0,0.0,0.0,0.0,0.0,0.0,0.0,0.0,0.0,0.0,0.0,0.0,-2.3609,-2.4723,-2.4518,-2.4989,-2.5058,0.0,0.0,0.0,0.0,0.0,0.0,-2.6892,-2.7778,-2.8377,-2.8664,-2.8857,-2.8973,-2.8973,-2.9611,-2.9515,-2.8664,-2.9321,-2.8722,-2.7039,-2.7071,-2.6626,-2.5801,-2.5873,-2.5915,-2.5898,-2.5765,-2.5701,-2.5703,-2.5696,-2.5693,-2.5691,-2.5707,-2.5707,-2.5701,-2.5694,-2.571,-2.5593,-2.4937,-2.4726,-2.4615,-2.3964,0.0,0.0,0.0,0.0,-2.4873,-2.5537,-2.5693,-2.5691,-2.5707,-2.5707,-2.5707,-2.5707,-2.5707,-2.552,0.0,-2.4719,-2.4483,-2.3791,-2.3554,0.0,-2.4226,-2.4148,-2.4246,-2.4796,-2.4808,-2.4613,-2.4248,-2.4135,-2.3901,-2.3468,-2.3116,-2.2841,-2.2582,-2.2275,-2.2084,-2.2044,-2.1735,-2.1278,-2.0692,0.0,0.0,0.0,0.0,0.0,0.0,0.0,0.0,0.0,0.0,0.0,0.0,0.0,0.0,0.0,0.0,0.0,0.0,0.0,0.0,0.0,0.0,0.0,0.0,0.0,0.0,0.0,0.0,0.0,-2.4592,-2.6015,0.0,0.0,0.0,0.0,-2.7508,-2.7676,-2.7787,-2.7836,-2.8714,-2.9611,-3.0443,-3.1217,-3.1623,-3.1623,-3.1661,-3.1275,-3.0462,-3.0501,-2.9611,-2.7937,-2.7937,-2.7464,-2.6633,-2.6722,-2.6747,-2.6689,-2.5989,-2.5699,-2.5703,-2.569,-2.5704,-2.5703,-2.569,-2.5704,-2.5699,-2.5699,-2.5699,-2.5699,-2.564,-2.5629,-2.5639,-2.5579,-2.5564,0.0,0.0,-2.5629,-2.5648,-2.5687,-2.5707,-2.5707,-2.5707,-2.5707,-2.5707,-2.5707,-2.5691,-2.5696,0.0,-2.5581,-2.5528,-2.5485,0.0,-2.5294,-2.5398,-2.5303,-2.5173,-2.5096,-2.4962,-2.479,-2.4512,-2.4356,-2.421,-2.4074,-2.3584,-2.3224,-2.3067,-2.2634,-2.232,-2.2214,-2.2061,-2.179,-2.1458,-2.0757,0.0,0.0,0.0,0.0,0.0,0.0,0.0,0.0,0.0,0.0,0.0,0.0,0.0,0.0,0.0,0.0,0.0,0.0,0.0,0.0,0.0,0.0,0.0,0.0,0.0,0.0,0.0,0.0,-2.5891,-2.7102,0.0,-2.6876,-2.7241,-2.7547,-2.7575,-2.8112,-2.8668,-2.927,-3.0151,-3.1085,-3.205,-3.2359,-3.2276,-3.1787,-3.1797,-3.141,-3.0598,-3.0037,-2.9437,-2.8818,-2.8266,-2.7832,-2.7542,-2.7511,-2.7218,-2.6711,-2.6408,-2.6054,-2.5757,-2.6275,-2.6155,-2.5699,-2.5691,-2.571,-2.5699,-2.5699,-2.5699,-2.5699,-2.5707,-2.5694,-2.5707,-2.5696,-2.5698,-2.5701,-2.5705,-2.5707,-2.5707,-2.5707,-2.5707,-2.5707,-2.5707,-2.5707,-2.5707,-2.5707,-2.5709,-2.5691,-2.5696,-2.5683,-2.5659,-2.56,-2.5561,-2.5523,-2.5507,-2.5388,-2.5243,-2.5126,-2.4975,-2.4804,-2.4528,-2.4393,-2.4247,-2.4113,-2.3685,-2.3399,-2.3348,-2.3025,-2.2738,-2.2525,-2.2436,-2.2243,-2.1961,-2.1603,-2.029,0.0,0.0,0.0,0.0,0.0,0.0,0.0,0.0,0.0,0.0,0.0,0.0,0.0,0.0,0.0,0.0,0.0,0.0,0.0,0.0,0.0,0.0,0.0,0.0,0.0,-2.5768,-2.6974,-2.672,-2.7922,-2.8464,-2.7674,-2.7997,-2.8282,-2.8313,-2.9121,-2.9886,-3.0513,-3.1645,-3.2575,-3.325,-3.357,-3.3327,-3.2551,-3.2295,-3.1736,-3.0893,-3.0105,-2.9563,-2.9207,-2.8674,-2.8403,-2.8376,-2.8348,-2.801,-2.7537,-2.7788,-2.7303,-2.644,-2.6407,-2.6076,-2.5609,-2.5609,-2.5609,-2.5609,-2.5609,-2.5609,-2.559,-2.5605,-2.5595,-2.5604,-2.5655,-2.5662,-2.5665,-2.5681,-2.5705,-2.5707,-2.5707,-2.5707,-2.5707,-2.5707,-2.5707,-2.5707,-2.5707,-2.5707,-2.5707,-2.5691,-2.568,-2.5644,-2.5612,-2.5586,-2.5542,-2.5503,-2.5423,-2.5293,-2.5107,-2.5012,-2.4855,-2.4594,-2.4462,-2.4321,-2.419,-2.3894,-2.3642,-2.3504,-2.3324,-2.3109,-2.285,-2.2721,-2.2535,-2.2377,-2.1686,-2.0602,-1.9085,0.0,0.0,0.0,0.0,0.0,0.0,0.0,0.0,0.0,0.0,0.0,0.0,0.0,0.0,0.0,0.0,0.0,0.0,0.0,0.0,0.0,0.0,0.0,-2.4189,-2.6287,-2.7585,-2.7026,-2.8463,-2.9213,-2.85,-2.9265,-2.9823,-2.9888,-3.0833,-3.139,-3.1428,-3.3062,-3.4002,-3.4021,-3.486,-3.4879,-3.4016,-3.3269,-3.2436,-3.1487,-3.0874,-3.0085,-2.9135,-2.9265,-2.9255,-2.9135,-2.9206,-2.9177,-2.9162,-3.0007,-2.9381,-2.7719,-2.6122,-2.5464,-2.5445,-2.5406,-2.5387,-2.5387,-2.5387,-2.5387,-2.5395,-2.5398,-2.5391,-2.5418,-2.554,-2.5586,-2.5619,-2.5668,-2.5701,-2.5705,-2.5705,-2.5707,-2.5707,-2.5707,-2.5707,-2.5707,-2.5707,-2.5707,-2.5707,-2.5707,-2.5642,-2.5602,-2.5601,-2.555,-2.5504,-2.549,-2.5499,0.0,-2.5149,-2.5096,-2.4987,-2.4734,-2.4578,-2.4444,-2.4321,-2.419,-2.3935,-2.3549,-2.3526,-2.3394,-2.3116,-2.2876,-2.2712,-2.2712,-2.0969,-2.0018,-1.9924,0.0,0.0,0.0,0.0,0.0,0.0,0.0,0.0,0.0,0.0,0.0,0.0,0.0,0.0,0.0,0.0,0.0,0.0,0.0,0.0,0.0,-2.4193,-2.5162,-2.535,-2.6579,-2.7651,-2.8219,-2.8886,-2.926,-2.9213,-2.9568,-2.9808,-2.9842,-3.072,-3.1509,-3.2098,-3.3177,-3.4101,-3.4792,-3.504,-3.4767,-3.4016,-3.3221,-3.2377,-3.1487,-3.0746,-3.0239,-2.9965,-3.0009,-2.999,-2.9965,-2.9883,-2.9506,-2.897,-2.9155,-2.8619,-2.7654,-2.7383,-2.6904,-2.6276,-2.5619,-2.5387,-2.5387,-2.5387,-2.5387,-2.5395,-2.5403,-2.5395,-2.5403,-2.5434,-2.5447,-2.548,-2.554,-2.558,-2.5629,-2.5636,-2.5654,-2.5707,-2.5707,-2.5707,-2.5707,-2.5707,-2.5707,-2.5707,-2.5707,-2.5693,-2.5662,-2.5602,-2.5581,-2.5554,-2.551,-2.5498,0.0,-2.5264,-2.516,-2.5024,-2.4861,-2.4639,-2.4478,-2.4444,-2.4229,-2.4054,-2.3935,-2.3792,-2.3602,-2.3394,-2.3324,-2.3182,-2.2985,-2.1746,-2.0814,0.0,0.0,0.0,0.0,0.0,0.0,0.0,0.0,0.0,0.0,0.0,0.0,0.0,0.0,0.0,0.0,0.0,0.0,0.0,0.0,0.0,0.0,-2.5313,-2.6258,-2.63,-2.7158,-2.8044,-2.8718,-2.8938,-2.9123,-2.9353,-2.9474,-2.9608,-2.979,-3.0956,-3.1879,-3.2368,-3.3543,-3.4452,-3.4999,-3.5018,-3.4805,-3.4377,-3.3276,-3.2435,-3.1859,-3.0814,-3.0266,-3.0226,-3.0266,-3.0266,-3.0213,-3.0138,-2.9808,-2.9351,-2.936,-2.9055,0.0,0.0,0.0,0.0,0.0,-2.5322,-2.5322,-2.5322,-2.5322,-2.5322,-2.5322,-2.5322,-2.5331,-2.5346,-2.5371,-2.5376,-2.5446,-2.5517,-2.5556,-2.5561,-2.5601,-2.5648,-2.5616,-2.5651,-2.5685,-2.5654,-2.5681,-2.5707,-2.5707,-2.5707,0.0,-2.5642,-2.5623,-2.5598,-2.5547,-2.5531,-2.5449,-2.5322,-2.5233,-2.5115,-2.4929,-2.476,-2.4623,-2.4512,-2.4356,0.0,0.0,0.0,-2.3792,-2.3526,-2.3504,0.0,0.0,0.0,0.0,0.0,0.0,0.0,0.0,-2.0328,-2.0389,0.0,0.0,0.0,0.0,0.0,0.0,0.0,0.0,0.0,0.0,0.0,0.0,0.0,0.0,0.0,0.0,-2.625,-2.7014,-2.7121,-2.7887,-2.8543,-2.8725,-2.8767,-2.8868,-2.9144,-2.9188,-2.9392,-2.9868,-3.1393,-3.2373,-3.2521,-3.4036,0.0,0.0,0.0,-3.4908,-3.4908,-3.3346,-3.2509,-3.2387,-3.0939,-3.018,-3.0079,-3.0194,-3.018,-3.0079,-3.0079,-3.0049,-2.9988,-3.0053,-2.9969,-2.9599,-2.7402,-2.6421,-2.6173,-2.5459,-2.5191,-2.5191,-2.5191,0.0,0.0,-2.5191,-2.5191,-2.5214,-2.5262,-2.5293,-2.5293,-2.536,-2.5432,-2.5486,-2.5486,-2.5546,-2.5561,-2.5515,-2.5593,-2.5654,-2.5601,-2.5645,-2.5683,-2.5683,-2.5685,-2.5707,-2.5707,-2.5643,-2.5598,-2.5593,-2.5542,-2.548,-2.534,-2.5303,-2.5203,-2.4962,0.0,0.0,-2.4578,-2.4528,-2.4392,-2.4171,-2.4113,-2.3935,-2.3594,-2.3549,-2.3417,-2.3188,-2.3157,-2.3157,-2.3157,-2.3116,-2.3157,-2.3253,-2.134,-2.0982,0.0,0.0,0.0,0.0,0.0,0.0,0.0,0.0,0.0,0.0,0.0,0.0,0.0,0.0,0.0,-2.5843,-2.6465,-2.7103,-2.7861,-2.8147,-2.8327,-2.8518,-2.8543,-2.8718,-2.9089,-2.9163,-2.9572,-3.0466,-3.1638,-3.26,-3.3242,-3.4321,-3.4908,-3.4908,-3.4908,-3.4908,-3.4908,-3.3258,-3.2424,-3.2387,0.0,0.0,-2.9937,-2.9972,-2.9953,-2.9937,-2.9937,-2.9921,-2.9905,-2.9988,-2.9239,-2.8046,-2.7618,-2.6587,-2.5335,-2.5237,-2.5191,-2.5191,-2.5191,-2.5191,-2.5191,-2.5191,-2.5191,-2.5191,-2.5214,-2.5225,0.0,-2.5252,-2.5293,-2.5346,-2.5418,-2.5466,-2.5523,-2.5504,-2.5521,-2.5532,-2.5521,-2.5561,-2.5613,-2.5613,-2.5654,-2.5707,-2.5707,-2.5643,-2.5602,-2.5598,-2.5598,-2.556,-2.5471,-2.5363,-2.5274,-2.5235,-2.5041,-2.4877,-2.4832,-2.4623,-2.4478,-2.4426,-2.421,-2.4074,-2.3994,-2.3834,-2.371,-2.3667,-2.3508,-2.3417,-2.3417,-2.3206,-2.3157,-2.3289,-2.2876,-2.2799,0.0,0.0,0.0,0.0,0.0,0.0,0.0,0.0,0.0,0.0,0.0,-2.3041,-2.3671,0.0,-2.5394,-2.6094,-2.6727,-2.7296,-2.7759,-2.8035,-2.8237,-2.8327,-2.8353,-2.8484,-2.8767,-2.8821,-2.9274,-3.0313,-3.139,-3.24,-3.3289,-3.4298,-3.4869,-3.4908,-3.4908,-3.4718,-3.4301,-3.3051,-3.2198,-3.1781,-3.0495,-2.9888,-2.9888,-2.9888,-2.9888,-2.9888,-2.9888,-2.9888,-2.9886,-2.9535,-2.8673,-2.7509,-2.7146,-2.6219,-2.5113,-2.518,-2.5191,-2.5191,-2.5191,-2.5191,-2.5191,-2.5191,-2.5191,-2.5191,-2.5191,-2.5191,-2.5191,-2.5203,-2.522,-2.5264,-2.5293,-2.5357,-2.5383,-2.5371,-2.5432,-2.548,-2.5466,-2.5498,-2.5552,-2.5598,-2.5636,-2.5654,-2.5685,-2.5676,-2.5644,-2.5619,-2.5595,-2.5593,-2.5554,-2.5466,-2.5379,-2.5301,-2.5177,-2.5057,-2.4975,-2.4741,-2.4591,-2.4543,-2.4355,-2.4247,-2.4209,-2.4096,-2.4018,-2.3937,-2.3852,-2.375,-2.3664,-2.3513,-2.3491,-2.3553,-2.3553,-2.3458,0.0,0.0,0.0,0.0,0.0,0.0,0.0,-2.0478,-2.1423,-2.2132,-2.3176,-2.4045,-2.4421,-2.5243,-2.5916,-2.6145,-2.699,-2.7548,-2.7422,-2.7783,-2.8081,-2.8099,-2.8154,-2.8291,-2.8466,-2.8492,-2.8946,-2.9984,-3.0904,-3.1834,-3.2791,-3.3717,-3.4275,-3.4488,-3.4356,-3.4074,-3.3563,-3.2543,-3.1712,-3.1051,-3.0184,-2.9769,-2.9769,-2.9769,-2.9769,-2.9769,-2.9635,-2.9559,-2.9483,-2.8739,-2.7922,-2.7089,-2.6437,-2.5687,-2.5006,-2.5132,-2.5168,-2.518,-2.5156,-2.5168,-2.5191,-2.5137,-2.5168,-2.5191,-2.5191,-2.5191,-2.5191,-2.5191,-2.5203,-2.5206,-2.5187,-2.5234,-2.5274,-2.5214,-2.532,-2.5437,-2.5365,-2.541,-2.5473,-2.5542,-2.558,-2.5598,-2.5648,-2.5654,-2.5646,-2.5625,-2.5619,-2.562,-2.5598,-2.5546,-2.5479,-2.5376,-2.5335,-2.5226,-2.503,-2.485,-2.4727,-2.4651,-2.4524,-2.4425,-2.4375,-2.4339,-2.4266,-2.4133,-2.4133,-2.4056,-2.3899,-2.3899,-2.3899,-2.3899,-2.3899,-2.3707,-1.7873,-1.8593,-1.9192,-1.9286,-1.9435,-1.9662,0.0,-2.0848,-2.1763,-2.1843,-2.324,-2.4421,-2.4466,-2.5928,-2.6895,-2.6312,-2.7182,-2.774,-2.7135,-2.7361,-2.7619,-2.776,-2.8025,-2.8291,-2.8466,-2.8492,-2.892,-2.9929,-3.0228,-3.0728,-3.1568,-3.1862,-3.2385,-3.3087,-3.249,-3.2456,-3.3067,-3.1502,-3.0663,-3.057,-2.9748,-2.9375,-2.9375,-2.9375,-2.9375,-2.9338,-2.8612,-2.8296,-2.824,-2.7438,-2.6617,-2.5889,-2.5811,-2.5269,-2.461,-2.4972,-2.5107,-2.5101,-2.4966,-2.5051,-2.5168,-2.4987,-2.5057,-2.5191,-2.5191,-2.5191,-2.5191,-2.5191,-2.5191,-2.5203,-2.5206,-2.5209,-2.522,-2.5212,-2.5214,-2.5234,-2.5214,-2.5283,-2.5343,-2.5406,-2.5473,-2.5517,-2.5521,-2.5521,-2.5554,-2.5663,-2.5683,-2.5662,-2.5607,-2.5597,-2.5585,-2.5571,-2.5466,-2.5283,-2.503,-2.4981,-2.493,-2.4874,-2.4741,-2.4636,-2.4575,-2.4441,-2.4355,-2.4266,-2.4284,-2.4266,-2.4247,-2.4247,-2.4247,-2.4247,-2.4247,-2.4036,-1.7666,-1.8173,-1.8553,-1.8822,-1.9161,-1.9457,-1.9603,-2.0533,-2.1476,-2.1937,-2.318,-2.4319,-2.4681,-2.594,-2.6847,-2.6536,-2.7161,-2.7602,-2.7316,-2.7326,-2.7334,-2.7382,-2.7701,-2.8007,-2.83,-2.8345,-2.8676,-2.9575,-2.9823,-3.0305,-3.1166,-3.1421,-3.1713,-3.2117,-3.1871,-3.1652,-3.15,-3.0838,-3.0262,-2.9797,-2.9442,-2.9293,-2.9293,-2.9293,-2.9054,-2.8552,-2.7753,-2.74,-2.7344,-2.6526,-2.5986,-2.5633,-2.5148,-2.474,-2.4476,-2.4685,-2.476,-2.4741,-2.4682,-2.4712,-2.4771,-2.4693,-2.4741,-2.4851,-2.4851,-2.4865,-2.4912,-2.4912,-2.4912,-2.4912,-2.4907,-2.4907,-2.4907,-2.4902,-2.5013,-2.5063,-2.4936,-2.5077,-2.5245,-2.5236,-2.5318,-2.5398,-2.5499,-2.5511,-2.5521,-2.559,-2.5627,-2.5643,-2.5662,-2.5629,-2.5603,-2.5598,-2.5499,-2.5401,-2.5303,-2.5264,-2.5203,-2.5138,-2.5043,-2.4942,-2.478,-2.4682,-2.4559,-2.4409,-2.4428,-2.4393,-2.4284,-2.4284,-2.4284,-2.4284,-2.4284,-2.421,-1.7352,-1.7625,-1.7747,-1.8135,-1.8567,-1.8936,-1.9109,-2.0057,-2.1068,-2.1652,-2.2869,-2.3957,-2.4367,-2.5576,-2.6446,-2.6253,-2.6814,-2.7254,-2.7075,-2.7029,-2.7089,-2.7345,-2.7664,-2.7957,-2.8211,-2.8223,-2.8431,-2.903,-2.9197,-2.9593,-3.026,-3.0462,-3.0686,-3.1005,-3.087,-3.0581,-3.0171,-3.0037,-2.9654,-2.9079,-2.9101,-2.9101,-2.9101,-2.8879,-2.8458,-2.7848,-2.6816,-2.6372,-2.6317,-2.5504,-2.5171,-2.5097,-2.4487,-2.4229,-2.4247,-2.4301,-2.4388,-2.4491,-2.4441,-2.4456,-2.4489,-2.4458,-2.4508,-2.4591,-2.4588,-2.4623,-2.4692,-2.4673,-2.4707,-2.4707,-2.4707,-2.4707,-2.4707,-2.4707,-2.4813,-2.4884,-2.4731,-2.4883,-2.5049,-2.4991,-2.5072,-2.5168,-2.529,-2.5343,-2.5368,-2.5386,-2.5454,-2.5545,-2.5657,-2.5644,-2.5627,-2.5605,-2.556,-2.5518,-2.5503,-2.5456,-2.5395,-2.5332,-2.5283,-2.519,-2.5018,-2.4942,-2.4804,-2.4604,-2.4591,-2.4528,-2.441,-2.441,-2.441,-2.441,-2.441,-2.441,-1.7028,-1.7256,-1.7353,-1.7503,-1.7908,-1.8344,-1.85,-1.9666,-2.073,-2.076,-2.2125,-2.3335,-2.3365,-2.4829,-2.5781,-2.5084,-2.6011,-2.6618,-2.6028,-2.6279,-2.6809,-2.7689,-2.8066,-2.8282,-2.8299,-2.8247,-2.82,-2.8217,-2.8245,-2.8263,-2.8281,-2.8344,-2.8739,-2.9556,-2.8892,-2.8864,-2.9611,-2.8925,-2.8554,-2.8518,-2.8587,-2.8612,-2.8576,-2.7822,-2.7459,-2.7332,-2.5756,-2.5049,-2.4994,-2.4179,-2.3852,-2.3852,-2.3816,-2.3816,-2.3816,-2.3816,-2.4098,-2.4478,-2.4284,-2.4337,-2.4472,-2.4338,-2.4391,-2.4505,-2.4572,-2.4607,-2.4607,-2.4673,-2.4707,-2.4707,-2.4707,-2.4707,-2.4707,-2.4707,-2.4707,-2.4707,-2.4707,-2.4707,-2.4719,-2.4712,-2.4727,-2.4741,-2.4799,-2.4942,-2.5049,-2.5105,-2.5226,-2.5379,-2.557,-2.5654,-2.5679,-2.5609,-2.5598,-2.5561,-2.551,-2.5495,-2.5472,-2.5395,-2.5406,-2.536,-2.5284,-2.522,-2.508,-2.4885,-2.4832,-2.4768,-2.4692,-2.4692,-2.4692,-2.4692,-2.4692,-2.4692,-1.6497,-1.6765,-1.6837,-1.7227,-1.7557,-1.7787,-1.7828,-1.8562,-1.9339,-1.9757,-2.0768,-2.1819,-2.2657,-2.3979,-2.5119,-2.5746,-2.6088,-2.6407,-2.6647,-2.6825,-2.7002,-2.7288,-2.814,-2.8694,-2.8694,-2.8435,-2.8062,-2.7557,-2.773,-2.7864,-2.7864,-2.8109,-2.8362,-2.8629,-2.8443,-2.8452,-2.8748,-2.855,-2.8432,-2.8432,-2.7918,-2.7698,-2.7687,-2.641,-2.5819,-2.5751,-2.4664,-2.4194,-2.4176,-2.3904,-2.3795,-2.3795,-2.3664,-2.3598,-2.3576,-2.3399,-2.345,-2.361,-2.384,-2.3981,-2.4022,-2.3979,-2.4039,-2.4098,-2.4117,-2.4173,-2.421,-2.4229,-2.4248,-2.4248,-2.4303,-2.4303,-2.4321,-2.4358,-2.4426,-2.4495,-2.4375,-2.4547,-2.4657,-2.4524,-2.4607,-2.4719,-2.4746,-2.4771,-2.4877,-2.5083,-2.5243,-2.5408,-2.551,-2.5545,-2.558,-2.5605,-2.5595,-2.558,-2.5561,-2.5576,-2.5554,-2.5538,-2.5495,-2.5429,-2.5367,-2.5293,-2.5212,-2.5096,-2.508,-2.5024,-2.4968,-2.4968,-2.4975,-2.4981,-2.4981,-2.4981,-1.5555,-1.5888,-1.6151,-1.6454,-1.6921,-1.7338,-1.7338,-1.7787,-1.8377,-1.8726,-1.9566,-2.0558,-2.163,-2.2896,-2.4166,-2.5497,-2.5765,-2.6057,-2.6722,-2.686,-2.7073,-2.7548,-2.8306,-2.886,-2.9068,-2.8837,-2.8408,-2.7646,-2.7799,-2.7801,-2.7539,-2.7719,-2.7836,-2.7836,-2.7876,-2.7904,-2.7904,-2.7989,-2.7903,-2.7646,-2.7397,-2.7014,-2.6522,-2.5515,-2.4915,-2.4628,-2.384,-2.3518,-2.354,-2.354,-2.354,-2.3535,-2.3417,-2.3348,-2.3324,-2.3164,-2.3091,-2.314,-2.3445,-2.354,-2.354,-2.354,-2.358,-2.3606,-2.3628,-2.3631,-2.3692,-2.3714,-2.3714,-2.3753,-2.3896,-2.3837,-2.3816,-2.3937,-2.4001,-2.3984,-2.3899,-2.4079,-2.4229,-2.4174,-2.4284,-2.4408,-2.451,-2.4556,-2.4678,-2.4924,-2.5064,-2.5234,-2.5467,-2.5493,-2.5525,-2.5588,-2.5604,-2.5598,-2.5606,-2.5603,-2.5605,-2.5595,-2.5565,-2.5523,-2.546,-2.5422,-2.5346,-2.5263,-2.5254,-2.5192,-2.5091,-2.5091,-2.5099,-2.5096,-2.5096,-2.5096,-1.4269,-1.4755,-1.5266,-1.5266,-1.6083,-1.6909,-1.6951,-1.738,-1.7747,-1.7747,-1.8617,-1.9543,-2.0217,-2.1551,-2.2954,-2.4358,-2.5013,-2.5577,-2.6226,-2.6452,-2.7039,-2.8286,-2.8501,-2.8731,-2.9345,-2.9426,-2.9125,-2.8407,-2.8302,-2.7991,-2.7284,-2.7198,-2.7213,-2.7213,-2.7213,-2.7213,-2.7213,-2.7241,-2.7,-2.6359,-2.6991,-2.6521,-2.5177,-2.5052,-2.4644,-2.3972,-2.3237,-2.2982,-2.3091,-2.3091,-2.3091,-2.3091,-2.3067,-2.3084,-2.3084,-2.3042,-2.306,-2.306,-2.306,-2.3084,-2.3091,-2.3091,-2.3091,-2.3091,-2.3087,-2.3093,-2.3117,-2.3183,-2.3189,-2.3236,-2.3522,-2.3392,-2.3259,-2.3522,-2.3437,-2.3282,-2.3282,-2.3346,-2.3477,-2.3714,-2.3774,-2.3876,-2.4132,-2.4284,-2.4424,-2.4642,-2.4692,-2.4877,-2.5418,-2.548,-2.5498,-2.5579,-2.5586,-2.558,-2.5597,-2.5595,-2.5586,-2.5593,-2.5598,-2.5601,-2.5609,-2.5532,-2.5477,-2.5414,-2.5343,-2.5245,-2.5135,-2.5135,-2.5113,-2.5118,-2.5118,-2.5118,-1.4201,-1.4433,-1.4674,-1.5051,-1.5445,-1.5832,-1.6293,-1.6837,-1.7256,-1.731,-1.78,-1.8536,-1.9604,-2.0442,-2.1656,-2.386,-2.4543,-2.5198,-2.6296,-2.6887,-2.7286,-2.7654,-2.8231,-2.8835,-2.9371,-2.9502,-2.9401,-2.9054,-2.8342,-2.7827,-2.764,-2.7362,-2.7213,-2.7213,-2.7213,-2.7213,-2.7213,-2.7213,-2.7141,-2.6964,-2.6014,-2.5369,-2.5004,-2.3858,-2.3259,-2.3127,-2.291,-2.2848,-2.289,-2.289,-2.2915,-2.294,-2.279,-2.2756,-2.2773,-2.2579,-2.2497,-2.2497,-2.2497,-2.2773,-2.3091,-2.3091,-2.3091,-2.3091,-2.3116,-2.3098,-2.3098,-2.3122,-2.314,-2.3146,-2.3206,-2.3165,-2.3165,-2.3259,-2.3259,-2.323,-2.323,-2.3236,-2.33,-2.3392,-2.3459,-2.3522,-2.3588,-2.3762,-2.3966,-2.4211,-2.4334,-2.4572,-2.5072,-2.5137,-2.5186,-2.5355,-2.5414,-2.5454,-2.5453,-2.5456,-2.5471,-2.5526,-2.5566,-2.5604,-2.5602,-2.5586,-2.557,-2.5548,-2.5531,-2.5511,-2.5464,-2.5464,-2.5451,-2.5406,-2.5406,-2.5406,-1.361,-1.3847,-1.4071,-1.4362,-1.4858,-1.54,-1.5768,-1.6293,-1.6765,-1.6863,-1.7424,-1.8089,-1.8816,-1.994,-2.14,-2.3378,-2.4293,-2.521,-2.6444,-2.6942,-2.724,-2.7514,-2.7946,-2.848,-2.9042,-2.918,-2.909,-2.8721,-2.8279,-2.7928,-2.7609,-2.7045,-2.6775,-2.6775,-2.6775,-2.6775,-2.6775,-2.6775,-2.6605,-2.6266,-2.5387,-2.4655,-2.4066,-2.317,-2.2664,-2.2422,-2.2422,-2.2422,-2.2449,-2.2449,-2.2664,-2.2939,-2.2511,-2.2457,-2.2613,-2.2195,-2.1915,-2.1764,-2.184,-2.2056,-2.2368,-2.2634,-2.2747,-2.2747,-2.2747,-2.2747,-2.2747,-2.2747,-2.2747,-2.2782,-2.29,-2.2849,-2.2798,-2.2933,-2.2925,-2.2849,-2.2849,-2.2875,-2.295,-2.3122,-2.3294,-2.3392,-2.3392,-2.3486,-2.3617,-2.378,-2.385,-2.4026,-2.4383,-2.4705,-2.4972,-2.5069,-2.512,-2.5172,-2.5299,-2.5305,-2.5351,-2.5447,-2.5512,-2.5562,-2.5554,-2.5562,-2.5566,-2.5605,-2.5602,-2.5595,-2.5595,-2.5593,-2.5574,-2.5547,-2.5542,-2.5546,-1.2881,-1.321,-1.3525,-1.3563,-1.4351,-1.5119,-1.5254,-1.58,-1.6306,-1.638,-1.7148,-1.7852,-1.8057,-1.9659,-2.1415,-2.2846,-2.3971,-2.5113,-2.65,-2.6674,-2.6907,-2.75,-2.76,-2.7834,-2.8496,-2.8543,-2.8342,-2.7884,-2.8036,-2.7871,-2.7147,-2.6438,-2.6023,-2.6023,-2.6023,-2.6023,-2.6023,-2.6079,-2.5716,-2.4956,-2.4891,-2.4133,-2.2748,-2.265,-2.2285,-2.1735,-2.1735,-2.1794,-2.1836,-2.1836,-2.2219,-2.2734,-2.2086,-2.2085,-2.2328,-2.1817,-2.1401,-2.1102,-2.1229,-2.126,-2.137,-2.1991,-2.218,-2.218,-2.218,-2.218,-2.218,-2.218,-2.218,-2.2237,-2.2453,-2.2332,-2.2237,-2.2453,-2.2371,-2.2248,-2.2248,-2.2304,-2.2426,-2.273,-2.2982,-2.3165,-2.3189,-2.3212,-2.3253,-2.33,-2.3323,-2.3437,-2.362,-2.4263,-2.47,-2.4739,-2.4765,-2.4877,-2.5111,-2.513,-2.52,-2.5335,-2.5421,-2.5466,-2.5479,-2.5507,-2.5531,-2.5598,-2.5598,-2.5586,-2.5597,-2.5593,-2.5605,-2.5593,-2.5587,-2.558,-1.2715,-1.2978,-1.3113,-1.3478,-1.3752,-1.4025,-1.456,-1.5152,-1.5611,-1.5732,-1.63,-1.7024,-1.8017,-1.8832,-2.0053,-2.2179,-2.3105,-2.4097,-2.5833,-2.6056,-2.6272,-2.6855,-2.6974,-2.7152,-2.7665,-2.7799,-2.7804,-2.7596,-2.7162,-2.6699,-2.6238,-2.5536,-2.5114,-2.5114,-2.5114,-2.5114,-2.5114,-2.5443,-2.5125,-2.41,-2.3883,-2.3155,-2.1979,-2.1421,-2.1102,-2.0974,-2.0974,0.0,-2.1007,-2.1007,-2.1135,-2.1279,-2.1135,-2.1183,-2.1263,-2.1151,-2.1071,-2.1023,-2.1023,-2.1055,-2.1103,-2.1401,-2.1462,-2.1462,-2.1462,-2.1462,-2.1462,-2.1462,-2.1462,-2.1493,-2.1538,-2.1524,-2.1493,-2.1538,-2.1524,-2.1493,-2.1493,-2.1524,-2.1601,-2.1675,-2.1761,-2.1861,-2.2068,-2.222,-2.2449,-2.2772,-2.3,-2.3212,-2.3414,-2.3905,-2.4264,-2.4379,-2.4598,-2.4741,-2.479,-2.479,-2.4866,-2.505,-2.5137,-2.5235,-2.541,-2.5473,-2.551,-2.5512,-2.5522,-2.5546,-2.5593,-2.5593,-2.5576,-2.5523,-2.5523,-2.5527,-1.2372,-1.2686,-1.2978,-1.3152,-1.343,-1.3705,-1.405,-1.4606,-1.5152,-1.5543,-1.6094,-1.67,-1.723,-1.848,-1.9803,-2.0906,-2.2038,-2.3223,-2.4722,-2.4956,-2.5064,-2.5334,-2.5966,-2.6289,-2.6228,-2.6505,-2.6589,-2.6206,-2.5636,-2.5463,-2.5764,-2.512,-2.4744,-2.4744,-2.4422,-2.4217,-2.4217,-2.4084,-2.3771,-2.3307,-2.2805,-2.233,-2.1824,-2.111,-2.0794,-2.081,-2.1124,-2.1077,-2.081,-2.1124,-2.13,-2.132,-2.0971,-2.0984,-2.1101,-2.0807,-2.0563,-2.0395,-2.0462,-2.0462,-2.0462,-2.0364,-2.0698,-2.1134,-2.1134,-2.1134,-2.1134,-2.1134,-2.1134,-2.1166,-2.1181,-2.1213,-2.1213,-2.126,-2.1166,-2.1039,-2.1039,-2.107,-2.1102,-2.0959,-2.1244,-2.1477,-2.1413,-2.1612,-2.1849,-2.2062,-2.2275,-2.2456,-2.2538,-2.2954,-2.3383,-2.379,-2.3947,-2.4062,-2.4173,-2.4173,-2.4296,-2.4618,-2.47,-2.4835,-2.508,-2.5146,-2.5197,-2.5243,-2.5243,-2.5277,-2.5348,-2.5376,-2.5369,-2.5357,-2.5453,-2.5499,-1.1819,-1.2323,-1.2735,-1.2735,-1.3104,-1.3478,-1.36,-1.4061,-1.4652,-1.5141,-1.5796,-1.6272,-1.6485,-1.8025,-1.9403,-1.9794,-2.103,-2.2427,-2.373,-2.3905,-2.4,-2.4245,-2.5025,-2.5324,-2.4861,-2.5071,-2.5049,-2.4465,-2.3879,-2.3997,-2.5053,-2.4616,-2.4277,-2.4122,-2.3621,-2.325,-2.3111,-2.2698,-2.2393,-2.2269,-2.178,-2.1487,-2.1358,-2.0795,-2.0561,-2.0577,-2.1058,-2.098,-2.0592,-2.0938,-2.114,-2.1128,-2.0512,-2.0426,-2.0606,-2.0162,-1.9803,-1.953,-1.9654,-1.969,-1.9617,-1.9295,-1.9864,-2.0616,-2.0534,-2.0501,-2.0501,-2.0501,-2.0501,-2.0534,-2.0585,-2.0585,-2.0618,-2.0732,-2.0601,-2.0434,-2.0434,-2.0518,-2.0518,-2.0302,-2.0699,-2.0975,-2.0766,-2.0991,-2.1197,-2.1244,-2.1399,-2.1538,-2.1538,-2.1816,-2.2245,-2.2778,-2.3147,-2.3397,-2.3556,-2.3599,-2.379,-2.4136,-2.4225,-2.4379,-2.467,-2.4718,-2.4785,-2.486,-2.486,-2.4903,-2.4949,-2.5013,-2.5072,-2.5082,-2.529,-2.5362,-1.1099,-1.1719,-1.2175,-1.2175,-1.2578,-1.2978,-1.2968,-1.3467,-1.392,-1.4107,-1.4605,-1.5372,-1.638,-1.7229,-1.8179,-1.956,-2.0408,-2.1409,-2.307,-2.3283,-2.3705,-2.4815,-2.4504,-2.4232,-2.4177,-2.3793,-2.3269,-2.2588,-2.1986,-2.2212,-2.3437,-2.3466,-2.3125,-2.2532,-2.2443,-2.2147,-2.1594,-2.1901,-2.1568,-2.0614,-2.0909,-2.0576,-1.9649,-1.9713,-1.972,-1.972,-1.9822,-1.9843,0.0,-1.9339,-1.9153,-1.9116,-1.8693,-1.8567,-1.857,-1.863,-1.8655,-1.8616,-1.8616,-1.8655,-1.8616,-1.8577,-1.902,-1.9464,-1.9029,-1.8902,-1.8902,-1.8902,-1.8902,-1.8902,-1.8902,-1.8939,-1.8939,-1.8939,-1.908,-1.9273,-1.9273,-1.9384,-1.9545,-1.9508,-1.9545,-1.9654,-1.9767,-2.0004,-2.02,-2.0369,-2.0571,-2.0718,-2.0718,-2.075,-2.0847,-2.1006,-2.2275,-2.3141,-2.3165,-2.3305,-2.353,-2.3746,-2.3767,-2.3911,-2.4243,-2.4261,-2.4329,-2.446,-2.446,-2.4454,-2.446,-2.4531,-2.4595,-2.4667,-2.486,-2.4967,-1.0474,-1.1091,-1.166,-1.2026,-1.2274,-1.248,-1.2832,-1.3162,-1.3549,-1.4136,-1.4575,-1.5159,-1.6187,-1.6904,-1.7698,-1.8615,-1.9254,-2.0159,-2.1508,-2.1677,-2.1876,-2.2369,-2.2814,-2.2964,-2.2631,-2.2677,-2.2423,-2.1811,-2.1553,-2.1609,-2.2128,-2.2175,-2.1907,-2.1316,-2.0864,-2.0415,-1.9837,-1.9603,-1.929,-1.8959,-1.9112,-1.8969,-1.864,-1.8679,-1.8717,-1.8731,-1.9141,-1.9122,0.0,-1.8931,-1.8782,-1.8419,-1.8238,-1.8198,-1.8198,-1.8238,-1.8291,-1.8383,-1.8383,-1.8422,-1.8461,-1.8187,-1.8252,-1.8447,-1.8563,-1.8563,-1.8563,-1.8563,-1.8563,-1.8602,-1.8612,-1.865,-1.8688,-1.8688,-1.8679,-1.863,-1.863,-1.8525,-1.8394,-1.8198,-1.8341,-1.8574,-1.8688,-1.8812,-1.8985,-1.928,-1.9258,-1.9301,-1.9596,-1.9723,-1.9897,-2.0234,-2.1299,-2.2035,-2.2124,-2.2388,-2.2652,-2.2912,-2.2961,-2.3094,-2.336,-2.3404,-2.3469,-2.3554,-2.3575,-2.3676,-2.3912,-2.3988,-2.4137,-2.4369,-2.4414,-2.4507,-0.9917,-1.0423,-1.104,-1.1669,-1.1977,-1.2262,-1.2938,-1.3067,-1.3273,-1.4205,-1.4416,-1.4768,-1.5734,-1.6476,-1.7126,-1.7634,-1.8195,-1.8941,-1.9916,-2.0219,-2.0432,-2.0605,-2.1339,-2.1757,-2.1381,-2.147,-2.1369,-2.0957,-2.093,-2.0864,-2.0691,-2.0691,-2.0569,-2.0316,-1.9704,-1.9105,-1.8507,-1.8045,-1.7828,-1.7948,-1.7948,-1.7988,-1.8001,-1.804,-1.808,-1.8094,-1.8602,-1.8533,0.0,-1.844,-1.829,-1.7867,-1.772,-1.768,-1.768,-1.772,-1.7814,-1.7868,-1.772,-1.7706,-1.7706,-1.7229,-1.7105,-1.7146,-1.7504,-1.7841,-1.8108,-1.8108,-1.8014,-1.7974,-1.7907,-1.7947,-1.7947,-1.7947,-1.7881,-1.7774,-1.7774,-1.7639,-1.7409,-1.7216,-1.7395,-1.7585,-1.7679,-1.7733,-1.7814,-1.8145,-1.8025,-1.8037,-1.843,-1.8555,-1.8717,-1.9082,-1.9813,-2.0523,-2.1133,-2.1458,-2.1728,-2.1955,-2.1995,-2.2101,-2.2295,-2.2348,-2.2401,-2.2505,-2.2548,-2.271,-2.2975,-2.3053,-2.3262,-2.3602,-2.3637,-2.3858,-0.9361,-0.9814,-1.0372,-1.1049,-1.1669,-1.2327,-1.3297,-1.3184,-1.3175,-1.4113,-1.4007,-1.4043,-1.5121,-1.5743,-1.6267,-1.6746,-1.7254,-1.7812,-1.8442,-1.9132,-1.9837,-2.0351,-2.0594,-2.0731,-2.0718,-2.015,-1.9811,-1.9798,-1.9798,-1.9572,-1.9058,-1.9032,-1.9179,-1.9588,-1.9078,-1.848,-1.7814,-1.7787,-1.7787,-1.7787,-1.7787,-1.7787,-1.7787,-1.7948,-1.7988,-1.7988,-1.808,-1.8106,0.0,-1.7517,-1.7312,-1.7271,-1.6863,-1.6718,-1.6718,-1.6846,-1.6918,-1.682,-1.6299,-1.6102,-1.6071,-1.5599,-1.5433,-1.5433,-1.5421,-1.6269,-1.7199,-1.7199,-1.6976,-1.6637,-1.6318,-1.6244,-1.6244,-1.6244,-1.6392,-1.6522,-1.6522,-1.6655,-1.6828,-1.6786,-1.6828,-1.6828,-1.6828,-1.6828,-1.6883,-1.6993,-1.7034,-1.7047,-1.7199,-1.724,-1.7269,-1.7312,-1.7666,-1.8589,-2.0268,-2.0668,-2.0831,-2.0911,-2.0927,-2.0989,-2.1113,-2.1113,-2.1189,-2.1324,-2.1434,-2.1526,-2.1526,-2.1586,-2.1819,-2.2245,-2.2488,-2.2953,-0.9113,-0.9361,-0.9814,-1.0372,-1.0916,-1.1489,-1.2347,-1.2581,-1.2945,-1.3961,-1.4149,-1.4447,-1.5386,-1.5818,-1.6125,-1.6708,-1.6937,-1.7256,-1.7801,-1.8329,-1.8783,-1.8942,-1.9287,-1.9379,-1.9099,-1.8913,-1.8658,-1.8309,-1.8286,-1.8119,-1.7681,-1.7268,-1.7388,-1.808,-1.7932,-1.7514,-1.6934,-1.6934,-1.6934,-1.6934,-1.6934,-1.6934,-1.6934,-1.6976,-1.6964,-1.6964,-1.6672,-1.6532,-1.6489,-1.5996,-1.5788,-1.5788,-1.568,-1.5603,-1.5603,-1.5635,-1.5724,-1.58,-1.5611,-1.5599,-1.5599,-1.5433,-1.5389,-1.5389,-1.5389,-1.5656,-1.6008,-1.6182,-1.6182,-1.6107,-1.6188,-1.62,-1.62,-1.62,-1.6231,-1.6175,-1.582,-1.5632,-1.5398,-1.505,-1.5118,-1.5219,-1.5161,-1.5274,-1.5342,-1.5351,-1.5118,-1.5084,-1.5508,-1.5552,-1.5728,-1.6151,-1.6621,-1.737,-1.8636,-1.9104,-1.9358,-1.9445,-1.9445,-1.9501,-1.9577,-1.9612,-1.9682,-1.9856,-1.9905,-2.0094,-2.0396,-2.0413,-2.0735,-2.1266,-2.1922,-2.2268,-0.9008,-0.9106,-0.9413,-0.9961,-1.0374,-1.0934,-1.2001,-1.2319,-1.2702,-1.3854,-1.4076,-1.4291,-1.4992,-1.5177,-1.5395,-1.593,-1.6063,-1.6227,-1.6722,-1.7388,-1.8046,-1.8455,-1.8625,-1.8592,-1.8349,-1.8148,-1.7902,-1.76,-1.7578,-1.7342,-1.6733,-1.6407,-1.6267,-1.6375,-1.6454,-1.6284,-1.5988,-1.5932,-1.5888,-1.5888,-1.5844,-1.5832,-1.5832,-1.5832,-1.5832,-1.5788,-1.5567,-1.5478,0.0,-1.5187,-1.5062,-1.5006,-1.5006,-1.5006,-1.496,-1.5006,-1.5096,-1.513,-1.4994,-1.4994,-1.4937,-1.4595,-1.4411,-1.4329,-1.4329,-1.4835,-1.5389,-1.5276,-1.5332,-1.5433,-1.5311,-1.5311,-1.5266,-1.5119,-1.5073,-1.4971,-1.4619,-1.4411,-1.4143,-1.3899,-1.3956,-1.4107,-1.4111,-1.4226,-1.4283,-1.4286,-1.4086,-1.405,-1.4435,-1.4481,-1.4664,-1.5106,-1.5386,-1.5847,-1.6557,-1.7545,-1.8166,-1.831,-1.8363,-1.8401,-1.8464,-1.8464,-1.8541,-1.8655,-1.8731,-1.8912,-1.9205,-1.9435,-1.9767,-2.0193,-2.0941,-2.1238,0.0,-0.9008,-0.9166,-0.9762,-1.0035,-1.0534,-1.2008,-1.2148,0.0,-1.3715,-1.3675,-1.3591,-1.4048,-1.4126,-1.4326,-1.4756,-1.4834,-1.4971,-1.5352,-1.6394,-1.7582,-1.8726,-1.8482,-1.8242,-1.8209,-1.7755,-1.7501,-1.7468,-1.7434,-1.7013,-1.6081,-1.5992,-1.5548,-1.4605,-1.472,-1.4869,-1.5062,-1.496,-1.4903,-1.4858,-1.4755,-1.4698,-1.4698,-1.4698,-1.4698,-1.4709,-1.4812,-1.4858,-1.4858,-1.4915,-1.4915,-1.4766,-1.4766,-1.4709,-1.4606,-1.4709,-1.4709,-1.4674,-1.4316,-1.4176,-1.4082,-1.316,-1.2696,-1.2421,-1.2421,-1.3721,-1.5062,-1.4389,-1.4457,-1.4617,-1.392,-1.3779,-1.3674,-1.3304,-1.3218,-1.317,-1.316,-1.316,-1.317,-1.3266,-1.3314,-1.3362,-1.342,-1.3467,-1.3505,-1.3532,-1.3569,-1.3616,-1.3721,-1.3779,-1.3826,-1.3931,-1.4025,-1.4061,-1.4107,-1.5947,-1.7133,-1.7286,-1.7394,-1.7503,-1.7503,-1.7544,-1.7585,-1.7625,-1.7774,-1.7894,-1.7987,-1.8584,-1.8896,-1.8979,-1.9591,-1.9908,-0.8857,0.0,-0.9061,-0.9211,-0.9546,-0.9997,0.0,-1.0902,-1.1406,-1.2755,-1.2945,-1.3251,-1.4437,-1.4629,-1.4766,-1.5195,-1.5264,-1.5293,-1.54,-1.6205,-1.7163,-1.8117,-1.7835,-1.7496,-1.7081,-1.6698,-1.6285,-1.5941,-1.5654,-1.5239,-1.4619,-1.4286,-1.3901,-1.3508,-1.3488,-1.3952,-1.4801,-1.4755,-1.4755,-1.4755,-1.4709,-1.4698,-1.4698,-1.4698,-1.4698,-1.4698,-1.434,-1.4212,-1.4165,-1.3779,-1.3637,-1.3589,-1.3589,-1.3589,-1.3494,-1.314,-1.2986,-1.2938,-1.2444,-1.2258,-1.2209,-1.2012,-1.1873,-1.1733,-1.1451,-1.2187,-1.317,-1.315,-1.3236,-1.3294,-1.3351,-1.3351,-1.3304,-1.3218,-1.3218,-1.3064,-1.2667,-1.257,-1.2472,-1.2157,-1.2491,-1.257,-1.1801,-1.2089,-1.211,-1.1308,-1.1208,-1.1258,-1.1358,-1.1408,-1.1458,-1.1598,-1.2083,-1.2366,-1.2366,-1.3996,-1.5084,-1.5196,-1.5241,-1.5297,-1.5398,-1.5499,-1.5632,-1.5708,-1.6114,-1.6441,-1.6637,-1.7136,-1.7464,-1.7612,-1.8464,-1.8745,-0.8804,-0.8951,-0.9113,-0.9113,-0.9337,-0.9679,-1.0136,-1.0317,-1.0656,-1.1645,-1.185,-1.2087,-1.3014,-1.3177,-1.3377,-1.391,-1.4059,-1.4309,-1.4928,-1.5458,-1.5974,-1.6668,-1.6391,-1.6113,-1.5955,-1.559,-1.5367,-1.543,-1.5029,-1.46,-1.4107,-1.374,-1.326,-1.2646,-1.2627,-1.3094,-1.4003,-1.3978,-1.3988,-1.3988,-1.3884,-1.3884,-1.3884,-1.3884,-1.3884,-1.3836,-1.3668,-1.3573,-1.3573,-1.3064,-1.2822,-1.2735,-1.2472,-1.2325,-1.2227,-1.2021,-1.1963,-1.1913,-1.1665,-1.1475,-1.1334,-1.1334,-1.1242,-1.104,-1.0854,-1.1167,-1.1619,-1.1891,-1.212,-1.2267,-1.2384,-1.2442,-1.2393,-1.2344,-1.2138,-1.1832,-1.1534,-1.1275,-1.1074,-1.0897,-1.1074,-1.1174,-1.0694,-1.088,-1.0864,-1.0312,-1.0218,-1.0261,-1.0415,-1.0415,-1.0517,-1.0669,-1.1048,-1.129,-1.134,-1.2181,-1.2966,-1.3622,-1.3705,-1.3846,-1.4054,-1.4204,-1.4343,-1.4573,-1.4846,-1.5129,-1.5344,-1.5604,-1.5941,-1.6336,-1.7014,-1.7369,-0.8805,-0.903,-0.923,-0.9143,-0.9294,-0.9563,-1.005,-1.0074,-1.015,-1.0656,-1.0791,-1.0921,-1.1338,-1.1444,-1.1707,-1.2389,-1.2622,-1.3099,-1.434,-1.4507,-1.4635,-1.5137,-1.4737,-1.4538,-1.4835,-1.4517,-1.4501,-1.4964,-1.4573,-1.4153,-1.3723,-1.3313,-1.272,-1.1927,-1.1918,-1.2206,-1.2812,-1.2813,-1.2832,-1.2832,-1.2676,-1.2627,-1.2627,-1.2627,-1.2627,-1.2627,-1.2774,0.0,-1.2774,-1.2384,-1.2129,-1.1999,-1.1525,-1.1283,-1.12,-1.1233,-1.1266,-1.1266,-1.1266,-1.1082,-1.0795,-1.0694,-1.0506,-1.0265,-1.0205,-1.0205,-1.0257,-1.0549,-1.0931,-1.1316,-1.1259,-1.1209,-1.1108,-1.1006,-1.06,-1.0241,-1.0241,-0.9873,-0.9562,-0.971,-0.9762,-0.9762,-0.9814,-0.9865,-0.9865,-0.9755,-0.9762,-0.9814,-0.9909,-0.9909,-1.0012,-1.0261,-1.0254,-1.0364,-1.0466,-1.0517,-1.0998,-1.2113,-1.2435,-1.2715,-1.3022,-1.3175,-1.3375,-1.3669,-1.382,-1.3971,-1.4122,-1.4228,-1.4539,-1.5106,-1.5508,-1.5915,-0.8893,-0.9167,-0.9264,-0.8944,-0.9245,-0.966,-0.9563,-0.9722,-1.0024,-1.0447,-1.0724,-1.109,-1.1693,-1.2028,-1.2389,-1.286,-1.2926,-1.326,-1.4048,-1.3947,-1.3997,-1.4739,-1.4163,-1.3785,-1.3861,-1.3462,-1.3186,-1.3048,-1.2589,-1.2206,-1.1946,-1.1464,-1.1133,-1.0973,-1.1023,-1.1074,-1.1166,-1.1392,-1.151,-1.151,-1.146,-1.146,-1.146,-1.146,-1.146,-1.146,0.0,-1.151,-1.151,-1.1401,-1.1351,-1.136,-1.125,-1.12,-1.1158,-1.0694,-1.0549,-1.049,-1.0072,-0.9865,-0.9769,-0.942,-0.9263,-0.9166,-0.8844,-0.8738,-0.8738,-0.8784,-0.9399,-1.0064,-1.0072,-0.9806,-0.954,-0.954,-0.9444,-0.9392,-0.9392,-0.934,-0.9287,-0.9458,-0.9562,-0.9517,-0.9211,-0.9263,-0.9152,-0.8732,-0.8626,-0.8626,-0.8679,-0.8679,-0.8679,-0.8732,-0.883,-0.8942,-0.9106,-0.9211,-0.9413,-0.9703,-1.0704,-1.1399,-1.1697,-1.1981,-1.2286,-1.2599,-1.289,-1.3092,-1.3351,-1.3494,-1.3674,-1.3888,-1.4494,-1.4699,-0.8641,-0.888,-0.9034,-0.8825,-0.9308,-0.9768,-0.9688,-0.9758,-0.987,-1.0003,-1.0144,-1.0401,-1.085,-1.1071,-1.1345,-1.1903,-1.1899,-1.2082,-1.2876,-1.2679,-1.2573,-1.2951,-1.2649,-1.2519,-1.2696,-1.2538,-1.249,-1.2622,-1.2166,-1.1792,-1.1489,-1.1063,-1.0669,-1.0364,-1.0364,-1.0218,-0.9909,-1.0079,-1.0431,-1.0981,-1.0981,-1.0981,-1.0981,-1.0981,-1.0981,-1.0981,0.0,-1.0981,-1.0981,-1.0685,-1.0533,-1.0533,-1.0233,-1.0131,-1.0079,-0.9666,-0.9242,-0.8817,-0.8712,-0.8606,-0.8448,-0.8243,-0.8196,-0.8143,-0.7984,-0.7931,-0.7931,-0.7931,-0.8461,-0.9093,-0.9242,-0.9138,-0.9026,-0.9183,-0.8974,-0.8778,-0.8778,-0.8508,-0.8302,-0.8362,-0.8408,-0.8415,-0.8209,-0.8262,-0.8096,-0.7509,-0.7503,-0.7503,-0.723,-0.7283,-0.7337,-0.7396,-0.7503,-0.7551,-0.761,-0.7664,-0.8143,-0.9159,-0.9865,-1.0312,-1.0517,-1.0795,-1.1108,-1.1351,-1.1642,-1.185,-1.2049,-1.2246,-1.2628,-1.3092,-1.3443,-1.3747,-0.8451,-0.8622,-0.8745,-0.8808,-0.933,-0.9793,-0.9803,-0.9774,-0.9669,-0.9669,-0.9722,-0.9814,-1.0033,-1.0113,-1.043,-1.0945,-1.0894,-1.0992,-1.166,-1.1473,-1.1307,-1.1376,-1.1321,-1.1368,-1.1677,-1.1574,-1.1647,-1.1908,-1.1543,-1.113,-1.0889,-1.0514,-1.0167,-0.971,-0.971,-0.951,-0.9106,-0.9113,-0.9562,-1.0415,-1.0415,-1.0415,-1.0415,-1.0415,-1.0415,-1.0415,-1.0415,-1.0415,-1.0415,-0.9961,-0.9762,-0.9607,-0.9152,-0.8942,-0.8778,-0.856,-0.8078,-0.7545,-0.7711,-0.7658,-0.7492,-0.7385,-0.7331,-0.7331,-0.7224,-0.7171,-0.7171,-0.7171,-0.7551,-0.7937,-0.8296,-0.8349,-0.8349,-0.8547,-0.8243,-0.7883,-0.7883,-0.7402,-0.6972,-0.7025,-0.702,-0.7025,-0.7079,-0.7079,-0.6918,-0.648,-0.6529,-0.6529,-0.6154,-0.6204,-0.6312,-0.6426,-0.6421,-0.6475,-0.648,-0.6534,-0.7117,-0.8455,-0.8817,-0.9079,-0.9235,-0.9503,-0.9769,-0.9984,-1.0233,-1.049,-1.071,-1.0964,-1.1392,-1.2012,-1.2159,-1.256,-0.8527,-0.8608,-0.8683,-0.8939,-0.9149,-0.9368,-0.9576,-0.9688,-0.9675,-0.9608,-0.9812,-0.9976,-0.9923,-1.0285,-1.0604,-1.0645,-1.0638,-1.0732,-1.1048,-1.084,-1.0759,-1.1028,-1.0819,-1.0645,-1.0688,-1.0431,-1.014,-0.9908,-0.9602,-0.9302,-0.901,-0.8969,-0.891,-0.891,-0.891,-0.8857,-0.8804,-0.8804,-0.9008,-0.9309,-0.9309,-0.9309,-0.9309,-0.9309,-0.9309,-0.9309,-0.9309,-0.9309,-0.9309,-0.9256,-0.8949,-0.8527,-0.8474,-0.809,-0.7599,-0.7599,-0.7545,-0.7492,-0.7545,-0.7492,-0.7439,-0.7069,-0.6961,-0.6853,-0.6421,-0.6312,-0.6312,-0.6312,-0.6312,-0.648,-0.6907,-0.6966,-0.6864,-0.6864,-0.6588,-0.6372,-0.6372,-0.5878,-0.5496,-0.5597,-0.5651,-0.5706,-0.5882,-0.5937,-0.5882,-0.5882,-0.5882,-0.5882,-0.5828,-0.5828,-0.5828,-0.5882,-0.5982,-0.6091,-0.6209,-0.6367,-0.6465,-0.6573,-0.7004,-0.7379,-0.7652,-0.7906,-0.8165,-0.8435,-0.8738,-0.9065,-0.9517,-0.9666,-0.9917,-1.021,-1.0466,-1.0728,-0.7973,-0.808,-0.8221,-0.8482,-0.8728,-0.9042,-0.9375,-0.9705,-0.9894,-0.9831,-0.9914,-0.9882,-0.9448,-0.9838,-1.0162,-0.9866,-1.0084,-1.0341,-1.0626,-1.0419,-1.0276,-1.0515,-1.05,-1.0362,-1.0301,-1.018,-0.986,-0.9332,-0.9138,-0.8893,-0.8553,-0.8633,-0.8685,-0.8685,-0.8415,-0.8256,-0.8256,-0.7824,-0.7664,-0.7765,-0.8573,-0.8738,-0.8408,-0.8408,-0.8196,-0.7883,-0.7883,-0.7883,-0.7883,-0.7883,-0.7777,-0.7568,-0.7568,-0.7235,-0.6686,-0.6907,-0.6583,-0.6159,-0.6376,-0.6322,-0.6105,-0.5941,-0.5891,-0.5891,-0.5673,-0.5454,-0.5289,-0.5289,-0.5066,-0.5007,-0.5873,-0.6041,-0.5932,-0.5664,-0.55,-0.5391,-0.5391,-0.5226,-0.5062,-0.5113,-0.5113,-0.5167,-0.5226,-0.5332,-0.5218,-0.4721,-0.4838,-0.4846,-0.4463,-0.4512,-0.4567,-0.4567,-0.4618,-0.4673,-0.4842,-0.4897,-0.5003,-0.5222,-0.6199,-0.6848,-0.7063,-0.7165,-0.7374,-0.7688,-0.7953,-0.8277,-0.8712,-0.8908,-0.928,-0.9762,-0.9865,-1.0072,-0.7592,-0.7712,-0.7972,-0.8294,-0.8491,-0.8747,-0.9187,-0.9519,-0.975,-0.9843,-0.9722,-0.939,-0.8737,-0.9,-0.9256,-0.9019,-0.9179,-0.9456,-0.9706,-0.9509,-0.9424,-0.9466,-0.9454,-0.9413,-0.9265,-0.9226,-0.8961,-0.8427,-0.8318,-0.8136,-0.7842,-0.7931,-0.7984,-0.7984,-0.7658,-0.7498,-0.7498,-0.7015,-0.6799,-0.6799,-0.767,-0.7937,-0.7605,-0.7605,-0.745,-0.7025,-0.7025,-0.7025,-0.6918,-0.6918,-0.6864,-0.6701,-0.6539,-0.6209,-0.5828,-0.5987,-0.5723,-0.5242,-0.5462,-0.5403,-0.5242,-0.5183,-0.5069,-0.4904,-0.4904,-0.457,-0.4184,-0.4184,-0.3959,-0.3846,-0.4443,-0.4941,-0.5167,-0.4842,-0.4677,-0.4618,-0.4618,-0.4453,-0.4346,-0.4346,-0.4346,-0.4346,-0.4346,-0.4398,-0.4284,-0.3788,-0.3904,-0.391,-0.3469,-0.3522,-0.363,-0.3685,-0.3463,-0.335,-0.3516,-0.3516,-0.3627,-0.3904,-0.5003,-0.5823,-0.6145,-0.6199,-0.6303,-0.6622,-0.6838,-0.716,-0.7641,-0.7841,-0.8218,-0.8876,-0.8876,-0.9131,-0.7578,-0.7698,-0.8006,-0.8381,-0.8516,-0.8587,-0.901,-0.907,-0.9148,-0.9424,-0.9075,-0.8479,-0.7837,-0.7832,-0.7962,-0.7962,-0.7962,-0.8027,-0.8027,-0.8021,-0.7935,-0.7705,-0.7675,-0.7655,-0.7498,-0.7276,-0.7089,-0.7084,-0.6769,-0.6588,-0.6588,-0.6588,-0.6588,-0.6588,-0.6588,-0.6588,-0.6588,-0.6588,-0.6588,-0.6588,-0.6588,-0.6696,-0.6907,-0.7025,-0.7025,-0.6907,-0.6907,-0.6745,-0.6588,-0.6588,-0.6263,-0.5723,-0.5289,-0.5014,-0.4901,-0.4897,-0.4956,-0.5069,-0.4956,-0.4956,-0.5069,-0.4956,-0.4453,-0.4006,-0.4009,-0.3564,-0.3118,-0.3118,-0.3118,-0.301,-0.2621,-0.3458,-0.446,-0.446,-0.4233,-0.4006,-0.4006,-0.3514,-0.3074,-0.3074,-0.3074,-0.3074,-0.3074,-0.3074,-0.3074,-0.3074,-0.3074,-0.3074,-0.3074,-0.3074,-0.3188,-0.3357,-0.2687,-0.2293,-0.2456,-0.2512,-0.2567,-0.2681,-0.3244,-0.3916,-0.4636,-0.4794,-0.4956,-0.5069,-0.5226,-0.555,-0.6154,-0.615,-0.6529,-0.7289,-0.7283,-0.7664,-0.6436,-0.6833,-0.7157,-0.6755,-0.7416,-0.8038,-0.7659,-0.7999,-0.834,-0.7952,-0.7837,-0.7577,-0.692,-0.7251,-0.7447,-0.692,-0.7246,-0.7577,-0.7577,-0.7511,-0.7453,-0.7571,-0.7492,-0.7374,-0.7208,-0.7125,-0.6966,-0.6634,-0.6505,-0.6421,-0.6317,-0.6421,-0.647,-0.647,-0.6204,-0.6046,-0.6046,-0.5504,-0.5289,-0.5289,-0.5289,-0.5559,-0.615,-0.6154,-0.5937,-0.5496,-0.5496,-0.5441,-0.5391,-0.5391,-0.5357,-0.5288,-0.5056,-0.4971,-0.5004,-0.4942,-0.4901,-0.4901,-0.4453,-0.4284,-0.4249,-0.3835,-0.3575,-0.3355,-0.3437,-0.3065,-0.2676,-0.2676,-0.2456,-0.2179,-0.2012,-0.2291,-0.2625,-0.2625,-0.2512,-0.2456,-0.2456,-0.2291,-0.2181,-0.2181,-0.2181,-0.2181,-0.2181,-0.2237,-0.2293,-0.2181,-0.2293,-0.2406,-0.2631,-0.2462,-0.2462,-0.2856,-0.2408,-0.2127,-0.2293,-0.2012,-0.1956,-0.2181,-0.1953,-0.2508,-0.4018,-0.3683,-0.3569,-0.3674,-0.3453,-0.3785,-0.4666,-0.4213,-0.4652,-0.5873,-0.5475,-0.5742,-0.5759,-0.6124,-0.6501,-0.6293,-0.6782,-0.7145,-0.6515,-0.7055,-0.7512,-0.6854,-0.6724,-0.6597,-0.5877,-0.6075,-0.6207,-0.5811,-0.6082,-0.6294,-0.6294,-0.6203,-0.6121,-0.6172,-0.6126,-0.6043,-0.5906,-0.5888,-0.5785,-0.5559,-0.555,-0.555,-0.55,-0.5605,-0.5601,-0.555,-0.5391,-0.5226,-0.5175,-0.4794,-0.4577,-0.4525,-0.4525,-0.4688,-0.5117,-0.5336,-0.523,-0.4794,-0.4791,-0.4772,-0.4826,-0.482,-0.4889,-0.4962,-0.4856,-0.4685,-0.4469,-0.4432,-0.4291,-0.4012,-0.3566,-0.3456,-0.3474,-0.3071,-0.275,-0.2589,-0.2653,-0.2259,-0.1793,-0.1761,-0.1526,-0.1231,-0.1231,-0.1231,-0.1348,-0.1707,-0.1827,-0.1832,-0.1857,-0.1862,-0.1862,-0.1862,-0.1803,-0.1628,-0.1336,-0.1323,-0.1254,-0.0911,-0.0957,-0.1116,-0.1339,-0.1172,-0.1172,-0.1452,-0.1117,-0.0838,-0.0838,-0.067,-0.067,-0.0781,-0.0613,-0.1001,-0.2169,-0.2341,-0.2397,-0.2393,-0.2286,-0.2563,-0.3229,-0.2892,-0.3277,-0.4326,-0.4045,-0.4316,-0.5421,-0.5604,-0.5949,-0.6351,-0.6262,-0.6006,-0.5581,-0.6075,-0.6465,-0.5873,-0.5807,-0.5613,-0.4894,-0.4831,-0.4831,-0.4831,-0.4714,-0.4623,-0.4623,-0.4497,-0.442,-0.4244,-0.4216,-0.4161,-0.4036,-0.4024,-0.4024,-0.4193,-0.4193,-0.4245,-0.4463,-0.4463,-0.4356,-0.4193,-0.4353,-0.4356,-0.4193,-0.4353,-0.4353,-0.4193,-0.4193,-0.4135,-0.4024,-0.457,-0.4794,-0.4688,-0.4522,-0.4541,-0.466,-0.4636,-0.4618,-0.4574,-0.4587,-0.4098,-0.3506,-0.3482,-0.3203,-0.2819,-0.2479,-0.2537,-0.2721,-0.2401,-0.2028,-0.1657,-0.1762,-0.1248,-0.0684,-0.0646,-0.052,-0.0394,-0.0394,-0.0394,-0.0625,-0.1407,-0.1649,-0.1661,-0.1775,-0.1725,-0.1663,-0.1663,-0.1478,-0.1106,-0.0429,-0.024,0.0,0.0588,0.0573,0.0505,0.0505,0.0504,0.0503,0.0447,0.0727,0.1062,0.1285,0.1117,0.1062,0.1174,0.0838,0.0616,0.0505,-0.067,-0.1281,-0.1058,-0.1393,-0.1616,-0.1783,-0.184,-0.2169,-0.266,-0.2717,-0.3106,-0.4574,-0.4875,-0.5132,-0.475,-0.4724,-0.4725,-0.4625,-0.4694,-0.4891,-0.4888,-0.4957,-0.496,-0.4831,-0.4831,-0.4831,-0.4831,-0.4714,-0.4623,-0.4623,-0.4421,-0.4259,-0.4232,-0.4134,-0.4054,-0.4027,-0.4024,-0.4024,-0.4024,-0.4024,-0.4076,-0.4132,-0.4132,-0.4079,-0.4024,-0.4079,-0.4079,-0.4024,-0.4079,-0.4079,-0.4024,-0.4024,-0.4024,-0.4024,-0.4245,-0.4411,-0.4519,-0.4356,-0.4265,-0.4291,-0.4203,-0.3989,-0.3688,-0.3486,-0.3163,-0.2731,-0.2541,-0.2416,-0.2289,-0.1749,-0.1569,-0.1577,-0.1065,-0.0806,-0.0731,-0.0759,-0.0623,-0.0485,-0.0488,-0.0418,-0.0408,-0.0408,-0.0408,-0.0294,0.0,-0.0299,-0.0713,-0.0736,-0.0308,0.0062,0.0062,0.0553,0.1044,0.1227,0.1221,0.1276,0.1458,0.1449,0.1323,0.1142,0.1178,0.116,0.0984,0.1134,0.1229,0.1285,0.1675,0.1918,0.1967,0.232,0.258,0.2703,0.1319,0.0558,0.0558,0.0614,0.0391,-0.0112,0.0335,0.0111,-0.0778,-0.0501,-0.0669,-0.3911,-0.4216,-0.4405,-0.4092,-0.4119,-0.4164,-0.4164,-0.4164,-0.4231,-0.4431,-0.4498,-0.4564,-0.4564,-0.4564,-0.4544,-0.448,-0.4362,-0.4255,-0.4195,-0.4024,-0.3906,-0.3906,-0.3845,-0.3805,-0.3805,-0.3805,-0.3858,-0.391,-0.391,-0.391,-0.4021,-0.4024,-0.3965,-0.391,-0.3965,-0.3965,-0.391,-0.3688,-0.3522,-0.3463,-0.3186,-0.3019,-0.3072,-0.3466,-0.3574,-0.34,-0.3292,-0.3324,-0.337,-0.3203,-0.3046,-0.293,-0.2734,-0.2387,-0.1903,-0.1782,-0.1557,-0.1293,-0.0925,-0.0801,-0.0806,-0.0512,-0.038,-0.0436,-0.0455,-0.0384,-0.0248,0.0063,0.0308,0.0481,0.0841,0.1021,0.115,0.1495,0.087,0.0248,0.0511,0.0899,0.122,0.122,0.1603,0.2042,0.2389,0.2787,0.2976,0.283,0.2854,0.2807,0.2646,0.2663,0.2636,0.2516,0.2422,0.2456,0.2681,0.2845,0.3091,0.3315,0.3496,0.3697,0.3929,0.317,0.2514,0.206,0.206,0.1874,0.1398,0.1788,0.1673,0.1113,0.1282,0.1228,-0.3431,-0.3682,-0.3864,-0.3883,-0.3949,-0.3961,-0.3961,-0.3961,-0.4028,-0.4164,-0.4233,-0.4233,-0.4233,-0.4164,-0.4058,-0.3944,-0.3703,-0.3527,-0.3477,-0.337,-0.3302,-0.3302,-0.3302,-0.3302,-0.3302,-0.3302,-0.3355,-0.3461,-0.3461,-0.3516,-0.363,-0.363,-0.3574,-0.3461,-0.3574,-0.3574,-0.3461,-0.3074,-0.2796,-0.2683,-0.2181,-0.1903,-0.1792,-0.2404,-0.2514,-0.2174,-0.2176,-0.2269,-0.238,-0.2201,-0.2162,-0.2222,-0.2047,-0.1616,-0.1075,-0.1075,-0.0732,-0.0314,-0.0188,-0.0188,-0.0252,-0.0194,-0.0128,-0.0063,-0.0133,0.0065,0.044,0.096,0.1327,0.1672,0.2277,0.253,0.2741,0.287,0.2127,0.1435,0.1734,0.2011,0.2213,0.2213,0.2404,0.2774,0.3416,0.4007,0.4345,0.4125,0.4189,0.4219,0.4103,0.407,0.4058,0.4058,0.3863,0.3907,0.4245,0.4076,0.4141,0.4553,0.4396,0.4406,0.4654,0.4599,0.4244,0.3521,0.3304,0.3096,0.2847,0.2956,0.2945,0.2813,0.2813,0.2691,-0.3044,-0.3332,-0.3539,-0.3663,-0.376,-0.3825,-0.3825,-0.3825,-0.3825,-0.3892,-0.3961,-0.4028,-0.4028,-0.3689,-0.3321,-0.3168,-0.2638,-0.2255,-0.2243,-0.2113,-0.2014,-0.2014,-0.2014,-0.2014,-0.2014,-0.2014,-0.2069,-0.2068,-0.2068,-0.2068,-0.2069,-0.2069,-0.2069,-0.2068,-0.2069,-0.2069,-0.2068,-0.2014,-0.1958,-0.1958,-0.1734,-0.1399,-0.0897,-0.0953,-0.1454,-0.2174,-0.2068,-0.2018,-0.2084,-0.1905,-0.154,-0.1114,-0.111,-0.0727,-0.0191,-0.0191,-0.013,-0.0067,0.0,0.0067,0.02,0.0201,0.0734,0.1328,0.1338,0.1799,0.2308,0.2263,0.237,0.2536,0.2475,0.2566,0.2874,0.3528,0.3598,0.3398,0.2676,0.3082,0.3556,0.3556,0.3944,0.4321,0.4432,0.4385,0.4406,0.4372,0.4381,0.4387,0.4369,0.4324,0.4365,0.4365,0.4369,0.4405,0.4463,0.4522,0.4633,0.4815,0.4833,0.4958,0.5273,0.5111,0.4998,0.498,0.4574,0.4327,0.4309,0.4366,0.4246,0.407,0.3952,0.3835,-0.3118,-0.3196,-0.3292,-0.3512,-0.3597,-0.3629,-0.3629,-0.3291,-0.3021,-0.3155,-0.2817,-0.2616,-0.3155,-0.3088,-0.2777,-0.2274,-0.1922,-0.1693,-0.1612,-0.158,-0.151,-0.151,-0.1621,-0.1679,-0.1679,-0.1734,-0.179,-0.179,-0.179,-0.179,-0.1679,-0.1679,-0.1621,-0.151,-0.1621,-0.1621,-0.151,-0.1287,-0.0952,-0.056,-0.0504,-0.0336,-0.0056,-0.0056,-0.0392,-0.095,-0.0839,-0.0784,-0.0784,-0.0616,-0.04,-0.0118,-0.0118,0.0061,0.0258,0.0258,0.0263,0.027,0.027,0.0337,0.0404,0.0404,0.0941,0.1609,0.1609,0.2143,0.2806,0.3105,0.342,0.3668,0.4014,0.4296,0.4596,0.4928,0.5042,0.4929,0.4454,0.4435,0.4535,0.4528,0.4728,0.4884,0.4884,0.4826,0.4752,0.4667,0.4724,0.4752,0.4663,0.4652,0.4671,0.4671,0.472,0.4736,0.4849,0.4904,0.5049,0.5286,0.5185,0.528,0.5584,0.5564,0.558,0.5731,0.5225,0.4979,0.489,0.5063,0.508,0.4889,0.4893,0.4908,-0.2769,-0.2661,-0.2514,-0.2843,-0.2879,-0.286,-0.286,-0.2473,-0.2082,-0.2284,-0.1745,-0.1409,-0.1946,-0.2068,-0.196,-0.1301,-0.1098,-0.0954,-0.0902,-0.0895,-0.0895,-0.0895,-0.1007,-0.1119,-0.1119,-0.1175,-0.1231,-0.1231,-0.1231,-0.1175,-0.1119,-0.1119,-0.1007,-0.0895,-0.1007,-0.1007,-0.0895,-0.056,-0.0112,0.0449,0.0449,0.0449,0.0449,0.0449,0.0336,0.0112,0.0224,0.0224,0.028,0.0336,0.0457,0.0471,0.0471,0.049,0.0517,0.0517,0.0526,0.0472,0.0472,0.0674,0.0875,0.0875,0.1478,0.2278,0.2345,0.2878,0.354,0.4119,0.4463,0.4806,0.5267,0.56,0.5817,0.5776,0.5765,0.5743,0.5653,0.5382,0.5145,0.5161,0.5104,0.5093,0.5093,0.5117,0.5046,0.4974,0.5061,0.5095,0.5026,0.5062,0.5066,0.5066,0.512,0.5179,0.5293,0.5293,0.5403,0.5622,0.5567,0.5622,0.59,0.5983,0.6115,0.6285,0.5888,0.564,0.5538,0.5927,0.6059,0.5894,0.6119,0.6261,-0.1667,-0.1372,-0.1026,-0.1175,-0.1211,-0.1226,-0.1226,-0.1186,-0.1143,-0.121,-0.1143,-0.0941,-0.0269,-0.046,-0.0638,-0.0371,0.0,0.0292,0.0338,0.0336,0.0336,0.0336,0.028,0.028,0.028,0.028,0.028,0.028,0.028,0.028,0.028,0.028,0.028,0.0336,0.028,0.028,0.0336,0.0336,0.0449,0.0673,0.0673,0.0673,0.0673,0.0673,0.0561,0.0393,0.0393,0.0393,0.0393,0.0393,0.0457,0.0471,0.0412,0.0429,0.0517,0.0517,0.0526,0.0472,0.0472,0.1076,0.1811,0.1811,0.2882,0.422,0.4356,0.4888,0.545,0.5567,0.5701,0.5752,0.5446,0.5476,0.5612,0.5463,0.543,0.5467,0.5542,0.5465,0.5365,0.5358,0.5214,0.5093,0.5093,0.5076,0.5081,0.5073,0.5179,0.5289,0.5281,0.5454,0.5567,0.5567,0.5681,0.574,0.574,0.574,0.5795,0.5795,0.6,0.6154,0.6154,0.6436,0.6668,0.6841,0.6841,0.6768,0.6699,0.7393,0.756,0.7386,0.7835,0.8044,-0.1166,-0.1109,-0.0996,-0.1133,-0.1143,-0.1132,-0.109,-0.0724,-0.0403,-0.0403,0.0,0.0403,0.0672,0.0197,-0.0064,0.0434,0.0673,0.0775,0.0735,0.0743,0.0747,0.0731,0.0617,0.0617,0.0617,0.0449,0.0393,0.0393,0.0393,0.0449,0.0561,0.0617,0.0617,0.0729,0.0617,0.0617,0.0617,0.0673,0.0729,0.0842,0.0842,0.0842,0.0842,0.0842,0.0785,0.0729,0.0729,0.0673,0.0617,0.0673,0.0743,0.0766,0.0884,0.0907,0.1007,0.1599,0.1879,0.19,0.2398,0.2746,0.3078,0.3078,0.3747,0.4616,0.4686,0.5219,0.5807,0.5817,0.5834,0.5898,0.5778,0.5771,0.5778,0.5836,0.5735,0.573,0.5905,0.5695,0.5534,0.5534,0.5567,0.5557,0.5557,0.5559,0.5572,0.5572,0.5572,0.5622,0.5622,0.5681,0.5841,0.6213,0.595,0.5955,0.6273,0.6164,0.6213,0.6588,0.6902,0.7069,0.7182,0.7235,0.7241,0.7031,0.7456,0.7432,0.7007,0.75,0.7775,0.7889,0.8315,0.8625,-0.0621,-0.0539,-0.0406,-0.0501,-0.0463,-0.0477,-0.0377,0.0,0.0393,0.0331,0.0735,0.1076,0.1076,0.0717,0.0507,0.0942,0.0986,0.0959,0.0918,0.0921,0.092,0.09,0.0842,0.0785,0.0785,0.0673,0.0561,0.0561,0.0561,0.0617,0.0785,0.0785,0.0785,0.0898,0.0841,0.0785,0.0842,0.0898,0.0954,0.0954,0.0954,0.0954,0.0898,0.0954,0.0954,0.0954,0.101,0.0954,0.0842,0.0954,0.1143,0.1411,0.1513,0.1735,0.2067,0.2652,0.2885,0.3071,0.3522,0.388,0.4079,0.4079,0.4547,0.515,0.5279,0.5617,0.6009,0.6017,0.5985,0.5998,0.5883,0.5843,0.5885,0.5994,0.59,0.5814,0.598,0.581,0.5693,0.5693,0.5712,0.5795,0.5795,0.5845,0.5845,0.5845,0.5905,0.5959,0.5959,0.5959,0.6119,0.6593,0.6327,0.6277,0.6756,0.675,0.6853,0.7278,0.7706,0.7978,0.809,0.8143,0.8143,0.7931,0.8396,0.8448,0.8078,0.8296,0.8508,0.8705,0.9221,0.957,0.0,0.0,0.0,0.0888,0.0956,0.0984,0.1025,0.1109,0.1181,0.1026,0.1054,0.114,0.1138,0.1155,0.1187,0.1028,0.0983,0.0885,0.0885,0.092,0.0901,0.09,0.09,0.09,0.09,0.09,0.09,0.09,0.0899,0.0898,0.0898,0.0896,0.0895,0.0895,0.0895,0.0951,0.1119,0.1119,0.1119,0.1119,0.1119,0.1064,0.0896,0.1064,0.1121,0.1122,0.1234,0.1234,0.1122,0.1122,0.1598,0.2277,0.2209,0.2728,0.3512,0.3475,0.3566,0.3739,0.3742,0.4278,0.4815,0.4815,0.5352,0.5954,0.6141,0.6207,0.6237,0.6189,0.6195,0.6113,0.5877,0.5819,0.5795,0.5795,0.5795,0.5795,0.5795,0.5795,0.5795,0.5795,0.5795,0.5795,0.5795,0.5896,0.6,0.6,0.6114,0.6232,0.6232,0.6228,0.6391,0.6756,0.6756,0.6864,0.7139,0.7509,0.7723,0.7777,0.8402,0.883,0.883,0.9099,0.9361,0.9614,0.9614,0.9769,1.0012,0.9865,0.9814,0.9865,1.0608,1.1074,0.0407,0.0,0.0,0.0,0.0,0.0,0.1191,0.1269,0.1289,0.13,0.1322,0.132,0.123,0.1314,0.1396,0.1317,0.1172,0.1159,0.1159,0.1049,0.0988,0.0966,0.0963,0.0963,0.0963,0.0963,0.0963,0.0,0.0943,0.0921,0.0898,0.0962,0.0988,0.0988,0.104,0.1144,0.1196,0.1196,0.1196,0.1196,0.1196,0.116,0.1189,0.1243,0.1261,0.1234,0.129,0.1624,0.2068,0.1457,0.1634,0.2267,0.2355,0.2881,0.3675,0.4333,0.4712,0.4945,0.5443,0.5815,0.5951,0.5951,0.6083,0.6264,0.633,0.6353,0.6316,0.6314,0.6224,0.6061,0.588,0.578,0.585,0.5896,0.595,0.595,0.6069,0.6069,0.6069,0.595,0.6009,0.6069,0.6069,0.6119,0.6119,0.6119,0.6652,0.6972,0.6972,0.7444,0.7919,0.8461,0.8131,0.8078,0.8573,0.8567,0.862,0.8935,0.9302,0.9503,0.9503,0.9607,0.9614,0.9614,0.9865,1.0167,1.0415,1.0415,1.0466,1.0669,1.1401,1.1877,0.0665,0.0865,0.0932,0.1046,0.0,0.0,0.1267,0.1332,0.1344,0.1376,0.1409,0.1414,0.1328,0.147,0.1551,0.1544,0.1466,0.1406,0.1441,0.1326,0.1195,0.1236,0.1234,0.1234,0.1234,0.1234,0.1234,0.1234,0.114,0.1098,0.1046,0.1093,0.1059,0.1059,0.116,0.121,0.1262,0.1262,0.1262,0.1262,0.1262,0.1286,0.1279,0.1332,0.152,0.1792,0.1847,0.2293,0.2901,0.246,0.2627,0.3183,0.3292,0.3843,0.4608,0.5178,0.5542,0.5826,0.6379,0.6548,0.6535,0.6521,0.6496,0.6463,0.6408,0.6352,0.6314,0.6241,0.616,0.6039,0.5927,0.59,0.6014,0.6064,0.6168,0.6327,0.6386,0.6495,0.6495,0.6168,0.6277,0.6386,0.6386,0.6495,0.6549,0.6549,0.7079,0.745,0.745,0.7972,0.8495,0.8988,0.8718,0.8718,0.9159,0.9302,0.9503,0.971,1.0174,1.0438,1.0438,1.0438,1.0438,1.049,1.0685,1.0939,1.1242,1.099,1.104,1.1292,1.1719,1.2026,0.0808,0.1011,0.1072,0.1256,0.1308,0.0,0.1298,0.1347,0.1396,0.1432,0.1425,0.1392,0.1392,0.1547,0.1657,0.1701,0.1675,0.1627,0.1597,0.1574,0.1487,0.1492,0.1493,0.1493,0.1493,0.1493,0.1491,0.1486,0.1437,0.137,0.1284,0.1231,0.1203,0.1203,0.1198,0.1296,0.1395,0.1395,0.1395,0.1395,0.1395,0.1422,0.1421,0.1526,0.1987,0.2662,0.2775,0.3171,0.3738,0.3738,0.4015,0.4519,0.4519,0.5094,0.592,0.594,0.6162,0.6457,0.6671,0.6728,0.6681,0.6637,0.6572,0.6519,0.6332,0.6276,0.6296,0.6156,0.6086,0.6059,0.6055,0.6168,0.6287,0.6282,0.6549,0.6756,0.6756,0.6918,0.6977,0.6445,0.6549,0.6756,0.6756,0.6923,0.7139,0.7139,0.7563,0.783,0.7883,0.829,0.8652,0.8935,0.8935,0.904,0.9368,0.9865,1.0218,1.032,1.0956,1.1326,1.1326,1.1326,1.1427,1.1669,1.1728,1.1877,1.2076,1.1628,1.1519,1.1728,1.1728,1.1877,0.0864,0.1134,0.125,0.1284,0.1331,0.0,0.1431,0.147,0.1482,0.1549,0.1572,0.158,0.158,0.1647,0.1762,0.1771,0.1802,0.1804,0.179,0.1602,0.1547,0.1583,0.1587,0.1587,0.1587,0.1587,0.1572,0.1535,0.1366,0.1336,0.1282,0.1301,0.13,0.13,0.1353,0.1377,0.1377,0.1377,0.1377,0.1377,0.1377,0.1687,0.219,0.219,0.2672,0.3478,0.3481,0.3914,0.4622,0.4622,0.4567,0.4519,0.4519,0.5024,0.5864,0.6007,0.6261,0.6599,0.6824,0.6772,0.6633,0.6598,0.6485,0.6328,0.6312,0.6312,0.6271,0.6184,0.6151,0.6228,0.649,0.6598,0.6652,0.6869,0.6977,0.7031,0.7031,0.7085,0.7139,0.7348,0.7187,0.7031,0.7031,0.7085,0.7187,0.7509,0.8143,0.8725,0.904,0.9673,1.0095,1.0146,0.9821,0.9873,1.0506,1.0336,1.0431,1.1057,1.1217,1.1326,1.1326,1.1326,1.1427,1.1669,1.1927,1.2026,1.2076,1.1977,1.1977,1.2026,1.2026,1.2126,0.1071,0.135,0.1458,0.1484,0.1535,0.0,0.0,0.1616,0.1632,0.1693,0.1681,0.1661,0.1661,0.171,0.1752,0.1752,0.1801,0.1929,0.2263,0.2023,0.1814,0.1841,0.1868,0.1884,0.1884,0.1884,0.1851,0.1771,0.1644,0.1549,0.1495,0.1467,0.1555,0.1761,0.1541,0.1555,0.1744,0.1744,0.1789,0.1834,0.2101,0.2418,0.2845,0.2952,0.3421,0.4128,0.4257,0.4714,0.5344,0.5344,0.5293,0.5128,0.5128,0.5515,0.6108,0.6099,0.6402,0.6733,0.6865,0.6803,0.6764,0.6727,0.656,0.6361,0.628,0.6384,0.6522,0.6633,0.6657,0.6712,0.6869,0.6923,0.6918,0.7085,0.7192,0.73,0.73,0.7408,0.7574,0.7783,0.7622,0.7568,0.7877,0.8037,0.8203,0.8415,0.8935,0.9347,0.9562,1.0249,1.0718,1.0718,1.06,1.0702,1.1074,1.1006,1.1099,1.1477,1.1628,1.1728,1.1728,1.1728,1.1778,1.1877,1.2026,1.2126,1.2175,1.2175,1.2175,1.2076,1.2076,1.2175,0.1178,0.1572,0.1671,0.1668,0.0,0.1718,0.0,0.0,0.0,0.1755,0.1723,0.1692,0.1704,0.1696,0.1692,0.1704,0.1801,0.2074,0.2584,0.2497,0.2353,0.2444,0.2303,0.2207,0.2353,0.2332,0.2272,0.2041,0.1979,0.189,0.1743,0.1683,0.1767,0.2069,0.1829,0.1834,0.2146,0.2275,0.2364,0.2499,0.2854,0.3173,0.3463,0.3652,0.4146,0.4817,0.4992,0.5366,0.5905,0.5905,0.5905,0.585,0.5795,0.6067,0.636,0.6231,0.6511,0.6936,0.7008,0.698,0.6892,0.6903,0.6793,0.6609,0.6444,0.6549,0.681,0.7031,0.7085,0.7139,0.7139,0.7192,0.7203,0.7307,0.7441,0.7639,0.774,0.7824,0.7967,0.8176,0.8242,0.8331,0.858,0.889,0.9106,0.9263,0.9614,0.994,1.0156,1.064,1.0997,1.1064,1.1158,1.1217,1.1377,1.1469,1.1645,1.1885,1.2086,1.2223,1.2305,1.2305,1.2305,1.2305,1.2305,1.2365,1.2516,1.2516,1.2382,1.2175,1.2175,1.2224,0.0954,0.0,0.0,0.0,0.1747,0.1759,0.165,0.0,0.1693,0.1646,0.0,0.1642,0.1696,0.0,0.0,0.1698,0.1976,0.2197,0.2257,0.2847,0.3385,0.3761,0.2774,0.2354,0.3009,0.2949,0.2606,0.2034,0.238,0.2375,0.1916,0.1808,0.1723,0.1658,0.2153,0.2367,0.2281,0.2804,0.3067,0.3111,0.3155,0.3476,0.4035,0.421,0.4718,0.5503,0.5701,0.5947,0.6178,0.6178,0.6178,0.6123,0.5905,0.5983,0.6307,0.6515,0.6786,0.7215,0.7371,0.7187,0.6884,0.7146,0.7146,0.7009,0.6982,0.7031,0.7085,0.7085,0.7085,0.7139,0.7413,0.7467,0.7578,0.8078,0.8015,0.8015,0.8673,0.8329,0.8183,0.9234,0.9453,0.9159,0.8152,0.8368,0.889,0.9458,0.9917,1.0534,1.1547,1.1422,1.1396,1.173,1.1131,1.0931,1.1619,1.1292,1.1523,1.252,1.2599,1.2816,1.314,1.3158,1.3158,1.3158,1.3158,1.3158,1.3212,1.3212,1.2939,1.2421,1.2421,1.248,0.0,0.0,0.0,0.0,0.0,0.0,0.1733,0.0,0.1752,0.0,0.0,0.0,0.0,0.0,0.0,0.0,0.2446,0.2832,0.3268,0.3465,0.3656,0.3781,0.3619,0.3482,0.3528,0.3402,0.3075,0.2647,0.2898,0.2889,0.2521,0.2438,0.246,0.2605,0.2549,0.2709,0.3055,0.3245,0.3466,0.3734,0.3997,0.4312,0.4635,0.4824,0.5101,0.5439,0.5765,0.5963,0.6053,0.6126,0.6178,0.6178,0.6069,0.6188,0.643,0.6513,0.681,0.7231,0.7511,0.7402,0.7101,0.7188,0.7136,0.7139,0.73,0.7354,0.7354,0.7521,0.7574,0.7609,0.7917,0.7958,0.8134,0.8846,0.8934,0.8996,0.9615,0.9491,0.95,1.0122,1.0263,1.0163,0.9861,1.0225,1.0655,1.0878,1.1288,1.1626,1.1877,1.2096,1.2316,1.2474,1.2272,1.2281,1.2624,1.2448,1.2564,1.3127,1.3296,1.3424,1.3603,1.3612,1.3612,1.3612,1.3612,1.3612,1.373,1.373,1.3594,1.3439,1.2944,1.2707,-0.0168,0.0,0.0,0.0,0.0,0.0,0.0,0.0,0.0,0.0,0.0,0.0,0.0,0.0,0.2393,0.2554,0.0,0.3369,0.3999,0.4177,0.4281,0.4436,0.4656,0.4583,0.3955,0.3931,0.3832,0.3437,0.3674,0.3664,0.3318,0.3323,0.333,0.3456,0.3237,0.338,0.3835,0.3816,0.4001,0.4355,0.4714,0.4893,0.4994,0.5193,0.5287,0.5306,0.567,0.5859,0.592,0.6076,0.623,0.6337,0.6337,0.6517,0.6763,0.6769,0.7026,0.7418,0.7797,0.7747,0.7538,0.7296,0.7246,0.7359,0.7574,0.7628,0.7628,0.7848,0.8057,0.8263,0.846,0.8677,0.9029,0.9655,0.9836,0.9969,1.0574,1.0646,1.0659,1.102,1.1157,1.131,1.1692,1.1898,1.1964,1.2012,1.2327,1.2558,1.2483,1.2787,1.3058,1.3166,1.325,1.3296,1.3296,1.3296,1.3396,1.3672,1.3885,1.4052,1.4117,1.4117,1.4117,1.4117,1.4117,1.4172,1.4282,1.4282,1.427,1.4243,1.3437,1.3027,0.0,0.0,0.0,0.101,0.0,0.0,0.0,0.0,0.1797,0.0,0.0,0.0,0.0,0.2394,0.2607,0.2607,0.3184,0.0,0.0,0.4793,0.5754,0.6263,0.5852,0.5199,0.4191,0.4629,0.4803,0.4394,0.4866,0.4903,0.4391,0.4336,0.4213,0.3869,0.433,0.4491,0.4357,0.4772,0.4941,0.4985,0.4985,0.4985,0.4994,0.5193,0.5287,0.5297,0.5524,0.5727,0.5906,0.5916,0.6192,0.6707,0.6707,0.7005,0.7462,0.7405,0.7522,0.7756,0.8297,0.8318,0.8077,0.7631,0.7681,0.7901,0.7901,0.7901,0.7901,0.7901,0.8457,0.9053,0.9059,0.9658,1.03,1.0506,1.0631,1.0883,1.158,1.1437,1.1347,1.2017,1.2272,1.2512,1.3107,1.2448,1.1919,1.2244,1.2602,1.3092,1.3743,1.3516,1.3442,1.3818,1.3525,1.3296,1.3296,1.3296,1.3516,1.4072,1.4455,1.4737,1.4932,1.4932,1.4932,1.4932,1.4932,1.4932,1.4991,1.4991,1.484,1.4569,1.3844,1.3496,0.0,0.0,0.0056,0.0224,0.0,0.0,0.0,0.0,0.0,0.0,0.0,0.0,0.0,0.2773,0.3078,0.3566,0.4034,0.4432,0.0,0.5686,0.6205,0.6271,0.6087,0.5795,0.5497,0.5444,0.5376,0.5278,0.5529,0.5553,0.5282,0.5135,0.4959,0.4762,0.4663,0.4652,0.4723,0.4653,0.4718,0.499,0.499,0.499,0.499,0.5056,0.5089,0.5098,0.5441,0.575,0.6002,0.6309,0.666,0.6993,0.7141,0.7359,0.7518,0.7651,0.783,0.8078,0.8254,0.8417,0.8422,0.796,0.7848,0.7901,0.7901,0.7901,0.7937,0.8111,0.8386,0.8758,0.9699,1.0168,1.0671,1.1783,1.2069,1.2262,1.2811,1.2796,1.2865,1.3288,1.3441,1.3612,1.3992,1.3788,1.3522,1.337,1.3681,1.3932,1.3901,1.4011,1.4157,1.4286,1.4185,1.4102,1.4102,1.4324,1.4553,1.4811,1.5051,1.5186,1.5245,1.5584,1.573,1.573,1.5959,1.5969,1.573,1.573,1.5507,1.5128,1.4619,1.4199,-0.1289,-0.0785,0.0,-0.0224,0.0224,0.0,0.101,0.0,0.1628,0.0,0.0,0.0,0.0,0.0,0.3411,0.3907,0.4382,0.4946,0.0,0.6174,0.6318,0.6192,0.6239,0.6256,0.632,0.6088,0.6058,0.6245,0.6293,0.6324,0.6258,0.6035,0.5854,0.5674,0.5267,0.5097,0.5157,0.4844,0.4834,0.499,0.499,0.499,0.499,0.5072,0.5116,0.5125,0.548,0.5846,0.6185,0.6486,0.6846,0.7268,0.7566,0.7767,0.7937,0.8077,0.8321,0.8606,0.8448,0.8504,0.8591,0.8069,0.7901,0.7901,0.7901,0.7967,0.8075,0.8243,0.8594,0.9227,1.0345,1.0895,1.1457,1.2777,1.3139,1.3329,1.3631,1.3761,1.3941,1.4139,1.4198,1.4303,1.4638,1.4717,1.4579,1.4167,1.4341,1.4414,1.4139,1.4341,1.4515,1.4515,1.4515,1.4506,1.4556,1.4793,1.497,1.5215,1.5399,1.5585,1.5644,1.6064,1.6299,1.6299,1.6592,1.6592,1.6299,1.6143,1.5996,1.5869,1.5439,1.5176]},{"header":{"parameterUnit":"m.s-1","parameterCategory":1,"la1":30.6,"la2":29.2853,"lo1":-89.7004,"lo2":-87.6739,"dy":0.0162,"dx":0.0183,"nx":112,"ny":82,"refTime":"2024-06-10T18:00:00:Z","depth":0,"parameterNumber":3,"parameterNumberName":"V-component_of_WINDS"},"data":[0.0,0.0,0.0,0.0,0.0,0.0,0.0,0.0,0.0,0.0,0.0,0.0,0.0,0.0,0.0,0.0,0.0,0.0,0.0,0.0,0.0,0.0,0.0,0.0,0.0,0.0,0.0,0.0,0.0,0.0,0.0,0.0,0.0,0.0,0.0,0.0,0.0,0.0,0.0,0.0,0.0,0.0,0.0,0.0,0.0,0.0,0.0,0.0,0.0,0.0,0.0,0.0,0.0,0.0,0.0,0.0,0.0,0.0,0.0,0.0,0.0,0.0,0.0,0.0,0.0,0.0,0.0,0.0,0.0,0.0,0.0,0.0,0.0,0.0,0.0,0.0,0.0,0.0,0.0,0.0,0.0,0.0,0.0,0.0,0.0,0.0,0.0,0.0,0.0,0.0,-1.2109,-1.2896,-1.3188,-1.3756,-1.4946,-1.4956,-1.5842,-1.8135,0.0,0.0,0.0,0.0,0.0,0.0,0.0,0.0,0.0,0.0,0.0,0.0,0.0,0.0,0.0,0.0,0.0,0.0,0.0,0.0,0.0,0.0,0.0,0.0,0.0,0.0,0.0,0.0,0.0,0.0,0.0,0.0,0.0,0.0,0.0,0.0,0.0,0.0,0.0,0.0,0.0,0.0,0.0,0.0,0.0,0.0,0.0,0.0,0.0,0.0,0.0,0.0,0.0,0.0,0.0,0.0,0.0,0.0,0.0,0.0,0.0,0.0,0.0,0.0,0.0,0.0,0.0,0.0,0.0,0.0,0.0,0.0,0.0,0.0,0.0,0.0,0.0,0.0,0.0,0.0,0.0,0.0,0.0,0.0,0.0,0.0,0.0,0.0,0.0,0.0,0.0,0.0,0.0,0.0,0.0,0.0,0.0,0.0,0.0,0.0,0.0,0.0,0.0,0.0,-1.1671,-1.2455,-1.2668,-1.3275,-1.4428,-1.4473,-1.5365,-1.7585,0.0,0.0,0.0,0.0,0.0,0.0,0.0,0.0,0.0,0.0,0.0,0.0,0.0,0.0,0.0,0.0,0.0,0.0,0.0,0.0,0.0,0.0,0.0,0.0,0.0,0.0,0.0,0.0,0.0,0.0,0.0,0.0,0.0,0.0,0.0,0.0,0.0,0.0,0.0,0.0,0.0,0.0,0.0,0.0,0.0,0.0,0.0,0.0,0.0,0.0,0.0,0.0,0.0,0.0,0.0,0.0,0.0,0.0,0.0,0.0,0.0,0.0,0.0,0.0,0.0,0.0,0.0,0.0,0.0,0.0,0.0,0.0,0.0,0.0,0.0,0.0,0.0,0.0,0.0,0.0,0.0,0.0,0.0,0.0,0.0,0.0,0.0,0.0,0.0,0.0,0.0,0.0,0.0,0.0,0.0,0.0,0.0,0.0,0.0,0.0,0.0,0.0,0.0,-1.0399,-1.1036,-1.1591,-1.2011,-1.2846,-1.4204,-1.4052,-1.4948,-1.745,-1.8361,0.0,0.0,0.0,0.0,0.0,0.0,0.0,0.0,0.0,0.0,0.0,0.0,0.0,0.0,0.0,0.0,0.0,0.0,0.0,0.0,0.0,0.0,0.0,0.0,0.0,0.0,0.0,0.0,0.0,0.0,0.0,0.0,0.0,0.0,0.0,0.0,0.0,0.0,0.0,0.0,0.0,0.0,0.0,0.0,0.0,0.0,0.0,0.0,0.0,0.0,0.0,0.0,0.0,0.0,0.0,0.0,0.0,0.0,0.0,0.0,0.0,0.0,0.0,0.0,0.0,0.0,0.0,0.0,0.0,0.0,0.0,0.0,0.0,0.0,0.0,0.0,0.0,0.0,0.0,0.0,0.0,0.0,0.0,0.0,0.0,0.0,0.0,0.0,0.0,0.0,0.0,0.0,0.0,0.0,0.0,0.0,0.0,0.0,0.0,0.0,0.0,0.0,-0.9573,-1.0206,-1.0901,-1.1391,-1.2287,-1.393,-1.371,-1.4607,-1.7246,-1.7784,0.0,0.0,0.0,0.0,0.0,0.0,0.0,0.0,0.0,0.0,0.0,0.0,0.0,0.0,0.0,0.0,0.0,0.0,0.0,0.0,0.0,0.0,0.0,0.0,0.0,0.0,0.0,0.0,0.0,0.0,0.0,0.0,0.0,0.0,0.0,0.0,0.0,0.0,0.0,0.0,0.0,0.0,0.0,0.0,0.0,0.0,0.0,0.0,0.0,0.0,0.0,0.0,0.0,0.0,0.0,0.0,0.0,0.0,0.0,0.0,0.0,0.0,0.0,0.0,0.0,0.0,0.0,0.0,0.0,0.0,0.0,0.0,0.0,0.0,0.0,0.0,0.0,0.0,0.0,0.0,0.0,0.0,0.0,0.0,0.0,0.0,0.0,0.0,0.0,0.0,0.0,0.0,0.0,0.0,0.0,0.0,0.0,0.0,0.0,0.0,0.0,0.0,-0.8873,-0.915,-1.0732,-1.0947,-1.1696,-1.3501,-1.3382,-1.4286,-1.6689,-1.7411,0.0,0.0,0.0,0.0,0.0,0.0,0.0,0.0,0.0,0.0,0.0,0.0,0.0,0.0,0.0,0.0,0.0,0.0,0.0,0.0,0.0,0.0,0.0,0.0,0.0,0.0,0.0,0.0,0.0,0.0,0.0,0.0,0.0,0.0,0.0,0.0,0.0,0.0,0.0,0.0,0.0,0.0,0.0,0.0,0.0,0.0,0.0,0.0,0.0,0.0,0.0,0.0,0.0,0.0,0.0,0.0,0.0,0.0,0.0,0.0,0.0,0.0,0.0,0.0,0.0,0.0,0.0,0.0,0.0,0.0,0.0,0.0,0.0,0.0,0.0,0.0,0.0,0.0,0.0,0.0,0.0,0.0,0.0,0.0,0.0,0.0,0.0,0.0,0.0,0.0,0.0,0.0,0.0,0.0,0.0,0.0,0.0,0.0,0.0,0.0,0.0,0.0,-0.8736,-0.8991,-1.0203,-1.0413,-1.1217,-1.3084,-1.3112,-1.4054,-1.6378,0.0,0.0,0.0,0.0,0.0,0.0,0.0,0.0,0.0,0.0,0.0,0.0,0.0,0.0,0.0,0.0,0.0,0.0,0.0,0.0,0.0,0.0,0.0,0.0,0.0,0.0,0.0,0.0,0.0,0.0,0.0,0.0,0.0,0.0,0.0,0.0,0.0,0.0,0.0,0.0,0.0,0.0,0.0,0.0,0.0,0.0,0.0,0.0,0.0,0.0,0.0,0.0,0.0,0.0,0.0,0.0,0.0,0.0,0.0,0.0,0.0,0.0,0.0,0.0,0.0,0.0,0.0,0.0,0.0,0.0,0.0,0.0,0.0,0.0,0.0,0.0,0.0,0.0,0.0,0.0,0.0,0.0,0.0,0.0,0.0,0.0,0.0,0.0,0.0,0.0,0.0,0.0,0.0,0.0,0.0,0.0,0.0,0.0,0.0,0.0,0.0,0.0,-0.8626,-0.8474,-0.8725,-0.9858,-1.0064,-1.0914,-1.2861,-1.2929,-1.3841,-1.6046,0.0,0.0,0.0,0.0,0.0,0.0,0.0,0.0,0.0,0.0,0.0,0.0,0.0,0.0,0.0,0.0,0.0,0.0,0.0,0.0,0.0,0.0,0.0,0.0,0.0,0.0,0.0,0.0,0.0,0.0,0.0,0.0,0.0,0.0,0.0,0.0,0.0,0.0,0.0,0.0,0.0,0.0,0.0,0.0,0.0,0.0,0.0,0.0,0.0,0.0,0.0,0.0,0.0,0.0,0.0,0.0,0.0,0.0,0.0,0.0,0.0,0.0,0.0,0.0,0.0,0.0,0.0,0.0,0.0,0.0,0.0,0.0,0.0,0.0,0.0,0.0,0.0,0.0,0.0,0.0,0.0,0.0,0.0,0.0,0.0,0.0,0.0,0.0,0.0,0.0,0.0,0.0,0.0,0.0,0.0,0.0,0.0,0.0,0.0,0.0,0.0,0.0,-0.8429,-0.7937,-0.8143,-0.9806,-1.0012,-1.0813,-1.2812,-1.2803,-1.36,0.0,0.0,0.0,0.0,0.0,0.0,0.0,0.0,0.0,0.0,0.0,0.0,0.0,0.0,0.0,0.0,0.0,0.0,0.0,0.0,0.0,0.0,0.0,0.0,0.0,0.0,0.0,0.0,0.0,0.0,0.0,0.0,0.0,0.0,0.0,0.0,0.0,0.0,0.0,0.0,0.0,0.0,0.0,0.0,0.0,0.0,0.0,0.0,0.0,0.0,0.0,0.0,0.0,0.0,0.0,0.0,0.0,0.0,0.0,0.0,0.0,0.0,0.0,0.0,0.0,0.0,0.0,0.0,0.0,0.0,0.0,0.0,0.0,0.0,0.0,0.0,0.0,0.0,0.0,0.0,0.0,0.0,0.0,0.0,0.0,0.0,0.0,0.0,0.0,0.0,0.0,0.0,0.0,0.0,0.0,0.0,0.0,0.0,0.0,0.0,0.0,0.0,0.0,-0.7922,-0.7992,-0.8421,-0.9607,-0.9814,-1.0474,-1.2107,-1.2421,-1.3256,-1.4937,0.0,0.0,0.0,0.0,0.0,0.0,0.0,0.0,0.0,0.0,0.0,0.0,0.0,0.0,0.0,0.0,0.0,0.0,0.0,0.0,0.0,0.0,0.0,0.0,0.0,0.0,0.0,0.0,0.0,0.0,0.0,0.0,0.0,0.0,0.0,0.0,0.0,0.0,0.0,0.0,0.0,0.0,0.0,0.0,0.0,0.0,0.0,0.0,0.0,0.0,0.0,0.0,0.0,0.0,0.0,0.0,0.0,0.0,0.0,0.0,0.0,0.0,0.0,0.0,0.0,0.0,0.0,0.0,0.0,0.0,0.0,0.0,0.0,0.0,0.0,0.0,0.0,0.0,0.0,0.0,0.0,0.0,0.0,0.0,0.0,0.0,0.0,0.0,0.0,0.0,0.0,0.0,0.0,0.0,0.0,0.0,0.0,0.0,0.0,0.0,0.0,0.0,-0.7715,-0.7949,-0.848,-0.951,-0.9658,-1.0379,-1.2017,-1.2382,-1.3122,-1.4527,0.0,0.0,0.0,0.0,0.0,0.0,0.0,0.0,0.0,0.0,0.0,0.0,0.0,0.0,0.0,0.0,0.0,0.0,0.0,0.0,0.0,0.0,0.0,0.0,0.0,0.0,0.0,0.0,0.0,0.0,0.0,0.0,0.0,0.0,0.0,0.0,0.0,0.0,0.0,0.0,0.0,0.0,0.0,0.0,0.0,0.0,0.0,0.0,0.0,0.0,0.0,0.0,0.0,0.0,0.0,0.0,0.0,0.0,0.0,0.0,0.0,0.0,0.0,0.0,0.0,0.0,0.0,0.0,0.0,0.0,0.0,0.0,0.0,0.0,0.0,0.0,0.0,0.0,0.0,0.0,0.0,0.0,0.0,0.0,0.0,0.0,0.0,0.0,0.0,0.0,0.0,0.0,0.0,0.0,0.0,0.0,0.0,0.0,0.0,0.0,0.0,0.0,-0.7708,-0.7844,-0.8315,-0.9458,-0.9614,-1.0379,-1.2274,-1.248,-1.3035,-1.4365,0.0,0.0,0.0,0.0,0.0,0.0,0.0,0.0,0.0,0.0,0.0,0.0,0.0,0.0,0.0,0.0,0.0,0.0,0.0,0.0,0.0,0.0,0.0,0.0,0.0,0.0,0.0,0.0,0.0,0.0,0.0,0.0,0.0,0.0,0.0,0.0,0.0,0.0,0.0,0.0,0.0,0.0,0.0,0.0,0.0,0.0,0.0,0.0,0.0,0.0,0.0,0.0,0.0,0.0,0.0,0.0,0.0,0.0,0.0,0.0,0.1312,0.0901,0.0,0.0,0.0,0.0,0.0,0.0,0.0,0.0,0.0,0.0,0.0,0.0,0.0,0.0,0.0,0.0,0.0,0.0,0.0,0.0,0.0,0.0,0.0,0.0,0.0,0.0,0.0,0.0,0.0,0.0,0.0,0.0,0.0,0.0,0.0,0.0,0.0,0.0,0.0,0.0,-0.7621,-0.7786,-0.8315,-0.9458,-0.9614,-1.0277,-1.1877,-1.2323,-1.289,-1.3909,-1.4566,0.0,0.0,0.0,0.0,0.0,0.0,0.0,0.0,0.0,0.0,0.0,0.0,0.0,0.0,0.0,0.0,0.0,0.0,0.0,0.0,0.0,0.0,0.0,0.0,0.0,0.0,0.0,0.0,0.0,0.0,0.0,0.0,0.0,0.0,0.0,0.0,0.0,0.0,0.0,0.0,0.0,0.0,0.0,0.0,0.0,0.0,0.0,0.0,0.0,0.0,0.0,0.0,0.0,0.0,0.0,0.0,0.0,0.0,0.0,0.1419,0.1046,0.0,0.0,0.0,0.0,0.0,0.0,0.0,0.0,0.0,0.0,0.0,0.0,0.0,0.0,0.0,0.0,0.0,0.0,0.0,0.0,0.0,0.0,0.0,0.0,0.0,0.0,0.0,0.0,0.0,0.0,0.0,0.0,0.0,0.0,0.0,0.0,0.0,0.0,0.0,0.0,-0.7425,-0.7675,-0.8256,-0.9406,-0.9562,-1.0277,-1.2026,-1.2382,-1.2852,-1.3647,-1.4038,0.0,0.0,0.0,0.0,0.0,0.0,0.0,0.0,0.0,0.0,0.0,0.0,0.0,0.0,0.0,0.0,0.0,0.0,0.0,0.0,0.0,0.0,0.0,0.0,0.0,0.0,0.0,0.0,0.0,0.0,0.0,0.0,0.0,0.0,0.0,0.0,0.0,0.0,0.0,0.0,0.0,0.0,0.0,0.0,0.0,0.0,0.0,0.0,0.0,0.0,0.0,0.0,0.0,0.272,0.2345,0.1763,0.1932,0.209,0.2179,0.1468,0.1257,0.123,0.0378,0.0,0.0,0.0,0.0,0.0,0.0,0.0,0.0,0.0,0.0,0.0,0.0,0.0,0.0,0.0,0.0,0.0,0.0,0.0,0.0,0.0,0.0,0.0,0.0,0.0604,0.064,0.0207,0.0,0.0,0.0,0.0,0.0,0.0,0.0,0.0,0.0,0.0,0.0,-0.7195,-0.7489,-0.809,-0.9197,-0.9406,-1.0226,-1.2067,-1.2372,-1.2696,-1.3372,-1.357,-1.3454,0.0,0.0,0.0,0.0,0.0,0.0,0.0,0.0,0.0,0.0,0.0,0.0,0.0,0.0,0.0,0.0,0.0,0.0,0.0,0.0,0.0,0.0,0.0,0.0,0.0,0.0,0.0,0.0,0.0,0.0,0.0,0.0,0.7376,0.7218,0.0,0.0,0.0,0.0,0.0,0.0,0.0,0.0,0.0,0.0,0.0,0.0,0.0,0.3781,0.3887,0.3843,0.3832,0.3919,0.3887,0.3768,0.3522,0.336,0.3141,0.2907,0.2284,0.0,0.2011,0.1296,0.0,0.0,0.0,0.0,0.0,0.0,0.0,0.0,0.0,0.0,0.0,0.0,0.0,0.0,0.0,0.0,0.0,0.0,0.0,0.0,0.0,0.0,0.1503,0.0952,0.0838,0.0835,0.0,0.0106,-0.0508,-0.0942,-0.174,-0.2474,0.0,0.0,0.0,0.0,0.0,0.0,-0.6679,-0.7171,-0.7937,-0.8928,-0.9086,-0.9651,-1.1108,-1.1733,-1.2218,-1.256,-1.3632,-1.4196,-1.3992,-1.3658,0.0,0.0,0.0,0.0,0.0,0.0,0.0,0.0,0.0,0.0,0.0,0.0,0.0,0.0,0.0,0.0,0.0,0.0,0.0,0.0,0.0,0.0,0.0,0.0,0.0,0.0,0.0,0.0,0.0,0.7369,0.7731,0.7617,0.7078,0.6524,0.0,0.0,0.0,0.0,0.0,0.0,0.0,0.0,0.0,0.3852,0.3854,0.3879,0.3872,0.4004,0.4031,0.4015,0.4085,0.4018,0.3833,0.3537,0.3394,0.3357,0.2519,0.2296,0.2408,0.149,0.1317,0.148,0.0,0.0,0.0,0.0,0.0482,0.0643,0.075,0.0965,0.1123,0.0995,0.0,0.0,0.0,0.0,0.0,0.0,0.0,0.0962,0.0,0.0,0.112,0.0953,0.0898,0.0898,0.0842,0.0602,0.016,-0.0532,-0.105,-0.1659,-0.2528,-0.3299,0.0,0.0,0.0,-0.628,-0.6445,-0.7031,-0.7783,-0.8771,-0.8981,-0.9547,-1.0905,-1.1601,-1.2089,-1.2365,-1.3256,-1.3695,-1.3647,-1.3766,-1.3806,0.0,0.0,0.0,0.0,0.0,0.0,0.0,0.0,0.0,0.0,0.0,0.0,0.0,0.0,0.0,0.0,0.0,0.0,0.0,0.0,0.0,0.0,0.0,0.0,0.0,0.0,0.0,0.0,0.7671,0.7973,0.7907,0.758,0.7067,0.0,0.0,0.0,0.0,0.0,0.0,0.45,0.4524,0.4368,0.4028,0.4056,0.4072,0.4072,0.4162,0.4148,0.4028,0.4121,0.4037,0.38,0.3564,0.3505,0.3626,0.2719,0.2495,0.2665,0.1689,0.1459,0.1741,0.1178,0.1234,0.1628,0.1347,0.1347,0.1459,0.1572,0.1629,0.1621,0.1471,0.1404,0.129,0.0994,0.0,0.0,0.0,0.0,0.0706,0.0724,0.0729,0.0785,0.0898,0.0898,0.0898,0.0898,0.0898,0.0613,0.0,-0.0593,-0.1176,-0.2134,-0.2892,0.0,-0.4326,-0.5133,-0.5765,-0.6067,-0.6647,-0.7408,-0.8408,-0.8725,-0.9295,-1.0387,-1.115,-1.1701,-1.207,-1.2667,-1.3074,-1.318,-1.3647,-1.3818,-1.3502,0.0,0.0,0.0,0.0,0.0,0.0,0.0,0.0,0.0,0.0,0.0,0.0,0.0,0.0,0.0,0.0,0.0,0.0,0.0,0.0,0.0,0.0,0.0,0.0,0.0,0.0,0.0,0.0,0.0,0.7931,0.783,0.0,0.0,0.0,0.0,0.5472,0.5005,0.4712,0.4658,0.4355,0.4162,0.4278,0.4387,0.4444,0.4444,0.445,0.4395,0.4281,0.4287,0.4162,0.3864,0.3864,0.386,0.3743,0.3045,0.2811,0.2805,0.2102,0.1797,0.1741,0.129,0.1403,0.1741,0.129,0.1403,0.1797,0.1797,0.1797,0.1797,0.1793,0.168,0.1512,0.1173,0.106,0.0,0.0,0.0895,0.0896,0.0897,0.0898,0.0898,0.0898,0.0898,0.0898,0.0898,0.0785,0.0617,0.0,-0.0502,-0.1394,-0.1782,0.0,-0.3724,-0.3683,-0.4291,-0.4893,-0.5277,-0.5878,-0.6642,-0.767,-0.815,-0.8633,-0.9061,-1.0072,-1.083,-1.125,-1.1972,-1.2628,-1.3085,-1.319,-1.3484,-1.3935,-1.3544,0.0,0.0,0.0,0.0,0.0,0.0,0.0,0.0,0.0,0.0,0.0,0.0,0.0,0.0,0.0,0.0,0.0,0.0,0.0,0.0,0.0,0.0,0.0,0.0,0.0,0.0,0.0,0.0,0.8915,0.8416,0.0,0.7453,0.6918,0.6487,0.6366,0.6297,0.6224,0.6022,0.5997,0.5691,0.5148,0.5197,0.4968,0.4538,0.4469,0.4414,0.43,0.4221,0.4137,0.405,0.391,0.3912,0.3871,0.3805,0.3644,0.3457,0.336,0.2681,0.1801,0.1665,0.1714,0.1797,0.1628,0.1629,0.1797,0.1797,0.1797,0.1797,0.1685,0.1572,0.1347,0.1178,0.1122,0.1066,0.0954,0.0898,0.0898,0.0898,0.0898,0.0898,0.0898,0.0898,0.0898,0.0898,0.0842,0.0785,0.0617,0.0168,-0.0504,-0.151,-0.2068,-0.2683,-0.3471,-0.4135,-0.4736,-0.5226,-0.5823,-0.6588,-0.7616,-0.8103,-0.8586,-0.8956,-0.9932,-1.0541,-1.0702,-1.1292,-1.19,-1.2421,-1.2501,-1.2842,-1.3392,-1.3303,-1.2679,0.0,0.0,0.0,0.0,0.0,0.0,0.0,0.0,0.0,0.0,0.0,0.0,0.0,0.0,0.0,0.0,0.0,0.0,0.0,0.0,0.0,0.0,0.0,0.0,0.0,0.9379,0.9486,0.9266,0.8804,0.8296,0.7935,0.7502,0.7183,0.7059,0.7126,0.7037,0.6835,0.6871,0.6627,0.6013,0.5995,0.5801,0.5228,0.4971,0.4885,0.4962,0.4432,0.4221,0.4365,0.4094,0.4055,0.4241,0.43,0.4311,0.4177,0.4215,0.3595,0.2546,0.2485,0.2453,0.241,0.241,0.241,0.241,0.241,0.241,0.2408,0.224,0.2127,0.2015,0.1569,0.1457,0.1401,0.1065,0.0954,0.0898,0.0898,0.0898,0.0898,0.0898,0.0898,0.0898,0.0898,0.0898,0.0898,0.0785,0.0448,-0.0168,-0.1286,-0.1733,-0.2291,-0.3357,-0.3913,-0.446,-0.5222,-0.566,-0.6312,-0.7402,-0.7889,-0.8315,-0.8745,-0.9472,-1.0035,-1.0403,-1.0753,-1.1209,-1.1769,-1.2017,-1.2363,-1.2725,-1.2711,-1.2318,-1.1581,0.0,0.0,0.0,0.0,0.0,0.0,0.0,0.0,0.0,0.0,0.0,0.0,0.0,0.0,0.0,0.0,0.0,0.0,0.0,0.0,0.0,0.0,0.0,0.8864,0.9438,0.9633,0.8847,0.8906,0.8792,0.8172,0.8047,0.7852,0.7521,0.7189,0.7031,0.7039,0.6877,0.6763,0.6767,0.6855,0.6859,0.6689,0.6016,0.5792,0.6192,0.4959,0.4563,0.4941,0.4374,0.4437,0.4941,0.4626,0.4686,0.5011,0.4686,0.4391,0.4143,0.3729,0.3635,0.3633,0.3627,0.3624,0.3624,0.3624,0.3624,0.3569,0.34,0.3456,0.3403,0.2516,0.2238,0.2073,0.1345,0.1066,0.0954,0.0954,0.0898,0.0898,0.0898,0.0898,0.0898,0.0898,0.0898,0.0898,0.0898,0.0336,-0.0391,-0.1118,-0.1955,-0.2681,-0.3299,-0.3527,0.0,-0.5117,-0.5277,-0.5769,-0.6918,-0.7456,-0.7883,-0.8315,-0.8745,-0.9368,-1.03,-1.0352,-1.06,-1.115,-1.1719,-1.2076,-1.2076,-1.1803,-1.1733,-1.1854,0.0,0.0,0.0,0.0,0.0,0.0,0.0,0.0,0.0,0.0,0.0,0.0,0.0,0.0,0.0,0.0,0.0,0.0,0.0,0.0,0.0,1.1153,1.1335,1.076,1.0806,1.0753,1.0411,0.9876,0.9366,0.8792,0.827,0.7987,0.7857,0.7659,0.7637,0.778,0.7888,0.7794,0.7475,0.7528,0.7311,0.6689,0.6382,0.622,0.6192,0.5698,0.5536,0.5621,0.5494,0.5491,0.5621,0.5944,0.5936,0.5828,0.5998,0.5888,0.5438,0.4276,0.3781,0.3751,0.3658,0.3624,0.3624,0.3624,0.3624,0.3569,0.3514,0.3569,0.3514,0.3123,0.3012,0.2903,0.2516,0.2069,0.168,0.1568,0.1232,0.0898,0.0898,0.0898,0.0898,0.0898,0.0898,0.0898,0.0898,0.0729,0.0336,-0.0391,-0.1117,-0.1899,-0.2625,-0.3244,0.0,-0.4625,-0.5062,-0.5605,-0.6372,-0.7182,-0.7777,-0.7883,-0.858,-0.9113,-0.9368,-0.9673,-1.0079,-1.06,-1.0753,-1.1057,-1.146,-1.1563,-1.1478,0.0,0.0,0.0,0.0,0.0,0.0,0.0,0.0,0.0,0.0,0.0,0.0,0.0,0.0,0.0,0.0,0.0,0.0,0.0,0.0,0.0,0.0,1.1804,1.1898,1.171,1.1598,1.1402,1.1024,1.0604,1.0028,0.9396,0.9011,0.856,0.8052,0.8078,0.8096,0.807,0.8363,0.843,0.8161,0.8165,0.7956,0.7543,0.6997,0.682,0.699,0.6269,0.602,0.6218,0.602,0.602,0.6284,0.6544,0.6677,0.6574,0.6711,0.6641,0.0,0.0,0.0,0.0,0.0,0.4294,0.4294,0.4294,0.4294,0.4294,0.4294,0.4294,0.4239,0.3901,0.3735,0.3566,0.3181,0.2738,0.2348,0.2293,0.179,0.1344,0.1567,0.1288,0.0953,0.1232,0.1065,0.0898,0.0898,0.0898,0.0,0.0336,-0.0335,-0.1174,-0.2235,-0.2796,-0.3463,-0.4408,-0.4791,-0.5281,-0.61,-0.675,-0.7235,-0.767,-0.815,0.0,0.0,0.0,-0.9673,-1.0352,-1.0403,0.0,0.0,0.0,0.0,0.0,0.0,0.0,0.0,-1.1268,-1.136,0.0,0.0,0.0,0.0,0.0,0.0,0.0,0.0,0.0,0.0,0.0,0.0,0.0,0.0,0.0,0.0,1.238,1.2027,1.2075,1.1981,1.1677,1.117,1.1115,1.0793,0.9964,0.9837,0.9338,0.8213,0.8412,0.8448,0.8184,0.8486,0.0,0.0,0.0,0.8703,0.8703,0.7852,0.7655,0.8075,0.6718,0.6346,0.6806,0.628,0.6346,0.6806,0.6806,0.6937,0.7199,0.7007,0.685,0.663,0.5887,0.5616,0.5563,0.5353,0.5297,0.5297,0.5297,0.0,0.0,0.5297,0.5297,0.5187,0.4739,0.446,0.4233,0.3677,0.3292,0.3016,0.3016,0.246,0.2068,0.2569,0.1902,0.1232,0.179,0.14,0.1009,0.1009,0.0953,0.0898,0.0898,0.028,-0.0614,-0.1902,-0.2291,-0.2903,-0.4184,-0.4405,-0.4842,-0.5878,0.0,0.0,-0.7456,-0.7616,-0.8043,-0.8798,-0.8956,-0.9368,-1.0198,-1.03,-1.0549,-1.0998,-1.1108,-1.1108,-1.1108,-1.115,-1.1108,-1.0905,-1.1287,-1.1333,0.0,0.0,0.0,0.0,0.0,0.0,0.0,0.0,0.0,0.0,0.0,0.0,0.0,0.0,0.0,1.3381,1.2837,1.2352,1.2477,1.2458,1.2243,1.174,1.1677,1.124,1.0301,0.997,0.9608,0.9169,0.8774,0.8659,0.8829,0.8716,0.8703,0.8703,0.8703,0.8703,0.8703,0.8215,0.8009,0.8075,0.0,0.0,0.7326,0.7265,0.726,0.7326,0.7326,0.7391,0.7456,0.7199,0.6885,0.6411,0.5996,0.5773,0.5559,0.5364,0.5297,0.5297,0.5297,0.5297,0.5297,0.5297,0.5297,0.5297,0.5187,0.5132,0.0,0.4794,0.4346,0.3901,0.3685,0.3183,0.2683,0.2681,0.2514,0.2402,0.2514,0.2068,0.1623,0.1623,0.1232,0.0898,0.0898,0.028,-0.0447,-0.1174,-0.1846,-0.2517,-0.3297,-0.379,-0.4229,-0.4563,-0.5437,-0.6145,-0.648,-0.7235,-0.7777,-0.7937,-0.8633,-0.9061,-0.9271,-0.9569,-0.9821,-0.9925,-1.0344,-1.0549,-1.0549,-1.1006,-1.1108,-1.0922,-1.0972,-1.0997,0.0,0.0,0.0,0.0,0.0,0.0,0.0,0.0,0.0,0.0,0.0,1.4468,1.508,0.0,1.4294,1.4763,1.3839,1.3093,1.3166,1.285,1.2498,1.2243,1.2182,1.1872,1.1115,1.0919,1.0655,1.029,0.9822,0.952,0.9467,0.919,0.8937,0.8703,0.8703,0.8656,0.8552,0.824,0.8028,0.7924,0.7674,0.7521,0.7521,0.7521,0.7521,0.7521,0.7521,0.7521,0.7451,0.7159,0.6818,0.6478,0.6142,0.5813,0.5567,0.5352,0.5297,0.5297,0.5297,0.5297,0.5297,0.5297,0.5297,0.5297,0.5297,0.5297,0.5297,0.5242,0.4959,0.4625,0.446,0.3959,0.3511,0.3735,0.3292,0.2903,0.3183,0.2736,0.2179,0.1846,0.1568,0.1232,0.0953,0.0616,0.0112,-0.0559,-0.1229,-0.1902,-0.2573,-0.3183,-0.368,-0.4064,-0.4666,-0.5269,-0.5823,-0.6745,-0.7343,-0.7503,-0.809,-0.8527,-0.8692,-0.889,-0.9099,-0.9309,-0.9577,-0.9777,-0.9984,-1.0285,-1.0336,-1.0241,-1.0241,-1.0506,0.0,0.0,0.0,0.0,0.0,0.0,0.0,1.4878,1.5,1.5211,1.534,1.569,1.6395,1.5773,1.5419,1.6022,1.4961,1.4036,1.3897,1.3252,1.2797,1.2805,1.2683,1.2375,1.1864,1.1802,1.1621,1.1211,1.0792,1.042,1.0182,0.9748,0.9425,0.916,0.9045,0.8891,0.8836,0.8568,0.8349,0.8175,0.8017,0.7907,0.7907,0.7907,0.7907,0.7907,0.7802,0.7782,0.7762,0.7366,0.7091,0.688,0.6591,0.6286,0.5946,0.5572,0.5407,0.5352,0.5462,0.5407,0.5297,0.5458,0.5407,0.5297,0.5297,0.5297,0.5297,0.5297,0.5242,0.5128,0.5124,0.4677,0.4343,0.4787,0.4067,0.3405,0.3904,0.3458,0.279,0.2291,0.2069,0.1846,0.1344,0.1232,0.0952,0.0,-0.0559,-0.1119,-0.1846,-0.246,-0.3072,-0.3566,-0.3843,-0.4391,-0.5492,-0.6253,-0.6799,-0.7069,-0.7498,-0.7877,-0.8156,-0.8262,-0.8474,-0.8903,-0.8903,-0.9054,-0.9354,-0.9354,-0.9354,-0.9354,-0.9354,-0.988,1.7951,1.7262,1.6683,1.6545,1.6308,1.6065,0.0,1.5853,1.5667,1.5724,1.6047,1.6395,1.6503,1.6518,1.6481,1.6124,1.5693,1.5219,1.4656,1.4016,1.3545,1.339,1.292,1.2375,1.1864,1.1802,1.1684,1.1414,1.1002,1.0881,1.1024,1.0584,1.0367,1.0671,1.0166,1.0078,1.0347,0.9857,0.9594,0.9565,0.9379,0.9262,0.9262,0.9262,0.9262,0.925,0.8953,0.8854,0.8836,0.852,0.8265,0.7977,0.783,0.7665,0.7348,0.6168,0.5681,0.5622,0.6109,0.5841,0.5407,0.5941,0.5727,0.5297,0.5297,0.5297,0.5297,0.5297,0.5297,0.5242,0.5128,0.5014,0.4959,0.4901,0.4787,0.4677,0.4787,0.4288,0.3788,0.3627,0.3128,0.2738,0.2514,0.2514,0.1899,0.0224,-0.0056,-0.0336,-0.095,-0.1566,-0.2014,-0.2181,-0.3183,-0.4288,-0.5492,-0.571,-0.5928,-0.6317,-0.6745,-0.7122,-0.7396,-0.7765,-0.809,-0.8474,-0.848,-0.8474,-0.8527,-0.8527,-0.8527,-0.8527,-0.8527,-0.9106,1.8535,1.8094,1.776,1.7475,1.7102,1.6765,1.6595,1.6479,1.6479,1.6681,1.6841,1.7028,1.7362,1.7497,1.7435,1.7233,1.6644,1.6097,1.5851,1.4837,1.4154,1.4103,1.3511,1.2911,1.2305,1.2251,1.232,1.2402,1.1898,1.1633,1.173,1.1204,1.0842,1.0746,1.0432,1.0284,1.0311,0.9946,0.976,0.961,0.9566,0.9518,0.9518,0.9518,0.937,0.9208,0.8884,0.8771,0.8753,0.8491,0.8318,0.8205,0.799,0.7919,0.7717,0.702,0.675,0.6745,0.6961,0.6853,0.6637,0.6848,0.6745,0.6485,0.6485,0.6431,0.6327,0.6327,0.6327,0.6327,0.6268,0.6268,0.6268,0.6209,0.5832,0.5614,0.5987,0.5273,0.4508,0.445,0.3953,0.34,0.2905,0.2794,0.2514,0.1677,0.0951,0.028,-0.028,-0.0895,-0.1454,-0.1846,-0.2905,-0.3796,-0.4291,-0.4512,-0.4842,-0.5171,-0.5609,-0.6046,-0.6524,-0.6961,-0.745,-0.799,-0.7996,-0.8103,-0.8421,-0.8421,-0.8421,-0.8421,-0.8421,-0.8633,1.8936,1.8655,1.8539,1.8214,1.7774,1.7352,1.7131,1.7055,1.706,1.73,1.739,1.7566,1.8031,1.8159,1.8176,1.8043,1.7414,1.6866,1.6673,1.5605,1.4862,1.4924,1.4324,1.3787,1.3305,1.2862,1.2733,1.2925,1.2544,1.2258,1.2226,1.1769,1.1397,1.1208,1.1007,1.0829,1.0758,1.049,1.0283,1.0155,1.0091,1.0091,1.0091,1.0014,0.9799,0.9589,0.9168,0.9016,0.8997,0.8719,0.8606,0.858,0.8432,0.8343,0.8349,0.8131,0.7865,0.7605,0.7765,0.7652,0.7545,0.7711,0.7551,0.7343,0.7283,0.7235,0.7139,0.7133,0.7085,0.7085,0.7085,0.7085,0.7085,0.7085,0.6707,0.6436,0.6858,0.6204,0.5496,0.5483,0.5101,0.4608,0.4006,0.3788,0.3622,0.3342,0.2395,0.1451,0.0616,-0.0168,-0.0951,-0.1734,-0.2517,-0.3077,-0.3357,-0.3691,-0.3965,-0.4353,-0.4629,-0.5011,-0.5546,-0.6046,-0.6588,-0.723,-0.7343,-0.7616,-0.8049,-0.8049,-0.8049,-0.8049,-0.8049,-0.8049,1.9332,1.8997,1.8855,1.8769,1.8383,1.7948,1.7787,1.7476,1.7165,1.719,1.7678,1.8068,1.8091,1.8457,1.8645,1.8141,1.7877,1.7535,1.6903,1.6104,1.5713,1.5986,1.5477,1.5038,1.5047,1.3549,1.2629,1.2637,1.2575,1.2583,1.2591,1.2398,1.2422,1.2698,1.2264,1.2178,1.2417,1.1981,1.1755,1.174,1.1622,1.156,1.1545,1.117,1.1025,1.0974,1.0341,1.0057,1.0035,0.9708,0.9577,0.9577,0.9562,0.9562,0.9562,0.9562,0.8771,0.7777,0.8362,0.8084,0.7599,0.8203,0.7984,0.7492,0.7337,0.7289,0.7289,0.7133,0.7085,0.7085,0.7085,0.7085,0.7085,0.7085,0.7085,0.7085,0.7085,0.7085,0.6972,0.6853,0.6799,0.6745,0.6529,0.6046,0.5496,0.4937,0.4278,0.3398,0.1956,0.0728,-0.0504,-0.1679,-0.1846,-0.2293,-0.3302,-0.3413,-0.358,-0.3965,-0.4024,-0.4187,-0.4515,-0.4959,-0.5445,-0.6032,-0.648,-0.6869,-0.7139,-0.7139,-0.7139,-0.7139,-0.7139,-0.7139,1.966,1.9457,1.9369,1.9049,1.8745,1.85,1.8461,1.8004,1.7721,1.8104,1.7816,1.7747,1.8512,1.8734,1.9014,1.9577,1.8954,1.8404,1.8572,1.7504,1.6791,1.6886,1.6493,1.6235,1.6235,1.504,1.4145,1.389,1.345,1.3216,1.3216,1.2736,1.2553,1.2672,1.2367,1.2298,1.2351,1.2119,1.1996,1.1996,1.1707,1.1473,1.1398,1.0805,1.0497,1.0404,0.9965,0.9775,0.9768,0.9658,0.9614,0.9614,0.9984,1.0138,1.019,1.0541,1.0379,0.9961,0.9451,0.9086,0.8922,0.9145,0.8988,0.8771,0.8718,0.862,0.8573,0.8521,0.8468,0.8468,0.8368,0.8368,0.8315,0.8268,0.7937,0.7723,0.8156,0.7622,0.7187,0.7498,0.7289,0.6972,0.6804,0.6637,0.6145,0.5046,0.4055,0.3176,0.2625,0.1451,0.0558,0.0056,-0.0726,-0.1509,-0.2293,-0.235,-0.2573,-0.3079,-0.3413,-0.3744,-0.4018,-0.446,-0.4901,-0.5277,-0.5445,-0.5605,-0.5764,-0.5764,-0.5823,-0.5882,-0.5882,-0.5882,2.0364,2.0154,1.9945,1.9696,1.9295,1.8921,1.8921,1.85,1.8138,1.8563,1.8166,1.8029,1.8969,1.8958,1.9223,2.0372,1.9681,1.9194,1.9773,1.8983,1.8261,1.8147,1.7946,1.7685,1.7379,1.6733,1.5828,1.4777,1.4317,1.4013,1.3881,1.3519,1.3277,1.3277,1.3147,1.3086,1.3086,1.2903,1.2716,1.2526,1.2413,1.2169,1.1739,1.136,1.1028,1.0709,1.0366,1.0226,1.0174,1.0174,1.0174,1.0233,1.0549,1.0702,1.0753,1.1049,1.12,1.1099,1.0438,1.0174,1.0174,1.0174,1.0131,1.002,0.9969,0.9909,0.9814,0.9762,0.9762,0.9718,0.9413,0.951,0.9562,0.9309,0.9033,0.8967,0.9354,0.8823,0.8343,0.8501,0.8243,0.7931,0.761,0.7391,0.6902,0.5869,0.5042,0.411,0.3014,0.2174,0.1449,0.0949,0.0223,-0.0614,-0.1398,-0.1454,-0.1734,-0.2352,-0.2462,-0.2683,-0.307,-0.3516,-0.3901,-0.4171,-0.4567,-0.4897,-0.5105,-0.5105,-0.5164,-0.5277,-0.5277,-0.5277,2.1355,2.0975,2.063,2.063,1.9949,1.9281,1.9244,1.8884,1.8539,1.8539,1.8617,1.8872,1.9524,1.9235,1.9346,2.062,2.0165,1.9893,2.049,2.0389,2.0099,1.9806,1.9772,1.9471,1.8605,1.8477,1.7587,1.5424,1.5207,1.4961,1.4584,1.4538,1.4469,1.4469,1.4469,1.4469,1.4469,1.4332,1.3906,1.3358,1.3753,1.3513,1.2622,1.2696,1.2422,1.1887,1.1523,1.1334,1.12,1.12,1.12,1.12,1.125,1.1259,1.1259,1.1301,1.1309,1.1309,1.1309,1.1259,1.12,1.12,1.12,1.12,1.1074,1.1015,1.0965,1.0872,1.0813,1.0712,1.0167,1.0415,1.0661,1.0167,1.0312,1.061,1.061,1.0517,1.0269,0.9762,0.9666,0.9465,0.8962,0.8362,0.7818,0.7241,0.7139,0.6145,0.3403,0.2903,0.2343,0.1173,0.1005,0.0558,-0.067,-0.0726,-0.1005,-0.1621,-0.1174,-0.1118,-0.1679,-0.2178,-0.2565,-0.2783,-0.3788,-0.4508,-0.4886,-0.4886,-0.4995,-0.5167,-0.5167,-0.5167,2.1354,2.1197,2.1055,2.0811,2.0496,2.0174,1.9854,1.9369,1.8997,1.8974,1.8758,1.8862,1.9949,1.9741,2.0106,2.2153,2.1335,2.0772,2.1773,2.1292,2.0843,2.0745,2.0985,2.0854,2.0092,1.9899,1.9276,1.7892,1.6612,1.5824,1.5718,1.4934,1.4469,1.4469,1.4469,1.4469,1.4469,1.4469,1.4355,1.4187,1.3686,1.3277,1.2878,1.2287,1.1915,1.1657,1.161,1.1516,1.1475,1.1475,1.1425,1.1375,1.1801,1.1909,1.1918,1.2323,1.2471,1.2471,1.2471,1.1918,1.12,1.12,1.12,1.12,1.115,1.1141,1.1141,1.1091,1.1099,1.104,1.0821,1.0864,1.0864,1.0661,1.0661,1.0771,1.0771,1.0712,1.0618,1.0415,1.0261,1.0167,1.0012,0.954,0.896,0.8455,0.7906,0.6988,0.5386,0.4772,0.4158,0.3282,0.2783,0.2171,0.1334,0.1278,0.0945,0.0278,-0.0056,-0.0279,-0.0447,-0.1005,-0.134,-0.1395,-0.1673,-0.1952,-0.2284,-0.2284,-0.2619,-0.3345,-0.3345,-0.3627,2.1781,2.1631,2.1462,2.1293,2.0926,2.053,2.0273,1.9854,1.9457,1.9398,1.9266,1.9398,2.0002,2.0028,2.0576,2.238,2.197,2.1818,2.2988,2.2707,2.2256,2.1885,2.2031,2.1854,2.1101,2.091,2.0464,1.9555,1.7843,1.6698,1.6507,1.5772,1.5303,1.5303,1.5303,1.5303,1.5303,1.5303,1.5206,1.5012,1.4583,1.4092,1.3547,1.3109,1.2693,1.2365,1.2365,1.2365,1.2316,1.2316,1.237,1.252,1.2607,1.29,1.3254,1.327,1.343,1.36,1.3515,1.3122,1.2463,1.2098,1.1968,1.1968,1.1968,1.1968,1.1968,1.1968,1.1968,1.1859,1.1543,1.1642,1.1742,1.1434,1.1493,1.1642,1.1642,1.1592,1.1443,1.1091,1.0677,1.0415,1.0415,1.0151,0.9843,0.9547,0.9155,0.8567,0.7688,0.6504,0.5479,0.4816,0.4429,0.3874,0.2938,0.2883,0.2441,0.1445,0.1337,0.1116,0.0781,0.0446,0.0167,-0.0112,-0.0391,-0.0726,-0.1229,-0.1285,-0.162,-0.2235,-0.2291,-0.246,2.231,2.2094,2.1857,2.1811,2.1276,2.0714,2.0614,2.0224,1.9869,1.9782,1.9901,2.0089,2.0142,2.0358,2.0953,2.2256,2.2549,2.3012,2.4071,2.4229,2.391,2.3075,2.2955,2.264,2.1865,2.1803,2.1454,2.0633,1.8999,1.7756,1.7294,1.6843,1.6658,1.6658,1.6658,1.6658,1.6658,1.6534,1.6304,1.5899,1.5781,1.53,1.4492,1.4429,1.4129,1.3647,1.3647,1.3552,1.3447,1.3447,1.3682,1.4,1.36,1.3934,1.4639,1.41,1.4165,1.4503,1.4387,1.434,1.4212,1.3344,1.3065,1.3065,1.3065,1.3065,1.3065,1.3065,1.3065,1.2968,1.251,1.2764,1.2968,1.251,1.2657,1.291,1.291,1.2813,1.2559,1.1959,1.1334,1.0864,1.0813,1.0762,1.072,1.0618,1.0568,1.0312,0.9784,0.8059,0.6676,0.6054,0.5946,0.5458,0.4484,0.4375,0.3822,0.2607,0.2896,0.2845,0.2117,0.2007,0.1673,0.1174,0.0614,0.0,-0.067,-0.0782,-0.1006,-0.1285,-0.1397,-0.1509,2.236,2.2254,2.2152,2.1886,2.1691,2.1493,2.1086,2.0665,2.0345,2.0227,1.995,2.0109,2.1188,2.1099,2.1599,2.3889,2.3926,2.3992,2.473,2.4835,2.4607,2.3969,2.3865,2.3603,2.2907,2.2713,2.2116,2.0984,2.0098,1.9309,1.8543,1.8047,1.7831,1.7831,1.7831,1.7831,1.7831,1.7324,1.7027,1.7033,1.611,1.5618,1.5533,1.5139,1.4913,1.4823,1.4823,0.0,1.4777,1.4777,1.473,1.4693,1.4662,1.4627,1.4682,1.4605,1.4617,1.4652,1.4652,1.4606,1.4571,1.4165,1.4071,1.4071,1.4071,1.4071,1.4071,1.4071,1.4071,1.4025,1.392,1.3978,1.4025,1.392,1.3978,1.4025,1.4025,1.3978,1.3894,1.3742,1.3532,1.3331,1.3064,1.2764,1.2316,1.1665,1.1342,1.0947,1.0364,0.9176,0.8178,0.757,0.7111,0.6745,0.6411,0.6411,0.6027,0.521,0.4772,0.4223,0.3458,0.2959,0.2625,0.24,0.2289,0.2011,0.1621,0.1621,0.1228,0.0446,0.0446,0.0167,2.2552,2.2422,2.2254,2.2106,2.1915,2.1721,2.143,2.1055,2.0665,2.0348,2.0415,2.0531,2.0625,2.1072,2.1802,2.3016,2.3325,2.3839,2.483,2.4956,2.4847,2.4572,2.4533,2.4302,2.3616,2.3244,2.2609,2.1699,2.1039,2.0164,1.9064,1.8588,1.8309,1.8309,1.7989,1.7838,1.7838,1.7258,1.6956,1.6933,1.6192,1.5781,1.5784,1.5337,1.5108,1.5119,1.5418,1.5384,1.5119,1.5418,1.5475,1.5348,1.5097,1.5246,1.5614,1.5256,1.5355,1.5579,1.549,1.549,1.549,1.5555,1.5107,1.4525,1.4525,1.4525,1.4525,1.4525,1.4525,1.4479,1.4422,1.4376,1.4376,1.434,1.4479,1.4595,1.4595,1.4549,1.4503,1.4675,1.4329,1.4014,1.4039,1.3768,1.3389,1.2996,1.2667,1.2384,1.211,1.1258,1.0289,0.9311,0.8954,0.8698,0.8324,0.8324,0.7894,0.6827,0.6445,0.5905,0.516,0.4831,0.4443,0.4055,0.4055,0.3834,0.3337,0.3116,0.2834,0.2386,0.1947,0.156,2.2825,2.2579,2.2394,2.2394,2.2135,2.1886,2.1764,2.1446,2.1023,2.0649,2.0867,2.0921,2.0177,2.1104,2.2028,2.2178,2.285,2.3737,2.4897,2.5081,2.5071,2.5107,2.5025,2.4778,2.4218,2.3688,2.3054,2.2418,2.1786,2.0861,1.9485,1.906,1.8797,1.8677,1.8207,1.7921,1.7814,1.726,1.6951,1.6857,1.6338,1.6045,1.6021,1.5599,1.5424,1.5435,1.5868,1.5809,1.5447,1.5994,1.6148,1.6066,1.5811,1.6175,1.6761,1.6254,1.6324,1.668,1.6565,1.6522,1.6607,1.6921,1.6157,1.5186,1.5264,1.5309,1.5309,1.5309,1.5309,1.5264,1.5163,1.5163,1.5118,1.4994,1.5174,1.5398,1.5398,1.5252,1.5252,1.5508,1.5039,1.4687,1.488,1.463,1.4365,1.4329,1.4097,1.392,1.392,1.3369,1.2522,1.1481,1.0855,1.0356,0.9938,0.9835,0.9311,0.8193,0.7988,0.757,0.6784,0.6681,0.6352,0.5797,0.5797,0.5521,0.5019,0.4692,0.4477,0.4423,0.3611,0.3226,2.314,2.2876,2.2659,2.2659,2.246,2.2254,2.2237,2.1869,2.1538,2.1415,2.1151,2.0964,2.106,2.1659,2.2449,2.331,2.4,2.4737,2.551,2.5633,2.5644,2.5697,2.5264,2.4875,2.4819,2.4211,2.3576,2.2986,2.2373,2.145,2.0195,2.0042,1.9838,1.933,1.9253,1.8999,1.8443,1.7894,1.7622,1.7606,1.7008,1.6737,1.6782,1.6615,1.6547,1.6547,1.6485,1.643,0.0,1.696,1.717,1.7212,1.7585,1.7774,1.7855,1.7679,1.7625,1.7666,1.7666,1.7625,1.7666,1.7707,1.7201,1.6697,1.7133,1.7244,1.7244,1.7244,1.7244,1.7244,1.7244,1.7203,1.7203,1.7203,1.7105,1.6976,1.6976,1.685,1.6693,1.6735,1.6693,1.6565,1.6367,1.5983,1.564,1.5419,1.5083,1.4846,1.4846,1.4801,1.4665,1.4437,1.2347,1.0914,1.0864,1.0559,1.0049,0.9474,0.9422,0.894,0.7994,0.7941,0.7729,0.7304,0.7304,0.7186,0.6956,0.6919,0.6763,0.6494,0.5968,0.5592,2.3387,2.3122,2.2884,2.2738,2.2605,2.2515,2.2338,2.2123,2.2003,2.2188,2.202,2.1954,2.228,2.2844,2.3274,2.3402,2.3991,2.4564,2.4961,2.5047,2.5055,2.5063,2.4897,2.4626,2.4269,2.3688,2.3119,2.2488,2.2222,2.1894,2.1369,2.1321,2.1063,2.0495,2.0148,1.9628,1.899,1.8441,1.8147,1.807,1.7822,1.7689,1.7612,1.7571,1.753,1.7544,1.7849,1.7754,0.0,1.8043,1.8058,1.7787,1.8001,1.804,1.804,1.8001,1.7974,1.7908,1.7908,1.7868,1.7828,1.8108,1.8014,1.7814,1.7693,1.7693,1.7693,1.7693,1.7693,1.7652,1.7585,1.7544,1.7504,1.7504,1.7571,1.7679,1.7679,1.7733,1.7841,1.804,1.7867,1.7626,1.7504,1.7313,1.7094,1.676,1.6667,1.6557,1.6298,1.6114,1.5898,1.5596,1.3964,1.285,1.2773,1.2346,1.1855,1.1299,1.1199,1.083,1.0097,0.9995,0.9841,0.9636,0.9585,0.9386,0.8881,0.8731,0.837,0.7859,0.7522,0.7143,2.3649,2.341,2.3146,2.2902,2.2764,2.2701,2.2638,2.2406,2.2421,2.3067,2.2959,2.285,2.3218,2.3751,2.401,2.3615,2.4146,2.4684,2.5037,2.4969,2.4896,2.5108,2.4875,2.4484,2.406,2.3533,2.3016,2.2572,2.2543,2.2472,2.2286,2.2286,2.1865,2.0946,2.0315,1.9698,1.9081,1.8686,1.8461,1.8344,1.8344,1.8305,1.8238,1.8198,1.8159,1.8173,1.8521,1.8452,0.0,1.8683,1.8693,1.8341,1.8511,1.8549,1.8549,1.8511,1.8447,1.8422,1.8511,1.8496,1.8496,1.8968,1.908,1.9043,1.8688,1.8394,1.8187,1.8187,1.8252,1.8291,1.8302,1.8263,1.8263,1.8263,1.8355,1.8486,1.8486,1.8588,1.875,1.8954,1.8736,1.8531,1.8468,1.8444,1.8366,1.8066,1.8104,1.8037,1.772,1.7531,1.7301,1.6957,1.5972,1.5048,1.4389,1.3935,1.3511,1.3062,1.2956,1.2696,1.2231,1.2134,1.2036,1.184,1.18,1.1571,1.1082,1.0872,1.0418,0.9776,0.943,0.8802,2.3917,2.3692,2.3432,2.3164,2.2902,2.2821,2.3265,2.2835,2.2704,2.4079,2.3779,2.3371,2.3622,2.4243,2.4577,2.4253,2.4756,2.5438,2.6094,2.5738,2.562,2.6284,2.5319,2.4597,2.4582,2.4014,2.361,2.3595,2.3595,2.3325,2.2712,2.2682,2.1966,2.0373,1.967,1.9053,1.8528,1.85,1.85,1.85,1.85,1.85,1.85,1.8344,1.8305,1.8305,1.8159,1.8106,0.0,1.8703,1.8893,1.893,1.9398,1.9574,1.9574,1.9465,1.9376,1.9435,1.9773,1.9884,1.9934,2.033,2.0481,2.0481,2.0465,1.9823,1.9101,1.9101,1.9273,1.9566,1.9884,1.997,1.997,1.997,1.9797,1.969,1.969,1.95,1.9273,1.931,1.9273,1.9273,1.9273,1.9273,1.9251,1.9207,1.9169,1.9184,1.9101,1.9064,1.9011,1.8893,1.8454,1.741,1.5552,1.5016,1.4722,1.4574,1.4585,1.4426,1.4174,1.4174,1.4025,1.3782,1.3721,1.3648,1.3648,1.3554,1.3175,1.2522,1.1831,1.0764,2.4054,2.3917,2.3692,2.3432,2.3679,2.3819,2.3099,2.3172,2.3596,2.4303,2.4262,2.4404,2.5481,2.5812,2.5806,2.5362,2.5468,2.5584,2.5541,2.5815,2.6091,2.6313,2.6425,2.6309,2.5811,2.556,2.5215,2.4744,2.4712,2.4374,2.3678,2.323,2.2255,2.0617,2.0357,1.9971,1.931,1.931,1.931,1.931,1.931,1.931,1.931,1.9273,1.9258,1.9258,1.9434,1.9528,1.9564,2.0019,2.0208,2.0208,2.0342,2.0426,2.0426,2.0376,2.0308,2.0224,2.0345,2.033,2.033,2.0481,2.0514,2.0514,2.0514,2.0311,2.0035,1.9894,1.9894,1.998,1.999,2.0005,2.0005,2.0005,1.9955,1.9975,2.0158,2.028,2.0434,2.0619,2.0618,2.0567,2.0489,2.0454,2.0452,2.0371,2.0618,2.0667,2.0302,2.0268,2.0131,1.9768,1.9375,1.8627,1.7302,1.6754,1.646,1.6388,1.6388,1.6291,1.6138,1.6095,1.6009,1.5794,1.5763,1.5489,1.5024,1.4967,1.4586,1.3943,1.2849,1.228,2.4094,2.4036,2.3896,2.361,2.3858,2.3993,2.3302,2.329,2.3639,2.4364,2.4259,2.4382,2.5579,2.5765,2.5749,2.5743,2.5706,2.5719,2.575,2.6271,2.6629,2.6728,2.6848,2.68,2.6326,2.6038,2.5686,2.5253,2.5221,2.4766,2.3786,2.3323,2.239,2.0865,2.0778,2.0564,2.01,2.012,2.0154,2.0154,2.0189,2.0174,2.0174,2.0174,2.0174,2.0208,2.0379,2.0447,0.0,2.0712,2.0827,2.0844,2.0844,2.0844,2.0877,2.0844,2.0778,2.073,2.0828,2.0828,2.0845,2.1039,2.1165,2.1244,2.1244,2.0894,2.0514,2.055,2.0532,2.0481,2.0597,2.0597,2.063,2.0714,2.0747,2.0797,2.0975,2.1165,2.1368,2.1505,2.1491,2.1415,2.1319,2.129,2.1275,2.1179,2.1383,2.143,2.1101,2.107,2.0943,2.0602,2.0418,2.0012,1.9301,1.8408,1.7851,1.7759,1.7733,1.7693,1.7599,1.7599,1.7518,1.7396,1.7315,1.7029,1.6548,1.6308,1.5936,1.5425,1.4392,1.4057,0.0,2.4094,2.4034,2.3714,2.3642,2.3659,2.3824,2.3336,0.0,2.4241,2.3926,2.3659,2.4455,2.4591,2.4814,2.5558,2.5693,2.593,2.659,2.7016,2.7334,2.7632,2.7018,2.6543,2.6494,2.5834,2.5346,2.5297,2.5249,2.4638,2.3288,2.316,2.2517,2.1151,2.1023,2.0942,2.0827,2.0877,2.0893,2.0926,2.0975,2.0991,2.0991,2.0991,2.0991,2.1007,2.0958,2.0926,2.0926,2.0909,2.0909,2.0991,2.0991,2.1007,2.1055,2.1007,2.1007,2.1055,2.1324,2.1417,2.1479,2.201,2.2326,2.2525,2.2525,2.1642,2.0731,2.1133,2.1134,2.1071,2.1538,2.1628,2.1672,2.1924,2.1998,2.2027,2.201,2.201,2.2027,2.1969,2.194,2.1911,2.1899,2.1869,2.1823,2.1761,2.1715,2.1685,2.1642,2.1628,2.1598,2.1554,2.1493,2.1446,2.1415,1.9958,1.9029,1.8864,1.8817,1.8769,1.8769,1.8731,1.8693,1.8655,1.8486,1.8369,1.8224,1.7558,1.7164,1.7014,1.6366,1.5978,2.417,0.0,2.4074,2.3996,2.439,2.4588,0.0,2.3922,2.4184,2.3988,2.3841,2.403,2.5133,2.5338,2.5575,2.6319,2.6437,2.6488,2.6674,2.7788,2.8992,3.0151,2.9683,2.8975,2.8427,2.7654,2.6969,2.64,2.5798,2.5113,2.421,2.3658,2.2909,2.1936,2.1903,2.1587,2.0942,2.0975,2.0975,2.0975,2.1007,2.0991,2.0991,2.0991,2.0991,2.0991,2.126,2.137,2.1401,2.1628,2.1718,2.1748,2.1748,2.1748,2.1807,2.1977,2.2046,2.2074,2.2334,2.2459,2.2485,2.2591,2.2686,2.2781,2.2968,2.2563,2.2027,2.1994,2.1919,2.1907,2.1895,2.1895,2.1924,2.1998,2.1998,2.2068,2.2275,2.233,2.2385,2.2624,2.2419,2.233,2.279,2.2616,2.2538,2.293,2.2979,2.2954,2.2905,2.288,2.2855,2.2762,2.2487,2.231,2.231,2.1348,2.0667,2.0536,2.0503,2.0485,2.0434,2.0382,2.028,2.0196,1.9899,1.9681,1.9566,1.8948,1.8565,1.8478,1.7599,1.7328,2.419,2.4427,2.4701,2.4701,2.4972,2.5051,2.432,2.4159,2.4075,2.3613,2.351,2.385,2.4867,2.5046,2.5426,2.658,2.6722,2.7054,2.8075,2.8921,2.9885,3.102,3.0504,2.9677,2.8784,2.7981,2.73,2.6725,2.6031,2.5287,2.4557,2.3799,2.3083,2.2466,2.2432,2.2118,2.146,2.1524,2.154,2.154,2.1584,2.1584,2.1584,2.1584,2.1584,2.1615,2.1768,2.1827,2.1827,2.2068,2.2209,2.2281,2.2385,2.2466,2.252,2.2608,2.2617,2.2643,2.2772,2.289,2.2982,2.2982,2.3049,2.3146,2.3277,2.3151,2.2927,2.2721,2.2556,2.2476,2.2456,2.2446,2.2473,2.25,2.259,2.273,2.2883,2.2989,2.3087,2.3236,2.3087,2.3038,2.333,2.32,2.3165,2.3437,2.35,2.3459,2.3392,2.3392,2.3346,2.3277,2.3034,2.2895,2.287,2.2434,2.2012,2.1589,2.1513,2.1423,2.1334,2.1258,2.1164,2.1007,2.0814,2.0634,2.0548,2.0153,1.9863,1.9641,1.8979,1.8707,2.4356,2.498,2.5531,2.5293,2.5362,2.5408,2.5031,2.4472,2.3911,2.3519,2.3543,2.3827,2.4453,2.4683,2.525,2.6721,2.6914,2.7617,2.973,2.991,3.0173,3.1036,3.0384,2.9481,2.8499,2.7739,2.7129,2.672,2.6021,2.5272,2.4505,2.3772,2.3185,2.279,2.2773,2.2598,2.2192,2.2304,2.2338,2.2338,2.2405,2.2432,2.2432,2.2432,2.2432,2.2432,2.2349,0.0,2.2349,2.2456,2.2573,2.2686,2.2865,2.3007,2.3091,2.3032,2.2972,2.2972,2.2972,2.3105,2.3283,2.333,2.3458,2.3607,2.3611,2.3611,2.3589,2.3417,2.3177,2.2947,2.3084,2.3109,2.3157,2.3206,2.3394,2.3553,2.3553,2.3689,2.3816,2.3735,2.3714,2.3714,2.3692,2.3671,2.3671,2.3696,2.3714,2.3692,2.3631,2.3631,2.3588,2.3459,2.3441,2.3414,2.3369,2.3346,2.3058,2.2426,2.2204,2.2023,2.1888,2.1819,2.172,2.1559,2.1486,2.1411,2.1336,2.1194,2.0958,2.0602,2.0302,2.0008,2.5112,2.5886,2.6162,2.4742,2.5401,2.6185,2.5408,2.5661,2.5776,2.4761,2.5111,2.5506,2.5364,2.5941,2.6721,2.7579,2.772,2.8275,2.9955,2.9571,2.9677,3.1076,3.0031,2.9064,2.8898,2.8223,2.749,2.6753,2.5956,2.5165,2.4357,2.3636,2.321,2.3135,2.3111,2.3087,2.3021,2.2975,2.296,2.296,2.2985,2.2985,2.2985,2.2985,2.2985,2.2985,0.0,2.296,2.296,2.2993,2.3017,2.3035,2.3067,2.3091,2.3133,2.333,2.3417,2.3422,2.3584,2.3671,2.3732,2.3915,2.3976,2.4034,2.4134,2.4172,2.4172,2.4135,2.386,2.3566,2.3584,2.3674,2.3762,2.3762,2.3821,2.3842,2.3842,2.3862,2.3883,2.3858,2.3816,2.3855,2.3996,2.3976,2.3998,2.4154,2.4192,2.4192,2.4173,2.4173,2.4173,2.4154,2.4097,2.4077,2.4036,2.3996,2.3896,2.3717,2.3218,2.2863,2.2712,2.2652,2.251,2.2269,2.2102,2.2005,2.1895,2.1807,2.1672,2.1488,2.099,2.0895,2.4745,2.5428,2.587,2.5095,2.6105,2.7206,2.6799,2.6628,2.6399,2.5889,2.6085,2.6404,2.6687,2.7061,2.773,2.8915,2.8727,2.8989,3.052,3.0052,2.98,3.051,2.998,2.9314,2.8683,2.8326,2.7727,2.6763,2.5941,2.5146,2.436,2.3589,2.3277,2.3414,2.3414,2.35,2.3631,2.3602,2.3427,2.3153,2.3153,2.3153,2.3153,2.3153,2.3153,2.3153,0.0,2.3153,2.3153,2.3312,2.3382,2.3382,2.3535,2.358,2.3602,2.3774,2.3921,2.406,2.4099,2.4136,2.4192,2.4284,2.432,2.4338,2.4391,2.4408,2.4408,2.4408,2.4229,2.3999,2.3921,2.3961,2.3983,2.3923,2.4002,2.4116,2.4116,2.4192,2.4284,2.4284,2.4248,2.4266,2.4357,2.4339,2.4374,2.4561,2.4543,2.4543,2.4604,2.4588,2.4572,2.4575,2.4543,2.4508,2.451,2.4493,2.4338,2.4016,2.3671,2.3437,2.3346,2.3283,2.3157,2.3017,2.2849,2.2764,2.266,2.2554,2.232,2.2005,2.1724,2.1579,2.4543,2.5041,2.5578,2.5762,2.6718,2.7653,2.7877,2.7411,2.693,2.693,2.7077,2.7334,2.7754,2.7974,2.8462,2.9667,2.9331,2.9399,3.0775,3.0282,2.9844,3.0027,2.988,2.9423,2.8543,2.829,2.7774,2.6746,2.5925,2.5147,2.4314,2.3754,2.3522,2.3735,2.3735,2.3837,2.4036,2.4054,2.3816,2.3392,2.3392,2.3392,2.3392,2.3392,2.3392,2.3392,2.3392,2.3392,2.3392,2.361,2.3714,2.3777,2.3998,2.4077,2.4116,2.4174,2.4318,2.4489,2.4458,2.4474,2.4505,2.4538,2.4554,2.4554,2.4586,2.4601,2.4601,2.4601,2.4508,2.4426,2.4265,2.4247,2.4247,2.4137,2.4284,2.4444,2.4444,2.4594,2.4719,2.4704,2.4685,2.4704,2.4689,2.4689,2.4734,2.4832,2.4799,2.4799,2.4915,2.4883,2.4855,2.4847,2.4828,2.4814,2.4832,2.4818,2.4617,2.4211,2.406,2.3963,2.3903,2.3819,2.3732,2.3664,2.3535,2.3422,2.3365,2.3247,2.2975,2.2591,2.2512,2.2313,2.5301,2.5542,2.5764,2.6522,2.676,2.7015,2.7811,2.7938,2.7901,2.7904,2.8495,2.8769,2.8021,2.8452,2.8938,2.9049,2.903,2.9287,3.0149,2.958,2.936,3.0094,2.9525,2.9049,2.897,2.8274,2.7486,2.6677,2.5853,2.5047,2.426,2.415,2.4151,2.4151,2.4151,2.417,2.419,2.419,2.4094,2.3937,2.3937,2.3937,2.3937,2.3937,2.3937,2.3937,2.3937,2.3937,2.3937,2.3958,2.4095,2.4247,2.4266,2.4355,2.4472,2.4472,2.4489,2.4505,2.4489,2.4505,2.4522,2.4651,2.4682,2.4712,2.4828,2.4855,2.4855,2.4855,2.4855,2.4832,2.4697,2.47,2.4749,2.4749,2.4804,2.4861,2.4861,2.4962,2.5049,2.4986,2.4974,2.4962,2.4981,2.4968,2.4981,2.4981,2.4981,2.4981,2.4994,2.4994,2.4994,2.4981,2.4917,2.4891,2.4902,2.4842,2.4776,2.4747,2.4629,2.4519,2.4456,2.4334,2.4227,2.4155,2.4006,2.3926,2.3855,2.3774,2.3649,2.3482,2.3369,2.3271,2.4003,2.4503,2.5114,2.5913,2.6469,2.7023,2.7818,2.8387,2.8735,2.8756,2.8997,2.9111,2.8864,2.8981,2.9304,2.9919,2.9496,2.9406,3.0217,2.9628,2.9222,2.949,2.9246,2.886,2.8301,2.797,2.7276,2.5993,2.5627,2.5112,2.4321,2.421,2.4191,2.4191,2.4266,2.4321,2.4321,2.4442,2.4493,2.4441,2.421,2.4172,2.4248,2.4248,2.432,2.4444,2.4444,2.4444,2.4444,2.4444,2.4478,2.4564,2.4564,2.4623,2.4737,2.4697,2.4785,2.4934,2.4879,2.4893,2.4947,2.4987,2.5019,2.5019,2.5069,2.5118,2.5153,2.5153,2.5179,2.5171,2.4943,2.4923,2.4949,2.5031,2.5068,2.5091,2.5091,2.5126,2.516,2.513,2.513,2.5118,2.5126,2.5084,2.5088,2.5166,2.5184,2.5222,2.5313,2.5264,2.5254,2.5254,2.5225,2.5215,2.5203,2.5192,2.5152,2.5107,2.4864,2.4693,2.4632,2.4582,2.45,2.4383,2.4298,2.421,2.4099,2.3985,2.3864,2.3714,2.3671,2.3584,2.3717,2.4273,2.5092,2.5912,2.6526,2.712,2.786,2.845,2.8929,2.9206,2.9267,2.9334,2.9495,2.9436,2.9582,3.0206,2.979,2.9539,3.0095,2.9706,2.9221,2.892,2.8883,2.8547,2.769,2.7374,2.6783,2.5746,2.5411,2.5039,2.4498,2.4408,2.4391,2.4391,2.4474,2.4524,2.4524,2.4666,2.4727,2.4727,2.4512,2.4426,2.4491,2.4491,2.4559,2.4704,2.4704,2.4704,2.4734,2.4734,2.4749,2.4794,2.4837,2.4902,2.4994,2.4936,2.5038,2.5203,2.5156,2.5149,2.5203,2.5195,2.5198,2.5231,2.5231,2.5274,2.534,2.534,2.5357,2.5354,2.5197,2.5124,2.5118,2.5203,2.5234,2.5225,2.5225,2.5255,2.5293,2.5293,2.5293,2.5293,2.5293,2.5265,2.5264,2.5343,2.5365,2.5404,2.5488,2.5461,2.5426,2.5418,2.5449,2.5444,2.5422,2.5422,2.5406,2.5365,2.5152,2.4975,2.4877,2.4864,2.4818,2.4714,2.4655,2.4564,2.4418,2.4314,2.421,2.4059,2.4059,2.3943,2.4785,2.5178,2.5982,2.6786,2.701,2.7233,2.7938,2.8124,2.8366,2.9221,2.9454,2.957,2.9767,2.9748,2.9713,2.9713,2.9713,2.9696,2.9696,2.9677,2.9357,2.8508,2.8395,2.8077,2.7269,2.6459,2.6004,2.5985,2.5261,2.4804,2.4804,2.4804,2.4804,2.4804,2.4804,2.4804,2.4804,2.4804,2.4804,2.4804,2.4804,2.4775,2.4697,2.4704,2.4704,2.4697,2.4697,2.4741,2.4804,2.4804,2.4888,2.5038,2.5153,2.5209,2.5212,2.5192,2.5201,2.5198,2.5201,2.5201,2.5198,2.5201,2.5255,2.529,2.5309,2.5356,2.5395,2.5395,2.5395,2.5428,2.5471,2.541,2.5293,2.5293,2.5293,2.529,2.529,2.5403,2.5499,2.5499,2.5499,2.5499,2.5499,2.5499,2.5499,2.5499,2.5499,2.5499,2.5499,2.5499,2.5505,2.5503,2.5562,2.5561,2.5507,2.5502,2.5496,2.5504,2.5498,2.5443,2.5321,2.5252,2.5201,2.5198,2.5126,2.5037,2.4915,2.4896,2.4799,2.4607,2.4588,2.4493,2.3206,2.4433,2.6026,2.6355,2.7676,2.8984,2.9349,2.9339,2.9325,2.9676,2.9767,2.9834,2.9973,2.9915,2.9867,2.9973,2.9896,2.9834,2.9834,2.9307,2.8817,2.8504,2.7959,2.7283,2.6437,2.6136,2.5774,2.5196,2.4927,2.4828,2.4874,2.4828,2.4795,2.4795,2.4883,2.4942,2.4942,2.5087,2.5153,2.5153,2.5153,2.5075,2.4896,2.4915,2.4968,2.5049,2.5049,2.5061,2.5091,2.5091,2.5478,2.5991,2.542,2.5576,2.6047,2.5423,2.5212,2.5212,2.5255,2.5264,2.5389,2.6047,2.5848,2.5483,2.6103,2.5893,2.5465,2.5465,2.5507,2.5552,2.5565,2.5542,2.551,2.551,2.5502,2.5507,2.5507,2.5542,2.5571,2.5571,2.5571,2.5571,2.5571,2.5566,2.5561,2.5571,2.5561,2.5571,2.5568,2.5565,2.5565,2.5564,2.559,2.5595,2.5561,2.5565,2.557,2.5571,2.5531,2.5463,2.5367,2.5398,2.5395,2.534,2.5372,2.5324,2.5177,2.5177,2.51,2.4943,2.4953,2.4873,2.3986,2.5264,2.6821,2.7532,2.8521,2.9478,3.0004,2.9962,2.9851,2.9988,3.0018,3.0066,3.0235,3.0196,3.0169,3.0248,2.9895,2.9612,2.9612,2.8872,2.8191,2.784,2.735,2.6708,2.5837,2.5761,2.5565,2.5075,2.5037,2.5037,2.5068,2.5024,2.5005,2.5037,2.5091,2.5126,2.5157,2.5252,2.5312,2.5341,2.5341,2.5292,2.5149,2.5103,2.5145,2.5252,2.5233,2.5435,2.5723,2.5386,2.5751,2.6453,2.5578,2.559,2.6006,2.5457,2.5303,2.5329,2.5376,2.5391,2.5526,2.6443,2.6164,2.571,2.694,2.6486,2.564,2.5995,2.5873,2.5634,2.5634,2.5634,2.5726,2.6038,2.6128,2.6205,2.6556,2.6634,2.6634,2.6634,2.6619,2.661,2.6607,2.6334,2.6103,2.6078,2.5783,2.5562,2.5551,2.5559,2.5559,2.5564,2.5581,2.5592,2.5592,2.5597,2.5597,2.5554,2.552,2.5488,2.5435,2.5479,2.5473,2.5434,2.5484,2.5457,2.5381,2.5383,2.5316,2.5178,2.5185,2.512,2.6063,2.6943,2.7988,2.956,2.9459,2.9193,3.0112,3.0196,3.0095,3.0216,3.0228,3.0285,3.0469,3.0499,3.0499,3.0499,2.9766,2.9187,2.9187,2.8396,2.7518,2.6795,2.6621,2.6274,2.5483,2.5406,2.5406,2.5398,2.5398,2.537,2.5313,2.5313,2.5351,2.5398,2.5332,2.5351,2.5398,2.5332,2.5332,2.5398,2.5398,2.5388,2.5406,2.5274,2.5252,2.5292,2.5322,2.5755,2.6428,2.5639,2.586,2.6622,2.5687,2.5513,2.5759,2.5584,2.5621,2.5744,2.574,2.5754,2.5892,2.6767,2.6505,2.6158,2.7815,2.7217,2.6104,2.6906,2.6499,2.5817,2.5817,2.5817,2.6028,2.6838,2.6961,2.7156,2.801,2.8209,2.8193,2.8193,2.8203,2.8162,2.8102,2.7499,2.6992,2.6927,2.6244,2.5737,2.5737,2.5679,2.562,2.5621,2.5615,2.5603,2.5593,2.5581,2.5603,2.5618,2.5611,2.5657,2.5718,2.5597,2.5515,2.5505,2.5509,2.5515,2.5504,2.552,2.5435,2.531,2.5323,2.5298,2.5293,2.6628,2.803,2.9166,2.9823,3.0258,3.0491,3.05,3.0449,3.043,3.0439,3.0458,3.0499,3.0499,3.0499,3.0499,2.9766,2.9187,2.9187,2.7914,2.6891,2.6718,2.61,2.5599,2.5425,2.5406,2.5406,2.5406,2.5406,2.5378,2.5369,2.5369,2.5397,2.5406,2.5397,2.5397,2.5406,2.5397,2.5397,2.5406,2.5406,2.5406,2.5406,2.537,2.5341,2.5303,2.5351,2.5485,2.564,2.5456,2.6301,2.7547,2.6037,2.6727,2.8365,2.701,2.6943,2.7542,2.7601,2.7631,2.7768,2.8691,2.8426,2.792,2.8974,2.8567,2.7789,2.7964,2.7399,2.6716,2.6716,2.6716,2.6912,2.7734,2.744,2.7217,2.8096,2.824,2.8203,2.8203,2.8159,2.8125,2.8098,2.7962,2.7842,2.7813,2.7657,2.7546,2.7535,2.6986,2.6576,2.6525,2.5971,2.5595,2.5593,2.5551,2.5808,2.647,2.652,2.679,2.7445,2.6256,2.558,2.558,2.5579,2.5583,2.5586,2.5584,2.5547,2.5457,2.5503,2.5538,2.5048,2.6621,2.8213,2.9582,3.0268,3.0597,3.0597,3.0597,3.0588,3.0559,3.055,3.054,3.054,3.054,3.0404,2.9979,2.9187,2.8473,2.8067,2.6927,2.6135,2.6135,2.573,2.5459,2.5459,2.5459,2.5432,2.5404,2.5404,2.5404,2.5387,2.5406,2.5395,2.5404,2.5395,2.5395,2.5404,2.5437,2.5461,2.5449,2.5485,2.5506,2.5479,2.5468,2.5434,2.5398,2.5432,2.5684,2.6033,2.5621,2.623,2.7304,2.6009,2.6612,2.81,2.7188,2.7417,2.8193,2.8247,2.825,2.8406,2.9312,2.9001,2.8532,2.9821,2.9314,2.8378,2.8769,2.824,2.7574,2.7526,2.752,2.773,2.8535,2.8463,2.8436,2.9273,2.942,2.9408,2.9408,2.937,2.9206,2.8749,2.83,2.7731,2.6922,2.7155,2.7278,2.6862,2.6448,2.6176,2.6129,2.5746,2.5507,2.5504,2.5466,2.5635,2.6059,2.6115,2.6304,2.6685,2.6294,2.611,2.6169,2.6169,2.5987,2.5606,2.5563,2.5531,2.5503,2.5534,2.5556,2.4803,2.6621,2.8391,3.0004,3.0507,3.0604,3.0604,3.0604,3.0595,3.0597,3.0607,3.0607,3.0607,3.0597,3.0315,2.9464,2.8609,2.7726,2.6866,2.6033,2.551,2.551,2.551,2.551,2.551,2.551,2.5483,2.543,2.543,2.5422,2.5426,2.5426,2.5434,2.543,2.5434,2.5434,2.543,2.5499,2.5531,2.5523,2.5571,2.5613,2.5621,2.5551,2.5521,2.5493,2.5513,2.5936,2.6534,2.5805,2.6024,2.6744,2.6013,2.6415,2.7362,2.7362,2.7959,2.8748,2.8749,2.8749,2.8866,2.9589,2.9316,2.8984,3.0429,2.9844,2.8805,2.932,2.8954,2.8349,2.815,2.8207,2.8462,2.9136,2.9494,2.9868,3.0537,3.0676,3.0682,3.0682,3.055,3.0185,2.9412,2.8509,2.7431,2.6043,2.6448,2.6641,2.5907,2.5695,2.5618,2.5618,2.547,2.5385,2.537,2.5378,2.5427,2.5495,2.5582,2.564,2.5735,2.6419,2.6795,2.6742,2.6907,2.6657,2.5997,2.5945,2.5848,2.5686,2.5686,2.5601,2.3928,2.6195,2.8315,2.9303,3.0078,3.0602,3.0602,3.0602,3.0602,3.0593,3.0604,3.0595,3.0595,3.0599,3.0326,2.9518,2.8707,2.7878,2.6997,2.6126,2.5585,2.5585,2.5585,2.5585,2.5585,2.5585,2.558,2.5561,2.5561,2.5561,2.558,2.558,2.558,2.5561,2.558,2.558,2.5561,2.5585,2.5589,2.5589,2.5605,2.5626,2.5687,2.5685,2.5603,2.5493,2.5561,2.5643,2.5756,2.5632,2.6107,2.6871,2.6754,2.7744,2.9238,2.9238,2.9804,3.0547,3.0547,3.0547,3.0566,3.0683,3.0577,3.042,3.0654,3.0513,3.0166,2.9581,2.9299,2.8991,2.829,2.8616,2.9175,2.9261,2.9842,3.0416,3.0586,3.0607,3.0614,3.0614,2.9956,2.9352,2.9217,2.8493,2.7817,2.7605,2.7663,2.7702,2.7586,2.6921,2.6439,2.6439,2.5765,2.5303,2.5313,2.5322,2.562,2.6301,2.6397,2.6751,2.7447,2.7577,2.73,2.6549,2.7335,2.7711,2.7595,2.7566,2.719,2.6446,2.6445,2.6047,2.4943,2.6507,2.7814,2.9676,3.0393,3.0665,3.0665,3.0664,3.0672,3.0658,3.0652,3.067,3.0658,3.0665,3.0224,2.8895,2.8372,2.7683,2.6357,2.5831,2.56,2.56,2.5593,2.5609,2.5609,2.5605,2.5601,2.5601,2.5601,2.5601,2.5609,2.5609,2.5593,2.56,2.5593,2.5593,2.56,2.5632,2.5666,2.5658,2.5659,2.5662,2.5703,2.5703,2.5661,2.5607,2.5631,2.5652,2.5652,2.5657,2.6169,2.6953,2.6953,2.8047,2.9608,2.9608,3.0155,3.0897,3.0897,3.0897,3.0896,3.0896,3.0806,3.07,3.07,3.0648,3.0535,3.0173,3.0021,2.9873,2.9494,2.9631,2.9863,2.985,3.0128,3.0265,2.9806,3.0124,3.0346,2.9854,2.8636,2.7698,2.7698,2.7371,2.6948,2.6467,2.6794,2.6948,2.6447,2.6053,2.5831,2.5831,2.5465,2.5243,2.5241,2.5231,2.5382,2.5692,2.5773,2.5953,2.6269,2.6752,2.6828,2.6397,2.688,2.6867,2.6387,2.6354,2.6132,2.5751,2.577,2.5548,2.4787,2.5859,2.6718,2.8864,2.9901,3.0393,3.0393,3.0564,3.073,3.0735,3.0732,3.0729,3.072,3.0535,2.9897,2.8369,2.7947,2.7308,2.5824,2.5629,2.5629,2.5629,2.5625,2.562,2.562,2.5637,2.5634,2.5634,2.5634,2.5637,2.562,2.562,2.5625,2.5629,2.5625,2.5625,2.5629,2.5677,2.5703,2.5699,2.5699,2.5699,2.5699,2.5699,2.5701,2.5703,2.5702,2.5702,2.5702,2.5701,2.6207,2.7008,2.7008,2.8062,2.9605,2.9605,3.0152,3.0895,3.0895,3.0871,3.0847,3.0847,3.0765,3.0658,3.0653,3.0587,3.0479,3.0268,3.0318,3.0344,2.9871,2.985,2.9928,2.9717,2.966,2.9545,2.9084,2.9394,2.9555,2.8898,2.7539,2.6507,2.6507,2.6324,2.5959,2.5297,2.5738,2.591,2.5267,2.516,2.5179,2.5179,2.5168,2.5176,2.5172,2.5172,2.5149,2.5101,2.5113,2.5101,2.5057,2.5659,2.5969,2.5929,2.6022,2.5977,2.5779,2.5672,2.5481,2.5279,2.5245,2.511,2.1792,2.326,2.4744,2.5637,2.7727,2.9564,2.9564,3.0191,3.0799,3.0796,3.0799,3.0786,3.08,3.0114,2.9251,2.8337,2.7559,2.6737,2.5818,2.5681,2.5681,2.5681,2.5682,2.5682,2.5682,2.5682,2.5682,2.5682,2.5682,2.5682,2.5682,2.5682,2.5682,2.5681,2.5682,2.5682,2.5681,2.5701,2.5699,2.5694,2.5694,2.5694,2.5694,2.5694,2.5697,2.57,2.57,2.57,2.57,2.57,2.6207,2.7008,2.7009,2.8063,2.9605,2.9605,3.0152,3.0895,3.0895,3.0821,3.0708,3.0708,3.0626,3.051,3.0511,3.043,3.0136,2.932,2.9672,2.9941,2.8349,2.8502,2.8874,2.8107,2.7934,2.8126,2.8847,2.8445,2.7927,2.7888,2.714,2.6507,2.6507,2.5814,2.5256,2.5217,2.5176,2.5153,2.5115,2.5118,2.5113,2.5113,2.5107,2.5114,2.5114,2.5114,2.5101,2.5101,2.4993,2.4915,2.4915,2.4884,2.4884,2.4877,2.4877,2.5706,2.7376,2.7116,2.6583,2.5759,2.5626,2.5131,2.2255,2.3098,2.4022,2.5952,2.7554,2.8806,2.9374,3.0167,3.0798,3.0798,3.0801,3.0798,3.0793,3.0097,2.9238,2.8395,2.8019,2.7333,2.5907,2.6181,2.6337,2.5771,2.5696,2.5696,2.5696,2.5699,2.57,2.57,2.57,2.5699,2.5697,2.5696,2.5696,2.5693,2.5696,2.5696,2.5696,2.5694,2.5693,2.5709,2.5709,2.5709,2.5709,2.5709,2.5691,2.5693,2.5693,2.5694,2.5696,2.5694,2.62,2.7001,2.6997,2.7719,2.883,2.9292,2.9667,2.9998,3.0472,3.0619,3.0568,3.0568,3.0513,3.0433,3.0442,3.0375,3.0228,2.9928,2.9666,2.9315,2.8721,2.8364,2.8084,2.7752,2.7275,2.6956,2.7198,2.7083,2.6898,2.6898,2.6192,2.5595,2.5595,2.5335,2.5132,2.5132,2.5132,2.5101,2.5101,2.5107,2.5051,2.4921,2.5025,2.5044,2.4926,2.4953,2.4921,2.4804,2.4678,2.4651,2.4639,2.4623,2.4642,2.4723,2.4578,2.4891,2.5702,2.5522,2.5235,2.4832,2.4672,2.4358,2.1905,2.2454,2.3239,2.5503,2.65,2.73,2.8767,2.9551,3.0036,3.035,3.0616,3.0801,3.0801,2.9874,2.9019,2.8774,2.8244,2.7464,2.6293,2.6371,2.6351,2.5765,2.5709,2.5691,2.5691,2.5694,2.5697,2.5697,2.5697,2.5696,2.5691,2.5691,2.5691,2.5707,2.5689,2.5691,2.5709,2.5707,2.5705,2.5705,2.5705,2.5705,2.5707,2.5705,2.5705,2.5705,2.5703,2.5705,2.5709,2.5705,2.6186,2.6916,2.6637,2.7386,2.8656,2.8863,2.9292,2.9842,3.0323,3.0496,3.047,3.047,3.0424,3.0367,3.0325,3.0304,3.0209,2.9908,2.9417,2.8836,2.8281,2.7491,2.6823,2.6759,2.6339,2.5958,2.5901,2.5939,2.5945,2.5945,2.5501,2.5101,2.5101,2.507,2.507,2.507,2.5076,2.5063,2.5063,2.5063,2.5004,2.4823,2.4912,2.4945,2.4779,2.476,2.4712,2.457,2.4439,2.4372,2.4355,2.4338,2.4338,2.4408,2.4211,2.4192,2.4318,2.4265,2.4192,2.408,2.3866,2.3687,0.0,0.0,0.0,2.3929,2.4337,2.5039,2.7637,2.822,2.8472,2.9377,3.0177,3.0721,3.0682,2.9391,2.8608,2.9435,2.8147,2.7036,2.7036,2.6332,2.5805,2.5785,2.5785,2.5785,2.5785,2.5785,2.5785,2.5785,2.5746,2.5726,2.5707,2.5648,2.5629,2.5629,2.5629,2.5627,2.562,2.562,2.562,2.562,2.562,2.5642,2.5668,2.5661,2.5679,2.5698,2.5693,2.5693,2.5698,2.5698,2.6123,2.67,2.5902,2.709,2.9125,2.8303,2.904,3.0455,3.0474,3.0443,3.0402,3.0402,3.0352,3.0279,3.0182,3.0169,2.9983,2.9115,2.8834,2.8452,2.6785,2.5717,2.5101,2.5101,2.5101,2.5101,2.5101,2.5101,2.5101,2.5101,2.5101,2.5101,2.5101,2.5038,2.4993,2.4993,2.4985,2.4996,2.4996,2.4977,2.4936,2.4779,2.4779,2.4749,2.4692,2.4561,2.4495,2.4478,2.4229,2.4097,2.4097,2.4018,2.3917,2.3795,2.3795,2.3732,2.3588,2.3671,2.3692,2.3671,2.3412,2.3217,2.0738,0.0,0.0,0.0,0.0,0.0,2.5969,2.6415,2.6844,2.8349,2.8837,2.8798,2.8176,2.8661,2.9068,2.872,2.8257,2.7945,2.7945,2.8281,2.8283,2.7659,2.7581,2.7581,2.7581,2.7581,2.7581,0.0,2.6995,2.6371,2.5726,2.4493,2.3827,2.3827,2.3825,2.382,2.3818,2.3818,2.3818,2.3818,2.3818,2.4152,2.4757,2.4754,2.5105,2.5693,2.569,2.5632,2.5561,2.5662,2.5788,2.5917,2.5634,2.6307,2.745,2.775,2.8539,2.955,3.0098,3.0267,3.026,3.026,3.0234,3.0117,2.9464,2.926,2.9088,2.8188,2.7508,2.6784,2.5723,2.5285,2.5089,2.5038,2.5025,2.5025,2.5037,2.5037,2.5037,2.5025,2.5031,2.5037,2.5037,2.5004,2.5004,2.5004,2.4827,2.4719,2.4719,2.454,2.4371,2.4229,2.4301,2.4318,2.421,2.4192,2.4173,2.4058,2.3919,2.3819,2.3819,2.3777,2.3795,2.3795,2.3671,2.3522,2.3392,2.3392,2.3369,2.3277,2.2993,2.2816,2.1767,2.2014,2.2481,2.2808,0.0,0.0,2.5222,2.5414,2.5648,2.7407,2.8051,2.8148,2.7644,2.8047,2.8415,2.8278,2.7969,2.7992,2.8694,2.8915,2.8823,2.8313,2.8254,2.8254,2.8254,2.8254,2.8254,2.8254,2.7476,2.6462,2.5213,2.3842,2.3101,2.3101,2.3096,2.3093,2.311,2.311,2.311,2.311,2.311,2.3559,2.44,2.4397,2.4856,2.5621,2.5617,2.5561,2.546,2.5546,2.5529,2.5466,2.5432,2.6105,2.7171,2.7604,2.8509,2.9628,3.0013,3.0157,3.0099,2.9723,2.9608,2.9456,2.8608,2.836,2.8188,2.7304,2.642,2.5646,2.5171,2.5057,2.505,2.5018,2.4972,2.4912,2.4917,2.4889,2.4889,2.4972,2.4945,2.4917,2.4917,2.4889,2.4875,2.4875,2.4689,2.4559,2.4559,2.4353,2.4155,2.4039,2.4117,2.4117,2.4016,2.3919,2.3819,2.3735,2.354,2.3445,2.3445,2.3445,2.3445,2.3422,2.3312,2.3194,2.3049,2.317,2.3146,2.3025,2.2876,2.2738,2.313,2.3161,2.3374,2.3971,2.3029,0.0,2.4771,2.467,2.4589,2.623,2.7189,2.7719,2.7719,2.7241,2.7098,2.7819,2.739,2.7589,2.9253,2.8824,2.8379,2.8476,2.8496,2.8496,2.8496,2.8496,2.8457,2.8359,2.7423,2.6136,2.4498,2.3483,2.2957,2.2957,2.2859,2.2815,2.2809,2.2809,2.2809,2.2809,2.2809,2.3257,2.4099,2.4092,2.4568,2.5329,2.5337,2.5369,2.539,2.539,2.5348,2.5303,2.5303,2.6209,2.7555,2.765,2.8681,3.0056,3.009,3.0037,2.9827,2.9036,2.8751,2.8522,2.7703,2.7456,2.7271,2.6401,2.5595,2.4999,2.498,2.4972,2.4983,2.4964,2.4875,2.4779,2.4779,2.4734,2.4738,2.4922,2.4875,2.4779,2.4779,2.4753,2.4692,2.4692,2.4545,2.4461,2.4444,2.4247,2.4099,2.4058,2.4058,2.4019,2.3935,2.3671,2.35,2.3455,2.323,2.3095,2.3095,2.3095,2.3045,2.2902,2.2893,2.2816,2.2712,2.2944,2.2977,2.2893,2.2893,2.2816,2.3285,2.3606,2.3854,2.262,2.2578,0.0,2.2591,2.2432,2.2608,2.3641,2.3991,2.4108,2.4108,2.5122,2.6015,2.6151,2.6599,2.7519,2.9262,2.9351,2.951,3.0212,3.029,3.029,3.029,3.029,2.9998,2.9296,2.7192,2.5492,2.4459,2.2912,2.2051,2.2051,2.1363,2.101,2.101,2.101,2.101,2.101,2.101,2.1438,2.2236,2.2236,2.3009,2.4362,2.4382,2.4711,2.5244,2.5244,2.5254,2.5303,2.5303,2.5844,2.6727,2.7376,2.824,2.9165,2.9855,2.9626,2.9017,2.8865,2.837,2.7684,2.6806,2.6545,2.6374,2.5511,2.5137,2.4977,2.487,2.4842,2.4827,2.4768,2.4738,2.4723,2.4723,2.4707,2.4692,2.461,2.4657,2.4723,2.4723,2.4707,2.4657,2.4561,2.4338,2.4135,2.4019,2.3792,2.3638,2.3616,2.371,2.3689,2.3458,2.3491,2.3427,2.3182,2.3126,2.3095,2.3095,2.3095,2.3045,2.2902,2.279,2.2738,2.2712,2.2764,2.2764,2.2738,2.2738,2.2685,2.4527,2.4729,2.4723,2.343,2.3426,0.0,0.0,2.3108,2.3341,2.4218,2.4043,2.3751,2.3751,2.4452,2.5056,2.5056,2.5757,2.6747,2.7975,2.8933,2.9652,3.01,3.0548,3.0802,3.0802,3.0802,3.0256,2.895,2.6883,2.5324,2.4446,2.3157,2.2231,2.1765,2.137,2.0919,2.0453,2.0453,2.0449,2.0445,2.0419,2.0817,2.161,2.2049,2.289,2.4023,2.4456,2.483,2.5141,2.5141,2.5172,2.5206,2.5206,2.5944,2.6993,2.6955,2.8008,2.9455,2.9444,2.9178,2.8726,2.8293,2.759,2.6754,2.591,2.5603,2.5447,2.4974,2.4846,2.4832,2.4768,2.4753,2.4734,2.4707,2.4676,2.4645,2.4645,2.4613,2.4582,2.4497,2.4547,2.4564,2.4425,2.4373,2.4338,2.4266,2.4058,2.3881,2.3816,2.3571,2.3383,2.3383,2.3394,2.3348,2.3217,2.3206,2.314,2.302,2.2944,2.2893,2.2893,2.2893,2.2868,2.2816,2.2738,2.2685,2.2659,2.2659,2.2659,2.2712,2.2712,2.2659,2.5696,2.5694,2.5492,2.4631,0.0,2.4569,0.0,0.0,0.0,2.5095,2.4647,2.4199,2.4374,2.4257,2.4199,2.4374,2.4974,2.5639,2.624,2.7837,2.9085,2.941,3.0107,3.0604,3.075,3.0477,2.9698,2.8305,2.6626,2.5438,2.492,2.4062,2.3097,2.1993,2.2014,2.1504,2.0415,2.0362,2.0351,2.0355,2.0308,2.0617,2.1263,2.2122,2.2929,2.3675,2.4536,2.4977,2.5076,2.5076,2.5076,2.5089,2.5101,2.6021,2.7276,2.6724,2.7923,2.9749,2.919,2.8795,2.8434,2.7687,2.6748,2.5788,2.5144,2.4875,2.4764,2.4723,2.4707,2.4692,2.4692,2.4676,2.4714,2.4867,2.4725,2.4603,2.4735,2.4627,2.4519,2.4615,2.4634,2.4542,2.4229,2.4096,2.4036,2.3976,2.3795,2.3703,2.3782,2.3483,2.3318,2.3459,2.3263,2.3126,2.307,2.3003,2.2979,2.3076,2.2972,2.2988,2.3143,2.3143,2.3143,2.3143,2.3143,2.3133,2.3052,2.3052,2.2924,2.2659,2.2659,2.2632,2.5705,0.0,0.0,0.0,2.4978,2.5153,2.3595,0.0,2.4218,2.3536,0.0,2.3478,2.4257,0.0,0.0,2.4277,2.4432,2.4491,2.4564,2.5997,2.7566,2.9054,2.9479,2.9907,3.0555,2.9285,2.8357,2.8208,2.6534,2.5848,2.6572,2.5855,2.4647,2.2987,2.2887,2.2061,2.042,2.0276,2.0218,2.0211,2.0204,2.0231,2.0286,2.1167,2.196,2.2702,2.3518,2.4302,2.501,2.501,2.501,2.5023,2.5076,2.5659,2.6526,2.7139,2.7998,2.8938,2.9564,2.8825,2.7612,2.7384,2.6211,2.4851,2.4757,2.4723,2.4707,2.4707,2.4707,2.4692,2.4631,2.4615,2.4785,2.5427,2.5038,2.4668,2.5189,2.4893,2.4634,2.5031,2.5116,2.4996,2.4541,2.4303,2.4096,2.3858,2.3649,2.3659,2.4073,2.3548,2.3365,2.405,2.3601,2.3177,2.2927,2.3025,2.3237,2.367,2.3695,2.3977,2.4712,2.4747,2.4747,2.4747,2.4747,2.4747,2.4718,2.4718,2.3955,2.2525,2.2525,2.2515,0.0,0.0,0.0,0.0,0.0,0.0,2.4783,0.0,2.5056,0.0,0.0,0.0,0.0,0.0,0.0,0.0,2.4291,2.4387,2.4825,2.5054,2.6014,2.8244,2.8954,2.9423,2.9811,2.8745,2.8074,2.8137,2.6463,2.5855,2.6796,2.6529,2.5546,2.3784,2.375,2.2887,2.1069,2.0487,2.0173,2.0145,2.0095,2.0069,2.0077,2.0896,2.1453,2.1813,2.312,2.3916,2.4276,2.4801,2.501,2.501,2.5037,2.553,2.6276,2.6617,2.757,2.8733,2.9044,2.8366,2.7214,2.6139,2.5302,2.4692,2.4645,2.4629,2.4629,2.4599,2.4582,2.4694,2.511,2.524,2.541,2.6059,2.5946,2.576,2.5889,2.5727,2.5578,2.5695,2.5724,2.5637,2.5357,2.5149,2.48,2.4147,2.4346,2.4512,2.4217,2.4261,2.4435,2.4749,2.4479,2.4234,2.4123,2.417,2.4264,2.4431,2.4362,2.447,2.4795,2.4812,2.4812,2.4812,2.4812,2.4812,2.4769,2.4769,2.4398,2.3633,2.3352,2.2925,2.5703,0.0,0.0,0.0,0.0,0.0,0.0,0.0,0.0,0.0,0.0,0.0,0.0,0.0,2.4296,2.43,0.0,2.4358,2.4896,2.4629,2.5245,2.7615,2.8588,2.8936,2.8595,2.7967,2.7705,2.7993,2.6563,2.6072,2.7024,2.7062,2.6176,2.4208,2.4179,2.3311,2.1477,2.0587,2.0114,2.006,2.0019,1.9996,2.0031,2.0827,2.1206,2.1282,2.2741,2.3499,2.3746,2.4371,2.4755,2.495,2.495,2.5428,2.6151,2.6412,2.7415,2.8685,2.8848,2.8173,2.6954,2.5236,2.466,2.4647,2.4582,2.4566,2.4566,2.4517,2.4613,2.4874,2.5468,2.5745,2.6037,2.6707,2.6661,2.6487,2.6504,2.6349,2.6217,2.6279,2.6285,2.6325,2.6415,2.5958,2.5367,2.4629,2.4997,2.5187,2.4766,2.4962,2.5218,2.5426,2.5184,2.5005,2.5005,2.5005,2.5062,2.518,2.5309,2.535,2.5337,2.5337,2.5337,2.5337,2.5337,2.5306,2.5244,2.5244,2.5094,2.4794,2.3994,2.3261,0.0,0.0,0.0,2.5703,0.0,0.0,0.0,0.0,2.5699,0.0,0.0,0.0,0.0,2.4865,2.4294,2.4294,2.4186,0.0,0.0,2.4656,2.5691,2.7399,2.8447,2.8395,2.6843,2.6592,2.6899,2.774,2.6907,2.6781,2.7721,2.7769,2.6602,2.4086,2.3947,2.3103,2.1417,2.0467,2.0004,1.9993,1.9993,1.9993,2.0031,2.0827,2.1206,2.1244,2.2154,2.2969,2.3689,2.3727,2.416,2.4813,2.4813,2.5258,2.6022,2.693,2.7829,2.8697,2.9419,2.8539,2.6838,2.5157,2.4549,2.45,2.45,2.45,2.45,2.45,2.4912,2.5387,2.5406,2.5832,2.6486,2.7369,2.6817,2.6273,2.6954,2.6462,2.6097,2.6676,2.6774,2.6986,2.7635,2.6543,2.5561,2.5385,2.5275,2.542,2.5984,2.5419,2.5281,2.5988,2.5436,2.5005,2.5005,2.5005,2.5286,2.5918,2.6622,2.7002,2.6939,2.6939,2.6939,2.6939,2.6939,2.6939,2.6906,2.6906,2.6499,2.562,2.41,2.3376,0.0,0.0,2.5703,2.5702,0.0,0.0,0.0,0.0,0.0,0.0,0.0,0.0,0.0,2.5317,2.5066,2.4981,2.4435,2.4207,0.0,2.5387,2.5848,2.5872,2.7178,2.7861,2.7324,2.6756,2.7029,2.848,2.7178,2.6993,2.8499,2.8049,2.7089,2.5695,2.4561,2.3389,2.2218,2.0774,2.0038,2.0012,2.0012,2.0012,2.0012,2.0278,2.041,2.0448,2.1228,2.2036,2.2797,2.3342,2.4015,2.4794,2.5321,2.5665,2.6005,2.6902,2.7765,2.8405,2.809,2.7531,2.6711,2.5055,2.4517,2.45,2.45,2.45,2.4611,2.515,2.543,2.58,2.6649,2.7017,2.7263,2.7759,2.7593,2.738,2.7472,2.7285,2.7123,2.7245,2.7256,2.7302,2.7461,2.7061,2.6539,2.5959,2.6281,2.648,2.6143,2.635,2.6626,2.6868,2.6678,2.6523,2.6523,2.6382,2.639,2.6582,2.6738,2.6842,2.6808,2.7267,2.7521,2.7521,2.8065,2.8082,2.7521,2.7521,2.7131,2.6335,2.5321,2.4594,2.5671,2.5691,0.0,2.5702,2.5702,0.0,2.5703,0.0,2.5691,0.0,0.0,0.0,0.0,0.0,2.5476,2.5385,2.4851,2.4585,0.0,2.5473,2.5579,2.5067,2.6241,2.71,2.7105,2.6637,2.7045,2.8763,2.7812,2.7665,2.8821,2.8089,2.7249,2.6409,2.4778,2.3476,2.2563,2.1192,2.0332,2.0012,2.0012,2.0012,2.0012,1.9971,1.996,1.9998,2.045,2.1262,2.2303,2.2807,2.3679,2.4735,2.5543,2.6014,2.6371,2.7266,2.809,2.8596,2.7419,2.6972,2.6637,2.502,2.45,2.45,2.45,2.4704,2.5039,2.5559,2.6061,2.661,2.7305,2.7658,2.7832,2.7875,2.7858,2.7789,2.7642,2.76,2.7509,2.7452,2.7421,2.7476,2.7676,2.7678,2.742,2.6644,2.6971,2.7109,2.6592,2.6971,2.7299,2.7299,2.7299,2.7282,2.7233,2.7105,2.7007,2.6893,2.708,2.7131,2.7097,2.7824,2.823,2.823,2.8738,2.8738,2.823,2.796,2.7706,2.7486,2.6742,2.6285]}]]